GFSNGP_850_thetae_000.txt.gz
Theta_e
313 314 313 319 320 318 320 319 318 317 317 316 316 312 311 315 315 315 315 316 316 317 317 316 315 313 312 310 309 307 306 304 304 303 303 303 303 301 298 293 291 291 292 292
315 318 318 322 321 322 320 317 317 318 318 315 312 312 312 314 315 314 315 316 316 317 317 316 315 313 311 310 308 306 305 303 302 302 303 302 300 298 294 291 290 292 291 291
322 323 322 326 322 321 315 314 314 318 318 312 312 312 311 314 315 315 315 316 316 317 317 316 314 313 311 309 307 305 303 301 301 302 301 299 297 294 291 290 291 291 291 290
322 323 321 317 319 320 319 319 317 316 312 311 310 308 310 314 316 315 315 315 316 316 316 314 313 310 308 306 305 303 301 300 301 300 298 297 294 290 289 290 291 291 290 289
319 318 318 316 313 318 320 320 314 312 310 309 310 313 310 312 316 316 316 316 317 316 315 313 310 308 306 304 303 301 300 301 300 298 297 294 290 289 289 290 290 290 289 288
318 317 322 316 314 312 314 319 312 311 310 310 310 312 308 310 314 315 315 315 315 314 313 310 307 306 305 303 301 300 300 299 298 297 295 290 289 288 289 289 289 289 288 286
316 319 315 314 313 312 320 316 312 312 311 310 310 309 310 310 312 313 313 313 312 311 309 307 305 304 302 301 300 300 299 298 296 294 290 289 287 288 288 289 289 288 287 285
319 319 317 313 313 315 311 311 311 310 310 308 307 309 309 310 310 310 310 309 308 307 306 304 303 302 301 300 299 299 298 296 294 290 288 287 286 287 288 288 288 286 285 284
316 316 312 312 313 314 313 311 310 311 311 311 308 308 308 307 307 306 305 304 303 303 302 301 300 299 300 299 299 298 296 294 290 288 287 286 286 287 288 288 286 284 283 282
316 314 312 312 314 313 313 313 311 311 311 311 308 306 304 302 301 301 301 301 300 300 300 299 298 298 298 299 298 295 294 290 288 286 285 286 287 287 287 285 284 283 282 282
312 310 309 311 312 313 312 312 311 310 310 309 306 302 302 301 301 300 300 300 299 299 299 298 298 298 298 297 295 293 290 288 286 285 286 287 287 286 285 284 282 282 282 282
315 311 312 310 312 312 312 310 310 310 307 305 304 302 301 301 301 300 300 299 298 298 298 297 297 297 296 294 292 290 288 286 286 286 287 287 286 286 284 282 282 281 281 281
312 313 311 311 311 311 311 309 308 308 305 303 302 302 302 301 300 299 299 298 298 297 297 296 296 295 293 292 289 287 286 286 286 287 287 286 285 283 282 282 281 281 280 280
313 312 307 308 307 309 310 307 306 305 304 303 302 301 299 298 298 297 297 297 297 296 296 295 294 293 291 288 287 286 286 286 287 287 286 284 283 282 281 280 280 280 280 280
310 312 312 309 308 307 307 306 305 303 302 300 298 298 297 296 296 296 296 296 296 295 295 294 292 290 287 287 286 286 286 287 287 286 284 282 282 281 280 280 280 280 280 280
309 309 308 308 306 305 305 304 302 299 298 297 297 296 295 295 295 295 295 295 295 294 293 292 289 287 287 286 286 286 286 287 285 284 282 282 281 280 280 280 279 279 279 279
306 302 303 304 305 303 303 302 301 299 297 296 295 295 295 295 295 294 294 293 293 292 291 287 287 287 286 286 286 286 287 285 283 282 281 281 280 280 279 279 279 279 279 279
311 310 308 308 305 303 301 300 299 298 296 295 295 295 295 294 294 294 293 293 292 290 287 287 286 286 285 286 286 286 285 283 282 281 280 280 280 279 279 279 279 279 279 279
309 309 307 306 304 302 300 299 297 296 295 295 294 294 294 294 293 293 293 292 289 288 287 286 286 285 285 286 286 284 283 281 281 280 280 279 279 279 279 279 278 278 278 278
307 307 306 304 302 301 299 296 295 295 295 294 294 294 293 293 293 292 291 289 288 287 286 286 285 286 286 285 284 282 281 281 280 280 279 279 279 279 278 278 278 278 278 278
306 305 304 302 300 298 296 295 295 294 294 294 294 294 293 292 291 291 289 289 287 286 286 286 286 286 284 283 282 281 280 280 279 279 279 278 278 278 278 278 278 278 278 278
304 303 301 299 297 295 295 295 294 294 294 293 293 292 292 291 290 288 287 287 287 286 286 286 285 283 282 281 281 280 280 279 279 278 278 278 278 278 278 278 278 278 278 278
301 300 298 296 295 295 294 294 294 293 293 292 292 291 290 289 288 288 288 287 287 287 285 284 283 282 281 280 280 280 279 278 278 278 278 278 278 278 278 278 278 278 278 279
299 297 296 295 295 294 294 293 293 292 292 291 290 289 290 289 288 288 288 287 285 284 283 282 281 281 280 280 279 279 278 278 278 278 278 278 278 278 278 278 279 279 279 279
297 295 295 295 294 294 293 292 292 291 290 289 289 288 288 289 289 288 286 284 283 282 281 281 281 280 280 279 278 278 278 278 278 278 278 278 279 279 279 278 278 278 279 278
295 295 295 294 294 294 293 292 292 290 290 290 288 288 289 288 286 285 284 282 281 281 281 281 280 280 279 278 278 278 278 278 279 279 279 279 279 278 278 278 278 278 279 279
295 294 294 293 293 293 292 291 291 290 289 289 290 288 286 285 284 283 281 281 281 281 280 280 279 278 278 278 279 279 279 279 279 278 279 279 278 278 277 278 278 279 279 279

GFSNGP_850_thetae_003.txt.gz
Theta_e
313 313 314 315 315 313 313 312 313 313 315 314 314 314 313 313 313 313 315 316 317 317 315 314 312 312 311 310 309 308 307 305 304 304 303 302 302 301 299 297 294 291 291 291
314 313 313 314 314 317 314 315 314 317 316 314 314 313 310 312 313 313 314 315 316 317 316 314 313 312 311 310 309 307 305 304 303 302 301 301 301 299 297 294 291 291 291 291
317 319 316 316 315 317 317 317 317 318 317 315 314 311 311 312 313 314 314 315 317 317 316 315 313 312 311 310 308 306 304 302 301 301 301 300 299 297 294 290 290 290 291 290
318 320 324 318 319 318 318 316 315 315 316 315 314 308 309 312 313 314 314 315 315 316 316 315 313 312 310 308 307 305 303 301 300 300 300 299 297 293 290 289 289 290 290 290
322 319 317 317 320 320 319 318 316 317 315 310 309 310 310 312 314 314 314 315 315 316 316 315 313 311 309 307 305 303 300 299 300 300 299 296 292 290 289 288 288 289 289 289
319 318 319 314 314 314 316 320 316 316 316 308 309 314 314 309 313 314 314 314 315 315 314 313 311 309 307 305 302 300 299 300 300 298 295 293 290 288 287 287 288 288 288 287
318 319 315 313 312 312 320 317 309 314 313 310 310 309 308 309 311 312 313 314 313 313 313 311 308 306 304 302 299 299 300 299 297 295 293 290 289 287 286 287 288 288 287 285
314 318 315 312 312 314 311 309 310 310 308 307 306 306 307 308 310 311 312 311 311 310 308 306 305 303 302 300 299 299 298 297 295 292 290 288 287 286 287 287 288 286 285 284
314 314 311 311 312 312 311 310 308 310 310 310 308 307 307 307 308 308 309 308 307 308 305 302 301 301 301 299 299 298 297 295 292 290 288 286 285 286 288 287 285 284 283 282
316 313 312 311 312 312 312 311 309 310 311 312 309 307 307 306 306 306 306 305 304 303 302 301 299 298 298 299 298 296 294 293 290 288 286 285 286 287 286 284 283 282 282 282
312 310 309 311 312 312 311 311 310 309 310 310 309 306 306 304 302 301 301 301 300 300 299 298 297 297 297 297 296 294 293 290 288 286 286 287 287 285 284 283 282 281 281 281
315 311 312 311 312 311 311 310 309 309 306 307 307 304 301 300 300 300 299 299 298 298 298 297 297 297 296 295 293 292 290 287 286 286 287 287 285 285 283 282 282 281 281 280
313 312 310 311 311 310 310 309 308 309 307 304 301 301 300 300 299 299 299 298 298 298 297 297 296 295 295 293 291 289 287 286 286 287 286 285 284 283 282 283 282 281 281 280
313 312 307 309 309 309 310 308 307 306 303 302 301 300 300 300 299 298 297 297 297 296 296 295 295 294 292 290 288 287 286 286 287 287 285 283 282 282 281 281 280 281 280 280
310 311 311 309 308 308 308 307 304 302 301 301 301 300 299 298 297 297 296 296 296 295 295 294 293 292 289 287 286 286 286 287 287 285 283 282 282 281 281 280 280 280 280 279
308 309 308 308 307 306 306 304 303 302 301 300 299 298 297 296 296 296 295 295 295 294 293 292 291 288 287 286 286 286 286 286 285 284 282 282 281 281 280 280 279 279 279 279
307 302 303 304 305 305 304 303 303 301 299 298 297 295 295 295 295 295 294 293 293 293 292 290 287 287 286 286 286 286 286 285 284 282 282 281 280 280 279 279 279 279 279 279
310 310 308 309 307 305 303 303 301 299 298 296 295 295 294 294 294 294 293 293 292 291 288 287 286 286 286 285 286 286 286 284 282 281 281 280 280 279 279 279 279 279 279 279
309 309 308 307 306 305 302 300 299 298 296 295 295 294 294 294 294 293 292 292 291 288 287 287 286 286 285 286 286 285 283 282 281 280 280 280 279 279 278 278 278 278 278 279
308 307 307 306 304 303 300 299 298 296 295 294 294 294 294 293 293 292 291 290 288 287 287 286 286 286 286 286 284 283 281 281 280 280 279 279 278 278 278 278 278 278 278 278
307 306 305 304 301 300 300 298 296 295 294 294 294 294 293 292 291 291 290 289 288 287 286 286 286 286 285 283 282 281 281 280 280 279 278 278 278 278 278 278 278 278 278 278
306 304 303 302 300 298 297 295 294 294 294 294 293 293 292 291 290 289 287 287 287 287 286 286 286 283 283 281 281 280 280 279 279 278 278 278 278 278 278 278 278 278 278 278
303 302 301 299 298 296 294 294 294 294 294 293 292 292 291 291 289 288 288 287 287 287 286 284 283 282 281 281 280 280 279 278 278 278 278 278 279 278 278 278 278 278 278 279
301 300 299 297 295 294 294 293 293 293 292 291 291 290 291 290 288 287 288 287 287 285 284 282 281 281 280 280 279 278 278 278 279 279 279 279 279 278 278 278 278 278 278 279
299 298 296 295 294 294 293 293 292 291 291 290 290 288 288 287 288 288 287 285 284 283 282 281 281 280 280 279 278 278 279 279 279 279 279 279 279 279 278 278 277 278 279 279
297 296 295 295 294 294 293 292 292 291 291 290 288 288 288 288 287 286 285 284 282 281 281 280 280 279 278 278 278 279 279 279 279 279 279 279 279 278 277 277 277 278 279 279
295 295 294 294 293 293 293 292 292 291 290 290 290 288 287 286 285 284 283 282 281 281 280 279 279 278 278 278 279 279 279 279 279 279 279 279 278 278 278 278 278 278 279 279

GFSNGP_850_thetae_006.txt.gz
Theta_e
312 311 311 314 313 312 311 310 310 309 310 311 311 311 313 313 313 313 313 313 315 316 317 316 315 313 312 312 310 310 308 307 305 305 304 303 302 302 302 300 298 294 292 291
313 313 312 314 314 314 314 311 310 310 310 310 311 312 313 311 312 313 313 313 315 315 315 314 314 312 311 309 308 307 306 305 304 303 302 301 301 300 299 297 294 291 290 290
315 316 317 315 314 313 314 313 311 312 311 310 312 313 310 310 312 313 314 314 315 315 315 314 312 311 309 309 308 306 305 304 302 301 300 300 300 299 296 294 291 290 289 289
315 316 324 318 315 312 313 314 312 311 314 314 313 312 309 309 312 313 314 314 315 316 314 312 311 310 310 309 308 306 303 301 300 299 299 299 298 296 294 291 290 289 288 288
319 320 319 318 319 314 314 316 313 313 314 313 310 310 309 310 312 313 314 315 316 315 315 313 311 311 310 309 306 303 301 300 299 299 298 297 295 294 292 290 288 287 288 289
317 320 317 313 317 316 316 321 315 314 314 313 311 314 313 309 311 312 313 314 315 314 314 313 311 311 309 306 303 301 299 298 298 298 297 295 294 292 290 288 286 287 289 288
316 319 314 312 310 316 322 319 309 315 315 308 310 307 308 311 310 312 313 313 313 313 314 312 311 308 306 304 300 299 298 298 298 297 295 294 292 289 287 286 287 288 287 286
313 317 314 311 311 315 311 310 309 312 313 310 308 305 307 308 310 311 312 312 312 312 310 309 307 306 303 301 299 298 298 297 297 296 294 291 289 287 286 288 288 287 285 285
313 313 309 311 310 312 310 309 309 309 310 310 309 306 307 305 306 308 309 310 309 310 307 304 303 303 302 299 298 298 297 296 295 293 291 289 287 287 288 288 286 284 283 283
314 312 312 311 312 310 310 309 309 310 310 311 309 306 304 306 307 308 308 308 307 307 304 301 299 299 300 299 297 297 296 295 293 291 289 287 287 288 287 285 284 283 282 281
312 310 309 311 311 310 309 308 308 308 309 309 308 305 306 305 306 306 306 305 305 304 302 299 297 297 297 297 297 296 295 293 291 288 287 288 288 287 285 283 282 281 281 280
315 312 311 310 311 309 310 309 308 309 306 306 308 307 306 305 304 304 302 301 300 299 298 297 296 297 297 296 295 294 292 290 288 287 288 288 287 285 283 282 282 281 280 280
312 312 310 310 310 309 310 308 308 309 309 308 306 305 302 300 300 299 298 298 298 297 297 296 296 296 296 294 293 292 289 288 287 288 288 287 284 283 283 283 282 281 280 280
312 311 308 309 309 309 309 308 308 308 307 306 303 300 300 299 298 298 298 297 297 297 296 296 296 295 294 292 290 288 287 287 287 287 286 284 282 282 281 280 280 280 280 280
310 310 310 311 309 308 308 307 306 304 302 300 300 300 300 299 298 297 297 296 296 296 295 295 295 294 292 289 288 287 287 287 287 286 284 282 282 281 281 280 280 279 279 280
308 309 308 309 307 306 306 305 304 301 300 300 300 299 299 298 297 296 296 296 296 295 295 294 293 292 289 287 287 286 286 286 286 284 282 282 281 281 280 279 279 279 279 279
306 302 304 304 306 305 305 304 303 302 301 300 299 298 297 296 296 295 295 294 294 294 293 292 291 287 287 286 286 286 286 286 284 282 281 281 280 280 279 278 278 279 279 279
311 311 309 309 307 305 304 303 302 301 300 299 297 296 295 295 295 295 294 294 293 292 291 288 287 286 286 286 286 286 286 284 282 281 281 280 280 279 278 278 278 278 279 279
310 310 309 308 308 306 304 303 302 300 298 297 295 295 295 294 294 294 293 293 292 291 288 287 286 286 286 286 286 285 283 282 281 281 280 279 279 278 278 278 278 278 278 279
309 307 307 307 306 305 303 302 299 298 296 295 295 294 294 293 293 293 292 291 290 288 287 287 286 285 285 286 285 283 282 281 281 280 279 279 278 278 278 278 278 278 278 279
307 306 306 306 304 303 302 299 298 296 294 294 294 294 294 293 292 292 291 290 288 287 287 286 285 286 286 283 282 282 281 281 280 279 278 278 278 279 279 279 278 278 279 279
305 305 304 304 303 300 298 298 296 295 294 294 294 293 293 292 291 290 289 288 288 287 286 286 286 285 283 282 281 281 281 280 279 278 278 279 279 279 279 278 278 279 279 278
304 303 302 302 300 299 297 295 294 294 294 294 293 293 292 292 291 289 289 287 286 287 287 285 284 283 281 281 281 280 279 279 278 279 279 279 279 278 278 278 278 278 278 278
302 301 301 299 298 297 295 294 294 294 293 293 292 292 291 290 289 287 287 287 287 286 284 283 282 281 281 281 280 279 278 279 279 279 279 279 279 279 279 278 278 277 278 279
301 300 298 297 297 295 294 294 293 293 292 291 291 290 289 288 288 288 288 287 285 284 282 282 282 281 280 279 279 278 279 279 279 279 279 279 279 279 279 278 277 278 278 279
299 298 297 296 296 294 294 293 293 292 291 291 289 288 288 288 289 288 286 285 283 282 282 281 281 280 279 278 278 279 279 279 279 279 279 279 279 279 279 278 278 278 278 279
297 297 296 294 294 294 293 293 292 291 290 290 290 288 289 288 286 285 284 283 282 282 281 281 280 279 278 278 279 279 279 279 279 279 279 279 279 279 278 278 278 278 278 279

GFSNGP_850_thetae_009.txt.gz
Theta_e
311 311 311 312 313 312 312 310 310 309 309 308 308 309 310 310 311 312 313 311 311 312 317 322 324 325 324 322 318 315 312 310 308 306 304 304 303 301 301 301 300 298 296 294
313 313 313 312 313 313 312 311 310 309 310 309 308 309 310 311 312 313 312 311 310 313 317 319 320 319 318 316 313 312 309 307 305 304 303 302 301 300 300 299 298 296 294 291
315 314 315 317 314 313 313 312 311 312 311 310 310 311 311 312 310 311 312 312 311 313 316 317 317 316 314 312 309 308 306 305 303 302 301 300 300 299 298 297 296 293 291 289
315 315 321 319 315 313 313 312 312 312 311 310 310 310 310 311 309 312 313 312 312 313 313 312 311 310 310 308 306 304 304 303 301 300 299 299 299 298 297 296 293 290 288 287
317 320 319 315 315 314 314 314 311 313 312 311 310 310 312 308 309 311 313 313 315 313 312 311 310 308 308 306 305 303 301 300 299 299 299 298 298 297 295 292 290 288 287 289
317 320 321 313 314 312 315 319 311 311 313 311 311 316 314 309 309 311 313 315 314 313 311 310 308 308 307 304 302 301 300 299 298 298 298 298 297 294 292 290 287 287 289 288
316 319 315 312 310 315 320 317 307 312 312 310 313 311 309 308 309 311 312 313 313 312 310 309 308 307 305 303 301 300 298 298 298 298 298 297 294 292 289 287 288 289 287 285
315 316 314 310 313 316 312 309 308 312 313 310 309 306 306 305 308 309 310 310 311 311 309 307 306 305 303 301 299 298 298 298 298 298 296 294 292 288 287 288 288 287 285 285
312 312 309 311 310 311 310 308 308 310 312 312 305 302 303 304 306 308 309 309 308 309 306 303 302 304 303 300 298 298 298 298 297 296 293 290 287 287 288 288 286 284 284 284
314 312 310 312 311 311 309 308 308 309 311 309 306 303 303 303 304 305 305 306 306 306 303 301 301 301 302 299 298 298 298 297 295 292 289 287 288 289 287 285 283 283 283 282
311 310 310 312 310 310 308 307 307 307 308 308 309 306 307 305 305 304 304 304 304 305 303 300 299 299 298 298 298 297 296 294 292 288 287 288 288 287 285 283 282 282 281 280
315 312 311 310 310 308 309 307 307 308 306 307 310 308 306 304 304 303 303 303 303 302 301 298 298 298 297 297 295 294 293 290 288 287 288 288 287 285 283 283 282 281 280 280
312 312 310 310 309 308 309 307 307 308 308 307 306 309 306 304 303 303 303 302 300 299 298 297 297 297 296 294 293 292 290 287 287 288 288 287 285 284 284 283 282 281 280 280
313 312 309 308 308 308 308 307 307 307 307 307 304 304 303 302 300 300 299 298 297 297 296 296 296 295 294 292 291 288 287 287 287 288 287 285 283 282 281 281 281 281 280 280
310 311 310 310 308 307 306 306 306 305 305 303 301 300 300 299 298 297 297 297 296 296 296 295 295 294 292 289 287 287 287 287 287 287 285 283 282 281 281 280 280 279 279 280
309 308 309 309 307 306 305 305 307 304 301 299 299 299 299 298 297 297 296 296 296 295 294 294 293 291 288 287 287 287 287 287 287 285 283 282 281 281 280 280 279 279 279 279
307 304 305 305 306 306 306 306 305 301 301 300 299 299 298 297 296 296 295 294 294 294 293 292 291 288 287 287 287 287 287 287 284 282 282 281 280 280 279 279 279 279 279 279
310 310 309 310 308 306 304 303 302 300 300 300 299 298 297 296 296 295 294 293 293 292 291 290 287 287 287 287 286 287 286 284 282 282 281 280 279 279 279 279 279 279 279 279
309 310 309 308 308 306 304 302 301 300 300 299 297 296 295 295 294 294 293 292 292 292 289 287 287 287 287 286 287 286 284 282 281 281 280 279 279 279 279 279 279 279 279 279
308 307 308 307 306 306 304 301 301 300 298 297 295 295 294 294 293 293 292 292 291 289 288 287 287 287 287 287 285 283 282 281 281 280 279 279 279 279 279 279 279 279 279 278
307 307 306 306 305 304 302 301 300 298 296 295 295 294 294 293 292 292 292 291 289 288 288 287 287 287 286 284 283 282 281 280 280 279 279 279 280 279 279 279 279 279 278 278
306 306 305 305 304 302 301 300 298 297 295 294 294 294 293 292 292 291 289 289 289 288 287 287 287 285 283 282 282 281 280 279 279 279 279 279 279 279 279 279 279 278 277 277
306 305 304 304 303 301 298 297 296 295 294 294 294 293 293 292 291 291 290 289 288 287 287 286 284 283 282 282 281 280 279 279 279 280 279 279 279 279 279 278 278 277 277 278
303 302 303 302 300 298 297 295 294 294 294 293 293 292 292 292 290 289 289 288 287 287 285 283 282 282 282 281 280 279 279 279 280 279 279 279 279 278 278 278 278 278 278 278
301 301 301 299 297 297 296 294 294 293 293 292 292 291 290 289 289 289 288 288 286 284 283 282 282 282 281 280 279 279 279 280 279 279 279 279 279 278 278 278 278 278 278 278
299 299 298 297 298 296 295 294 294 293 292 292 291 290 289 289 289 289 287 285 284 282 282 282 282 281 280 279 279 279 280 279 279 279 279 279 278 278 279 279 278 278 278 279
297 297 296 296 295 296 294 294 293 292 292 291 291 289 289 289 288 286 285 283 282 282 282 281 280 280 279 279 279 279 279 279 279 279 279 278 278 278 279 279 279 278 279 279

GFSNGP_850_thetae_012.txt.gz
Theta_e
311 311 312 313 313 313 312 312 313 313 312 311 311 310 310 310 310 312 313 315 312 312 313 313 311 320 326 326 324 323 319 316 311 307 307 305 303 302 301 300 300 299 298 297
313 312 313 314 314 314 314 313 313 312 313 312 311 311 311 312 311 312 314 314 311 310 310 308 317 323 324 323 320 315 313 310 308 307 305 303 301 301 300 300 299 298 296 294
315 314 316 318 316 316 315 313 313 314 313 311 310 310 309 311 311 313 312 313 310 308 306 312 318 322 321 317 313 309 309 307 306 304 302 301 300 300 299 298 297 296 293 291
315 316 324 320 316 316 316 314 313 312 312 311 311 311 310 311 312 310 314 311 309 306 307 311 314 315 315 311 308 308 306 305 303 301 300 299 299 298 298 297 295 292 290 288
319 320 318 319 315 318 316 317 314 314 313 312 312 311 313 307 307 310 312 310 308 311 312 313 313 313 311 309 307 305 303 302 300 300 299 298 298 298 297 294 291 289 288 290
318 319 323 319 314 313 314 320 313 312 313 313 312 315 315 304 308 310 311 311 312 311 311 311 309 309 308 305 303 302 301 300 299 298 298 298 298 296 293 291 288 288 290 289
317 318 318 315 312 315 320 318 311 311 313 313 314 311 304 307 310 310 310 311 310 309 308 308 306 305 304 302 301 300 299 299 298 297 297 297 295 293 290 288 289 289 288 286
317 316 321 312 314 317 315 312 309 311 312 311 309 304 304 306 306 308 310 309 309 309 307 305 304 303 302 301 300 299 298 298 298 297 296 294 292 289 288 289 289 287 285 285
318 319 314 312 314 312 309 309 309 310 311 310 308 304 305 304 304 303 303 305 306 308 305 302 301 303 304 300 299 298 297 297 297 295 293 291 288 289 289 288 286 285 285 285
317 317 315 314 312 310 309 307 307 308 309 308 305 303 303 303 303 305 305 304 305 305 304 302 300 300 301 299 297 297 297 296 294 292 290 288 289 289 288 286 284 284 284 283
317 316 315 312 310 309 308 306 306 308 308 306 306 301 302 301 301 303 304 304 304 304 302 300 299 299 298 297 297 296 295 293 292 289 288 289 289 288 286 284 284 283 282 281
319 315 315 313 309 308 307 306 304 306 304 303 305 303 303 303 303 304 303 303 302 302 301 299 298 298 296 295 295 295 294 291 288 288 288 289 288 286 284 283 283 282 281 280
317 313 311 309 308 308 307 306 304 306 306 305 303 306 306 304 303 303 302 302 301 300 299 298 297 296 295 294 293 292 290 288 288 288 289 288 286 284 284 283 283 282 281 280
312 313 309 309 308 307 308 306 305 305 305 305 306 304 307 305 302 302 300 300 299 298 297 296 296 295 294 293 291 289 288 288 288 288 288 286 284 283 283 283 282 281 280 279
312 310 310 310 308 306 306 306 305 305 304 304 304 304 303 302 301 299 297 296 296 296 295 295 295 294 292 290 288 288 288 288 288 287 285 283 283 282 282 281 280 279 279 280
309 308 309 308 307 306 305 305 306 305 304 304 302 300 299 298 297 296 296 296 296 295 295 294 293 292 290 288 288 287 287 287 287 285 283 283 282 281 280 279 279 279 279 279
307 305 306 305 305 305 306 306 306 305 302 300 299 298 297 297 296 295 295 294 295 294 293 293 292 289 288 287 287 287 287 287 285 283 282 282 281 280 279 279 279 279 279 279
310 310 310 310 307 305 305 304 304 301 299 298 298 298 297 296 296 295 294 294 294 293 292 290 288 287 287 287 287 287 287 284 283 282 282 281 280 279 279 279 279 279 279 279
309 308 308 308 308 306 305 304 301 300 299 299 298 297 296 296 295 295 294 293 293 292 290 287 287 287 287 287 287 286 284 283 282 281 280 280 279 280 280 279 279 279 279 279
309 308 307 307 307 307 306 302 300 300 299 299 297 296 295 295 294 294 292 292 291 289 288 287 287 287 287 287 285 283 282 282 281 280 279 280 280 280 279 279 279 279 279 278
308 308 307 306 305 305 303 301 300 300 299 297 296 295 295 294 293 292 292 291 289 287 287 287 287 287 287 285 283 282 282 281 280 279 280 280 280 279 279 279 279 279 278 278
307 306 305 305 305 303 301 300 300 299 297 295 295 294 293 292 292 291 290 290 289 288 287 287 287 286 284 283 282 282 281 280 279 280 280 280 279 279 279 279 279 279 278 278
304 304 304 304 304 302 300 300 298 297 295 294 294 293 293 292 292 291 290 289 288 288 288 287 285 284 283 282 282 281 280 279 279 280 280 279 279 279 279 279 279 279 278 278
304 302 302 302 301 300 299 297 296 294 294 294 293 293 293 292 290 289 289 289 288 288 287 285 283 283 282 281 280 280 280 280 280 280 279 279 279 279 279 279 279 278 278 278
302 302 301 300 299 299 297 296 294 293 293 293 292 292 291 290 290 290 289 288 288 286 285 283 283 282 281 280 280 280 280 280 280 279 279 279 279 279 278 278 279 278 278 278
300 300 299 298 298 297 295 294 294 293 293 292 291 290 290 289 289 289 288 287 286 284 283 283 282 281 280 280 279 280 280 280 280 279 279 279 278 278 278 278 279 278 278 279
298 299 298 297 296 295 295 294 294 293 292 292 291 289 289 289 289 288 287 285 284 283 283 282 281 280 280 280 280 280 280 280 279 279 279 278 278 278 278 279 279 279 279 279

GFSNGP_850_thetae_015.txt.gz
Theta_e
312 312 313 314 314 314 314 314 315 315 314 313 313 312 312 311 311 311 311 314 315 314 316 318 319 317 313 312 311 318 321 320 315 314 308 305 304 303 303 302 301 301 301 300
312 312 313 315 315 316 317 316 315 315 315 313 312 312 312 312 312 312 312 313 314 314 315 316 311 307 306 309 312 314 318 315 303 305 304 303 304 303 302 301 301 300 300 299
315 314 315 319 319 318 317 316 315 317 315 313 312 312 311 310 311 311 312 312 314 312 312 307 306 308 305 308 314 313 314 306 305 304 304 303 303 302 301 300 299 299 298 296
317 316 324 320 316 317 317 317 316 315 315 314 313 312 312 311 311 311 312 313 311 310 306 304 304 305 307 307 305 307 304 303 301 305 304 303 301 300 299 298 298 297 295 292
318 317 317 321 318 318 318 318 315 314 316 314 313 313 309 306 308 310 313 311 307 302 302 303 305 308 309 307 305 303 304 300 306 305 301 300 299 298 298 298 297 294 291 290
317 319 321 320 318 316 316 321 314 313 317 314 313 318 309 306 310 310 308 305 301 300 301 305 306 306 307 307 306 304 304 300 300 300 299 298 298 298 298 295 292 290 291 290
316 318 317 317 316 315 322 319 314 311 315 314 314 308 305 304 307 305 303 304 304 303 304 301 301 302 300 297 296 299 301 300 299 298 298 298 298 296 294 291 290 291 289 287
315 318 320 315 316 319 317 314 313 312 314 312 306 304 304 303 303 302 301 300 299 298 297 296 298 302 302 301 299 299 298 298 298 298 298 297 295 293 290 290 290 289 287 286
318 320 318 316 315 315 313 312 312 311 312 310 305 303 302 302 301 302 301 301 300 301 299 298 300 302 303 299 298 299 299 299 298 297 296 294 292 290 290 290 289 287 285 285
318 319 318 317 315 312 309 309 309 310 309 308 304 302 300 300 299 299 300 299 300 300 300 300 300 300 302 300 299 299 299 298 297 295 293 290 290 290 290 288 286 285 284 284
319 318 318 315 312 310 308 307 307 308 306 305 303 301 300 298 298 300 299 298 300 302 302 301 299 300 299 299 298 299 298 296 294 291 289 290 290 289 287 286 284 284 283 283
319 318 317 315 310 308 308 306 305 304 303 302 303 304 299 297 297 297 299 300 302 301 301 299 299 299 298 298 297 297 296 293 290 289 289 289 288 287 286 285 284 283 283 281
317 313 312 310 309 308 306 305 304 304 303 303 299 302 303 300 296 297 298 299 300 300 300 299 298 298 297 296 296 294 293 289 289 289 289 288 286 285 284 283 283 282 281 281
314 312 312 310 310 308 306 304 304 303 302 302 301 299 298 303 299 298 299 300 300 300 299 298 297 297 296 295 293 291 289 288 288 288 288 286 285 284 284 283 282 281 280 280
313 311 311 310 308 306 306 304 304 302 302 301 299 300 301 301 303 301 300 299 299 298 297 297 296 295 294 291 289 288 288 288 288 288 286 284 284 283 283 281 280 280 280 280
311 309 309 308 306 306 305 302 303 301 300 300 301 300 301 301 301 300 299 298 297 297 296 296 295 293 290 288 288 288 288 288 288 285 284 283 283 282 281 280 280 280 279 279
308 305 306 305 305 305 304 303 302 303 302 302 303 302 301 300 298 297 296 295 295 295 295 294 292 290 288 288 288 288 288 287 285 284 283 283 281 280 280 280 280 280 279 279
312 310 310 309 308 306 303 302 303 304 303 302 300 299 298 297 296 295 295 295 294 293 292 291 289 288 288 288 288 288 287 285 283 283 283 281 280 280 280 280 279 279 279 279
311 310 309 308 308 306 304 304 304 302 301 299 298 297 296 296 296 295 294 294 293 293 291 289 288 288 287 287 288 286 284 283 283 283 281 280 280 280 280 279 279 279 279 279
308 309 308 307 306 306 306 305 304 300 299 298 297 297 296 295 295 294 293 292 291 291 290 288 288 288 288 288 286 284 283 283 282 281 280 280 280 280 280 279 279 279 279 279
306 307 307 306 304 304 305 306 302 299 299 298 297 296 295 294 294 293 293 292 291 289 288 288 288 288 288 286 284 283 283 282 281 280 280 280 280 280 279 279 279 279 279 279
305 305 305 305 304 303 303 301 300 300 299 297 296 295 295 294 293 292 292 291 289 288 288 288 288 287 285 284 283 283 282 280 280 280 280 280 280 279 279 279 279 279 279 279
304 304 303 303 303 302 300 299 299 299 298 297 295 295 294 294 293 292 291 289 289 288 288 288 287 285 284 283 283 282 280 280 280 280 280 279 279 279 279 279 279 279 279 279
303 302 302 302 302 301 299 298 298 298 296 295 294 294 294 292 291 290 290 289 288 288 288 287 285 284 283 283 282 280 280 280 280 280 279 279 279 279 279 279 278 279 279 278
301 301 301 301 300 299 299 299 298 296 294 294 293 292 292 291 291 290 289 289 289 288 286 285 284 284 283 281 281 280 280 280 280 279 279 279 279 278 278 278 278 279 279 279
299 300 299 298 299 299 299 298 296 294 294 293 292 291 291 290 290 290 289 289 288 286 285 284 284 283 281 281 280 280 280 280 280 279 279 279 278 278 278 278 278 279 279 279
296 297 298 297 297 298 297 296 295 293 293 293 292 291 290 290 289 289 289 287 286 285 284 283 283 281 281 281 281 281 280 280 279 279 279 279 279 279 279 279 279 279 279 279

GFSNGP_850_thetae_018.txt.gz
Theta_e
312 311 311 311 312 313 314 314 315 314 314 314 314 314 313 312 311 311 312 312 313 314 314 316 319 321 316 321 317 317 317 313 311 311 308 309 306 306 304 302 303 302 302 302
311 311 311 312 312 313 315 316 317 317 317 315 314 312 311 312 311 310 311 312 312 313 315 317 319 317 315 314 315 313 310 306 306 304 301 304 302 302 301 302 301 302 302 303
313 313 313 315 316 318 317 316 317 319 317 315 315 313 312 312 311 311 311 311 312 313 314 315 312 312 312 310 306 303 303 302 301 300 302 298 302 303 300 302 303 302 301 301
314 313 317 319 316 316 318 318 318 315 316 316 313 313 311 309 308 308 310 311 312 312 310 310 309 309 307 303 301 301 302 300 301 307 303 299 300 300 302 301 300 301 302 300
317 314 314 318 320 317 318 317 315 312 315 314 313 312 309 309 308 309 311 310 309 308 308 305 303 303 301 300 301 301 302 305 304 298 299 302 303 301 300 300 301 302 298 292
317 317 316 319 316 316 315 320 314 312 314 313 313 314 308 308 305 305 306 306 305 303 301 300 298 299 301 304 307 307 304 301 306 304 299 298 300 300 301 300 299 295 291 291
316 318 315 314 314 315 321 317 314 312 314 310 307 305 305 305 305 303 300 299 300 299 299 299 300 303 305 305 309 309 306 300 301 299 298 299 299 299 299 296 292 291 290 288
315 317 315 315 315 318 315 314 313 312 312 306 305 304 304 302 301 302 302 301 301 302 302 302 305 303 296 298 301 299 297 295 297 297 298 299 299 297 293 291 291 290 288 286
314 315 314 317 316 316 314 312 311 311 311 308 304 303 302 302 299 297 297 296 296 295 295 296 300 298 298 297 295 295 296 296 297 299 300 297 293 291 291 290 289 288 286 286
316 317 316 317 316 313 311 309 309 310 310 307 304 304 302 300 299 298 297 296 296 297 296 296 296 296 295 295 296 298 300 300 299 296 293 290 290 291 290 289 287 286 285 285
315 315 316 313 311 310 309 308 309 308 307 306 305 302 302 299 299 297 296 297 298 299 298 296 296 296 297 297 298 299 298 296 293 291 290 290 290 290 288 287 286 285 284 284
316 316 316 311 311 309 308 306 306 306 304 303 302 300 300 299 297 297 298 297 298 298 299 297 297 297 296 297 297 297 296 294 291 290 290 290 290 289 287 286 285 284 283 282
314 315 313 312 311 308 307 305 304 304 304 303 301 299 298 296 298 298 298 297 300 300 299 297 297 297 297 297 296 295 294 290 290 290 290 290 289 286 285 284 283 282 281 280
315 314 313 312 310 308 307 305 304 302 302 302 301 300 299 297 297 298 298 299 299 298 298 298 298 298 296 296 294 292 290 290 290 290 290 287 286 285 284 283 282 281 281 281
314 314 312 311 310 308 306 305 304 302 301 300 301 301 300 298 299 300 299 299 299 299 298 297 297 296 295 294 292 290 290 290 290 289 286 285 284 284 283 282 281 281 281 281
313 312 311 309 308 307 305 303 304 302 302 302 301 300 300 300 298 298 298 298 299 298 297 297 296 295 293 291 290 290 289 289 288 286 285 284 284 282 281 281 281 281 280 280
311 309 308 306 306 306 304 303 304 304 304 303 303 302 301 300 298 297 297 296 297 297 296 296 295 293 290 289 289 289 289 288 286 285 284 283 282 281 281 281 281 280 280 280
311 311 311 310 308 306 304 303 304 305 305 304 303 301 301 300 299 297 296 296 296 295 295 294 292 290 289 289 288 289 287 285 284 284 283 282 281 281 281 281 280 280 280 280
310 310 309 309 308 307 304 303 304 305 304 303 302 300 298 298 297 296 295 295 295 295 293 291 289 289 288 288 288 287 285 284 284 283 282 281 281 281 280 280 280 280 279 279
307 308 307 308 306 305 304 303 304 303 302 301 299 298 296 296 296 295 295 295 294 293 292 289 288 288 288 288 287 285 284 284 283 282 281 281 281 280 280 280 279 279 279 279
305 306 305 307 306 305 304 306 305 302 300 299 298 298 297 296 295 295 294 294 292 291 289 289 289 288 289 287 285 284 284 283 281 281 281 280 280 280 279 279 279 279 279 279
303 304 305 304 305 306 304 304 303 300 299 298 297 297 296 295 294 293 293 293 292 290 289 289 289 288 287 285 284 284 283 281 281 281 280 280 280 279 279 279 279 278 278 279
301 301 302 302 302 302 301 301 300 298 298 298 297 296 295 295 294 293 293 291 290 290 289 289 289 287 285 284 284 283 281 281 281 280 280 280 279 279 279 278 278 278 279 279
301 300 300 300 300 300 300 298 297 297 297 297 296 295 295 294 293 292 291 291 290 289 289 288 287 285 284 284 283 282 281 281 280 280 280 279 279 279 278 278 278 278 279 279
300 300 299 299 299 298 298 297 296 296 296 296 295 294 294 293 293 292 291 290 289 289 288 287 285 285 284 283 282 281 281 281 280 280 279 279 279 279 279 278 278 279 279 279
298 298 298 297 297 297 297 296 296 296 295 294 294 293 292 292 291 291 290 290 289 288 286 285 284 284 283 282 281 281 281 280 280 280 280 280 279 279 279 279 279 279 279 279
298 297 298 297 296 296 295 295 296 296 294 294 294 293 292 291 291 290 289 289 288 286 285 284 284 282 282 281 281 281 281 280 280 280 280 280 280 279 279 279 279 279 279 279

GFSNGP_850_thetae_021.txt.gz
Theta_e
309 310 310 309 310 311 311 312 314 313 313 313 314 315 315 313 311 311 311 311 310 312 313 314 315 315 317 318 319 320 322 320 321 317 313 309 309 307 305 306 306 305 302 302
305 309 309 310 310 311 312 312 313 313 314 314 316 314 313 312 311 311 311 311 311 311 311 314 316 316 315 312 310 314 316 316 312 309 305 304 303 302 305 300 301 301 300 302
306 311 310 313 311 312 317 317 317 318 316 316 316 314 309 308 309 310 311 311 311 311 311 312 312 313 308 311 308 307 310 309 306 303 302 302 303 300 298 299 298 299 301 300
311 309 313 318 315 315 316 316 316 316 315 312 314 312 308 307 303 308 308 310 310 309 309 308 308 307 306 309 303 307 306 304 303 302 301 301 301 302 300 304 300 301 300 299
316 315 311 315 318 316 317 316 314 312 311 312 312 312 309 306 302 301 302 304 306 307 308 306 304 303 304 302 302 301 298 298 299 302 304 306 306 304 300 303 302 298 296 292
316 316 314 315 316 316 313 319 314 311 312 311 309 312 309 305 301 301 302 302 303 303 302 303 301 301 301 301 301 302 304 304 306 307 307 305 301 301 297 295 296 294 290 291
315 316 314 311 312 315 320 316 312 312 312 308 307 305 304 304 300 300 301 301 300 300 301 302 301 301 303 303 304 305 306 304 303 301 301 300 296 295 296 296 291 290 291 290
315 316 313 311 313 317 314 313 312 311 311 307 305 304 302 302 302 301 301 301 301 300 300 301 305 307 307 304 305 306 305 303 301 295 294 294 295 295 292 291 291 291 290 288
312 312 309 314 315 315 313 312 310 310 311 309 305 303 302 299 300 300 301 302 302 303 303 302 304 305 306 304 304 303 298 296 294 294 294 295 292 291 291 291 291 289 287 287
315 313 313 315 313 312 311 309 308 310 310 308 306 303 300 297 297 298 297 301 303 304 305 303 303 301 303 299 295 294 294 295 295 294 292 290 291 292 291 290 288 287 286 285
312 313 313 312 312 311 309 308 309 308 308 308 306 302 300 297 296 296 296 295 296 297 296 295 295 296 296 296 296 297 298 297 295 293 291 291 291 290 289 287 286 286 285 284
313 314 314 312 312 310 308 307 307 307 305 304 304 303 301 298 298 298 297 296 296 296 296 295 295 296 296 296 297 298 296 293 291 290 290 290 289 288 286 286 285 284 283 282
312 313 314 313 312 310 308 306 305 304 304 303 302 302 301 299 297 297 298 297 298 299 298 297 297 297 296 295 295 294 292 290 290 290 289 289 287 286 285 284 284 282 281 281
312 312 312 312 311 310 308 305 304 303 302 302 301 300 301 299 297 297 296 296 299 297 295 296 296 295 294 294 292 290 290 290 289 289 288 286 286 286 285 284 282 282 281 281
314 315 313 313 311 309 306 305 303 302 301 300 300 300 300 299 298 297 297 298 296 295 295 295 295 294 292 291 290 290 290 289 289 288 287 286 286 284 283 282 281 281 281 281
313 313 311 310 309 308 306 303 303 303 302 301 300 299 300 299 297 298 297 297 297 296 296 295 294 293 291 289 289 289 290 290 289 287 286 285 284 282 282 281 281 281 280 280
308 311 311 308 307 307 305 304 304 305 304 305 303 301 300 299 298 297 296 296 296 296 295 295 294 292 290 289 289 290 290 288 287 286 285 284 282 281 281 281 281 280 280 280
305 307 309 310 309 307 304 303 303 303 305 303 302 301 300 300 300 297 296 296 295 295 294 293 292 290 290 290 290 290 288 286 285 285 284 282 281 281 281 281 280 280 280 280
307 309 309 310 309 307 305 303 303 303 303 302 302 301 301 301 300 298 296 296 295 295 294 292 291 290 290 289 290 288 286 285 285 284 282 281 281 281 280 280 279 279 279 279
305 307 308 307 307 305 304 303 303 303 304 301 302 300 300 298 297 296 295 295 295 294 293 292 289 289 289 289 288 286 285 285 284 282 281 281 280 280 280 279 279 279 279 279
302 304 305 306 307 305 304 304 303 305 307 302 302 300 299 297 296 295 295 295 294 293 292 290 289 289 289 288 286 285 285 284 282 281 281 280 280 280 279 279 279 279 279 279
301 302 303 304 305 305 304 303 303 306 302 301 299 298 296 296 295 294 294 294 293 292 290 289 289 289 289 286 285 284 284 282 281 281 281 280 280 280 279 279 279 279 278 279
300 300 301 302 302 303 303 302 303 303 301 300 298 296 296 296 295 295 294 293 292 291 289 289 289 289 287 285 284 283 282 281 281 281 281 280 280 279 279 279 279 278 279 279
300 300 300 300 300 300 300 300 299 299 298 297 296 296 297 295 294 293 293 292 291 290 289 289 288 286 285 284 284 282 282 281 281 281 280 279 279 279 279 279 279 279 279 279
299 299 299 298 298 299 298 298 297 296 295 295 296 295 295 294 294 293 292 291 290 289 289 289 287 285 285 284 282 282 282 281 281 281 280 280 280 279 279 279 279 279 279 279
298 298 298 297 296 296 297 297 297 295 294 295 295 294 295 294 292 291 291 290 290 289 289 287 285 285 284 282 282 282 282 281 281 281 280 280 280 279 279 279 279 279 279 279
297 297 297 297 296 296 295 295 295 295 295 295 295 294 294 296 292 291 290 290 289 289 287 285 285 284 282 282 282 282 281 281 281 281 281 282 282 282 282 281 281 280 280 280

GFSNGP_850_thetae_024.txt.gz
Theta_e
307 308 308 308 309 309 307 309 310 311 311 311 311 313 314 311 311 312 311 311 311 311 310 310 311 312 313 313 314 317 317 317 320 321 320 321 320 317 316 309 305 303 306 304
308 307 308 308 309 309 310 311 311 310 311 310 312 315 315 309 309 308 310 311 311 310 311 311 311 312 314 313 312 312 313 314 315 315 314 316 312 309 307 304 303 304 298 298
306 308 309 311 309 310 312 312 311 315 315 314 314 312 310 308 304 302 306 308 309 311 310 310 310 311 311 310 308 308 311 307 307 311 309 303 304 302 302 301 299 300 300 299
309 308 310 315 313 312 311 314 313 314 314 313 311 312 308 307 302 301 302 306 305 305 306 307 308 308 307 305 302 303 304 303 303 304 301 301 301 300 301 301 301 301 298 299
312 312 311 314 315 315 315 315 313 313 311 310 312 311 309 306 302 302 300 303 304 303 305 305 305 307 304 303 301 300 301 299 298 300 302 302 302 302 303 303 302 300 299 300
315 314 314 311 316 314 313 316 313 312 310 310 309 314 309 305 302 301 300 301 302 302 302 301 301 301 301 299 299 299 299 299 302 304 304 303 303 303 302 300 300 295 293 291
316 315 312 310 310 314 318 314 313 312 311 310 309 307 306 305 301 301 299 299 299 299 299 298 298 298 299 299 299 299 300 301 302 303 302 301 300 300 298 296 294 292 290 290
315 316 314 310 313 317 313 313 313 311 311 309 307 305 306 305 303 303 301 299 299 302 300 300 300 302 301 301 300 301 302 302 303 302 301 299 296 293 293 293 290 290 289 288
312 312 310 311 313 314 313 312 310 309 310 309 306 305 304 305 304 303 304 303 302 302 302 303 303 305 305 302 301 303 303 300 297 295 295 296 294 292 291 291 290 289 287 286
313 313 310 313 314 312 312 310 309 309 309 308 307 306 303 303 302 304 304 305 305 304 304 304 303 304 305 303 299 297 298 297 295 296 295 292 290 290 290 289 287 286 286 286
312 311 313 312 312 312 311 309 309 309 309 308 306 304 302 301 300 302 304 303 304 305 304 302 300 297 297 296 296 298 298 296 295 292 290 290 290 290 289 288 287 286 286 285
310 311 313 314 313 313 311 309 308 307 307 306 305 305 302 300 298 299 300 299 299 300 299 297 296 299 299 297 296 298 296 292 290 290 290 290 289 288 287 287 286 285 283 282
310 311 312 312 312 313 312 309 307 306 305 305 304 303 302 300 299 297 297 298 299 299 298 296 298 297 295 295 295 294 293 291 290 290 290 290 288 287 285 285 283 282 282 281
312 311 311 312 313 311 310 308 306 305 304 303 304 302 301 299 299 297 298 297 300 298 299 299 300 297 296 295 294 292 290 290 290 290 289 287 286 285 285 283 282 282 282 281
309 311 312 312 311 310 309 307 305 304 303 302 301 301 300 300 299 298 297 298 300 298 298 297 297 296 295 293 291 290 290 290 289 288 286 286 285 284 283 282 282 282 281 281
303 307 309 310 310 309 308 305 304 303 302 303 302 300 299 299 298 298 297 301 299 297 297 296 295 294 292 290 289 289 289 289 287 286 285 285 284 283 282 282 281 281 281 280
302 304 308 308 308 309 308 306 304 304 303 302 302 303 300 298 298 297 299 298 296 297 296 295 294 292 289 288 288 289 289 287 286 285 285 284 283 282 281 281 281 280 280 280
302 304 305 306 308 309 307 305 303 303 304 306 304 299 299 298 299 299 297 295 294 294 294 293 292 290 288 288 288 289 288 286 286 285 284 283 282 281 281 281 280 280 280 279
302 304 307 308 309 308 307 305 304 303 304 305 302 300 298 299 298 297 297 295 295 294 293 291 290 288 288 288 289 288 287 286 285 284 283 282 281 281 281 280 280 279 279 279
303 304 305 306 307 306 306 304 302 302 302 303 300 299 299 298 297 297 296 296 295 294 293 291 289 288 288 289 289 287 286 285 284 283 282 281 281 280 280 280 279 279 279 279
303 302 303 306 307 307 305 303 302 301 302 302 301 300 300 299 297 296 295 294 293 293 292 290 288 288 288 289 287 286 285 285 283 282 281 281 281 280 280 279 279 279 279 279
302 303 302 304 305 306 305 304 302 301 301 303 300 299 298 298 296 294 294 294 294 293 291 289 289 288 289 288 286 285 285 283 282 281 281 281 280 280 279 279 279 279 279 279
300 300 301 301 301 302 303 305 305 302 302 303 300 299 298 297 296 295 294 293 292 292 290 288 288 288 289 287 285 285 283 282 282 282 281 280 280 280 279 279 279 279 279 279
299 300 300 299 300 300 300 302 302 302 303 301 299 298 297 297 295 294 293 293 292 291 289 288 288 288 287 285 285 283 282 282 282 281 281 280 280 280 279 279 279 279 279 279
299 299 299 299 299 298 298 297 298 298 298 297 297 296 296 295 294 294 293 292 291 290 289 288 289 287 286 285 284 283 282 282 282 281 281 280 280 280 280 279 279 279 279 280
298 298 298 298 297 297 296 296 296 296 295 295 295 295 295 294 296 293 292 292 291 289 289 289 288 286 285 284 283 283 283 282 282 281 281 282 282 282 282 282 281 280 280 280
296 296 296 297 296 296 296 295 295 295 294 294 294 294 294 295 299 295 292 291 290 289 289 288 286 285 285 283 283 283 282 282 282 282 282 283 283 283 283 283 283 283 282 282

GFSNGP_850_thetae_027.txt.gz
Theta_e
307 307 308 308 309 308 305 308 308 309 308 308 309 310 310 313 311 309 308 306 308 310 311 310 310 310 310 310 311 311 312 314 316 318 318 318 318 319 315 315 314 313 310 304
304 306 307 308 308 308 308 308 308 308 309 309 309 311 313 311 308 305 304 304 307 308 310 310 310 310 311 311 313 312 311 312 312 312 313 314 315 316 311 308 306 305 302 302
308 306 308 310 308 308 309 309 309 310 310 310 312 313 311 309 305 303 302 301 302 304 306 307 308 308 309 310 309 308 308 308 307 308 309 308 307 307 304 304 303 302 302 303
309 307 310 310 308 308 309 310 309 310 311 312 312 311 309 307 304 303 302 302 301 301 302 304 305 305 303 304 304 302 303 306 304 302 302 301 300 300 301 301 302 302 302 301
311 312 308 312 312 313 313 314 311 311 312 312 311 310 309 307 304 302 301 301 301 300 301 302 302 301 300 299 300 299 300 300 300 300 300 301 302 301 302 302 303 302 302 300
314 314 311 311 315 313 312 315 312 311 311 309 310 311 309 307 304 302 301 300 300 300 300 300 300 299 299 298 297 298 297 299 300 299 299 299 301 300 300 301 300 299 298 299
315 315 310 309 309 313 317 313 313 312 312 310 308 308 308 308 305 304 302 299 299 299 299 298 298 298 299 298 297 297 298 299 299 299 300 300 300 299 301 300 300 299 295 291
313 316 312 311 313 316 312 313 312 311 310 310 309 307 308 308 306 306 305 302 301 301 301 300 300 300 300 300 299 300 300 300 299 299 299 299 300 300 298 295 292 290 289 289
310 311 309 311 311 313 312 312 310 308 308 309 309 307 307 308 307 306 307 305 304 304 303 302 302 302 303 301 300 300 300 300 299 297 295 294 296 294 291 290 290 289 288 287
311 312 309 312 314 313 313 312 310 309 309 309 309 307 306 306 308 307 306 306 305 305 304 303 302 302 303 302 301 299 296 294 294 294 293 291 290 290 290 289 288 287 286 285
310 309 312 313 312 312 312 312 310 309 309 309 308 308 306 304 305 307 307 306 305 305 305 304 302 300 297 295 295 296 296 295 293 292 290 290 290 289 288 287 286 286 285 284
309 308 309 311 312 311 312 312 310 309 308 308 307 307 305 302 302 304 305 306 305 303 301 297 296 297 297 295 295 297 296 293 291 291 290 290 289 289 288 287 287 286 285 284
309 311 311 312 312 311 311 311 310 309 307 307 306 305 304 302 301 301 301 300 300 300 298 296 297 297 295 295 295 294 293 291 290 290 290 290 288 287 287 286 285 284 282 282
308 309 310 312 311 311 311 310 309 308 306 305 305 304 303 301 300 300 298 298 299 298 297 297 298 296 296 295 294 292 291 290 290 290 289 288 287 286 285 284 283 282 282 282
306 305 304 308 310 311 310 309 308 307 306 305 304 303 302 301 300 300 297 298 300 298 298 300 298 297 296 294 292 290 290 290 290 289 287 286 286 285 284 283 282 282 282 281
303 303 304 306 307 308 308 308 307 305 305 304 304 301 302 300 300 299 298 297 301 298 298 298 297 296 294 292 290 290 290 290 289 287 286 285 285 284 282 282 282 281 281 281
299 301 303 305 306 308 308 308 306 305 304 303 304 303 301 300 299 298 297 299 299 296 297 297 296 295 293 290 289 289 289 289 287 286 285 285 284 282 282 281 281 281 280 280
300 300 301 302 304 306 308 308 306 304 303 303 303 302 302 300 300 298 298 300 297 295 296 295 294 293 290 289 289 289 289 287 286 285 284 283 282 282 281 281 280 280 280 279
301 301 303 304 306 306 307 308 306 304 303 303 304 305 305 301 299 298 299 298 296 296 296 294 293 291 289 289 289 289 287 286 285 284 284 282 282 281 281 280 280 280 279 279
301 302 303 304 305 306 306 307 305 304 302 301 304 303 300 300 298 298 298 297 297 296 295 294 292 289 289 288 288 288 286 285 285 284 282 282 281 281 281 280 280 279 279 279
299 302 303 304 305 306 307 305 302 301 301 301 302 302 300 299 298 297 297 297 295 294 293 292 290 289 288 288 288 287 285 285 284 283 282 282 281 281 280 280 279 279 279 279
299 299 300 301 303 304 305 304 302 300 299 300 301 301 298 298 298 296 296 296 294 294 293 291 289 288 288 288 288 286 285 284 283 282 282 282 281 280 280 280 279 279 279 279
299 300 300 300 300 301 302 303 302 301 301 302 303 302 299 299 299 297 296 294 293 293 292 290 288 288 288 288 286 285 285 283 282 282 282 281 281 280 280 279 279 279 279 279
298 299 300 300 299 299 300 300 302 303 302 302 302 301 302 299 297 295 294 294 294 293 291 290 288 288 288 287 285 285 284 283 283 282 282 281 281 281 280 280 279 279 279 279
297 298 298 298 298 298 298 297 298 300 301 300 300 300 301 297 296 295 294 294 293 292 291 289 288 288 288 286 285 284 283 283 283 282 282 281 282 282 282 282 281 281 280 280
293 295 297 296 296 296 296 296 296 296 297 298 299 299 299 295 295 294 293 293 292 291 290 288 288 288 287 285 285 283 283 283 282 282 282 283 283 283 283 283 283 283 282 282
289 292 294 295 295 295 295 295 294 294 294 295 295 296 296 293 293 297 295 292 292 291 289 288 288 288 285 285 283 283 283 283 282 282 283 283 284 284 284 284 284 284 284 284

GFSNGP_850_thetae_030.txt.gz
Theta_e
306 306 306 307 308 307 304 305 305 306 306 307 307 307 309 309 312 309 307 306 304 304 306 308 308 309 310 310 310 310 310 310 311 311 314 315 316 316 317 318 318 315 315 313
302 306 306 307 307 307 307 308 307 308 308 308 308 309 312 312 309 306 303 303 303 303 303 305 305 305 305 306 307 308 309 308 309 311 311 313 313 313 313 314 313 311 306 305
303 306 307 309 307 307 308 307 308 309 309 307 309 312 312 310 307 304 302 302 302 302 302 303 303 303 303 304 303 303 304 306 307 308 309 310 309 308 306 306 304 304 303 302
301 306 309 309 307 307 308 308 307 308 307 308 309 311 310 309 307 304 301 301 301 302 301 300 301 301 301 301 300 300 300 301 302 303 304 304 303 303 302 301 299 300 300 301
305 312 308 311 309 309 311 314 308 308 308 309 311 310 310 309 305 302 300 300 301 300 299 299 299 299 300 299 298 298 297 298 299 299 301 300 300 301 301 300 300 300 299 299
311 313 311 309 314 313 312 315 312 309 309 310 310 310 308 308 305 303 301 302 302 300 299 298 298 298 298 298 297 298 297 297 298 299 299 299 298 299 299 299 298 298 298 298
312 311 310 307 309 313 317 313 312 312 312 310 308 308 308 308 307 305 304 305 305 304 302 300 298 298 298 298 298 298 298 298 298 299 299 299 299 299 298 299 299 299 299 296
312 312 312 310 312 315 312 311 311 311 310 309 309 308 308 308 307 307 306 307 307 307 305 302 300 300 300 300 298 299 300 299 299 299 298 298 298 297 297 295 291 290 290 289
308 309 308 309 312 312 311 312 311 310 309 309 308 308 308 308 307 307 306 307 307 307 306 305 303 302 302 301 300 300 300 300 299 297 296 295 294 291 290 289 289 289 288 287
310 311 308 311 312 312 312 311 311 310 309 309 308 308 308 308 308 307 307 306 306 307 306 305 303 302 302 301 301 300 298 295 295 294 291 290 290 289 289 289 288 287 286 286
309 308 310 311 311 311 311 311 311 310 309 309 309 308 307 308 308 306 306 306 305 305 306 304 302 300 298 296 295 296 296 294 292 290 290 290 290 289 288 287 287 286 286 285
309 307 308 310 311 311 311 311 311 310 309 308 309 308 307 306 306 306 305 305 305 304 303 300 297 297 296 295 294 295 294 291 290 290 290 289 288 288 287 287 286 285 284 283
310 311 310 311 312 311 311 311 311 309 308 307 307 307 306 306 304 303 305 304 304 300 298 299 298 298 296 295 294 293 291 290 290 289 289 288 287 286 285 285 284 284 283 282
305 306 309 311 308 308 309 309 309 308 308 306 305 305 305 304 303 301 302 301 300 299 297 298 299 297 296 295 293 291 290 290 290 289 288 287 286 286 286 285 284 283 282 282
305 304 303 304 305 305 308 309 308 308 307 306 304 304 304 303 302 301 299 298 301 299 297 297 298 297 296 294 292 290 290 290 290 289 288 287 286 286 284 283 283 282 282 281
303 303 303 303 303 304 306 306 306 307 306 305 304 303 303 302 300 299 299 298 301 300 300 299 297 297 295 293 291 290 290 290 290 288 287 286 285 285 284 283 282 282 281 281
301 302 303 303 303 303 305 306 305 306 305 304 303 302 302 301 300 299 298 297 299 302 298 298 297 296 294 292 290 290 290 290 288 287 286 285 285 284 282 282 281 281 280 280
300 300 300 300 301 303 305 306 306 306 305 303 302 302 303 301 300 301 298 297 301 298 296 296 296 295 293 291 290 290 290 289 287 286 285 285 283 282 281 281 281 280 280 280
300 302 301 301 302 304 305 306 307 307 305 303 302 303 302 301 302 300 299 299 301 297 297 296 295 294 292 290 290 289 289 288 286 285 284 283 282 282 281 281 280 280 280 279
301 301 301 302 303 303 304 305 306 306 304 302 301 301 302 303 301 299 299 299 301 298 296 296 295 293 291 290 289 289 288 286 285 285 283 282 282 282 281 281 280 280 279 279
299 300 301 303 305 305 306 306 306 303 301 300 300 301 303 302 299 298 298 300 298 296 295 295 294 292 290 289 289 289 287 285 285 284 282 282 282 282 281 281 280 279 279 279
298 298 298 299 300 300 302 303 304 302 300 298 298 299 301 298 298 297 298 299 297 296 295 294 293 292 289 289 289 288 286 285 284 283 282 282 282 281 281 280 280 279 279 279
297 298 298 298 298 298 299 301 301 301 300 300 300 300 300 298 298 298 299 297 296 295 295 294 292 291 289 289 289 287 285 284 283 282 283 282 282 281 281 281 280 280 279 279
294 296 297 298 298 298 298 297 298 300 301 300 300 300 300 300 296 297 297 296 295 294 294 293 292 290 289 288 288 286 285 284 283 283 283 282 282 282 282 282 282 282 281 281
291 293 294 296 297 297 297 297 297 297 297 299 300 300 300 300 300 297 297 295 293 293 293 292 291 289 289 288 287 285 285 283 283 283 282 282 283 283 283 283 283 283 283 282
289 290 291 293 294 295 295 296 296 296 296 295 297 298 299 300 298 296 295 293 293 293 292 291 290 289 288 288 286 285 284 283 283 283 283 283 284 284 284 284 284 284 284 284
288 288 288 289 289 292 294 295 295 295 294 294 294 293 296 297 297 297 297 294 293 292 291 290 290 288 288 287 285 284 283 283 283 283 283 284 284 285 285 285 285 285 286 286

GFSNGP_850_thetae_033.txt.gz
Theta_e
306 306 306 307 308 306 305 305 308 306 305 306 306 307 307 309 311 309 306 305 304 304 304 306 306 306 307 308 308 308 309 309 310 311 310 311 310 311 312 313 313 313 315 316
303 306 306 307 307 307 307 307 306 307 308 308 308 307 310 311 309 307 303 303 303 302 302 303 304 304 305 305 306 306 307 308 308 309 310 310 310 310 311 311 311 309 309 308
303 306 307 309 307 307 307 306 308 309 308 307 307 309 310 310 308 304 302 301 301 300 300 301 301 301 301 302 302 302 302 303 304 305 306 306 306 306 307 306 305 303 303 301
303 305 309 308 306 306 307 307 306 307 307 307 307 308 310 309 307 306 302 301 300 299 299 299 299 299 299 298 300 300 299 300 301 301 303 302 301 301 301 301 302 302 301 299
305 307 307 310 307 308 309 314 307 307 307 307 309 310 307 308 307 306 302 302 300 300 299 299 298 297 297 297 299 298 298 299 299 299 299 299 299 299 299 299 299 299 299 299
309 310 310 309 313 311 311 317 311 307 307 308 310 311 308 308 308 305 305 305 303 303 301 300 298 298 298 298 298 297 298 298 298 299 299 299 298 298 297 297 298 298 297 297
312 311 308 306 311 312 318 315 311 311 311 310 308 309 309 309 307 307 306 305 304 303 304 302 300 299 299 300 298 298 298 298 298 298 298 298 298 298 297 298 297 297 298 297
310 311 310 308 310 315 314 311 311 311 310 309 308 308 308 309 308 307 307 306 306 305 305 304 303 302 302 301 300 299 299 298 298 298 298 298 298 297 297 296 294 291 289 289
307 308 306 309 311 312 310 311 311 310 309 308 308 307 308 309 308 308 307 307 306 305 305 304 303 303 302 301 300 300 299 298 298 296 295 292 291 290 290 290 289 289 288 287
309 309 307 310 311 311 311 311 310 310 310 309 308 308 308 309 308 308 307 307 307 306 305 304 303 301 300 299 298 296 296 295 293 291 290 290 290 290 289 288 287 286 286 286
307 307 309 309 310 311 311 311 311 310 310 309 308 308 308 309 308 307 307 307 306 306 306 304 301 301 299 297 296 296 294 292 291 290 290 290 289 288 287 287 286 286 285 284
309 308 309 310 311 311 311 310 311 311 311 309 308 308 308 307 308 307 307 307 306 306 304 301 299 298 298 297 295 294 292 291 290 290 290 289 288 287 287 286 285 284 283 283
309 310 310 309 310 310 309 308 309 309 309 308 307 307 307 306 306 306 306 306 306 305 302 299 300 298 297 296 294 293 291 291 290 290 289 288 287 286 285 285 284 283 282 282
309 308 307 308 309 308 307 306 309 309 308 307 307 306 306 305 303 303 305 306 305 302 300 300 299 297 297 295 293 292 290 290 290 289 288 287 286 286 285 285 284 283 282 282
306 305 304 304 304 304 304 304 307 308 307 306 306 305 305 304 303 302 301 303 301 300 298 299 299 296 296 295 293 290 290 290 289 289 287 287 286 286 285 284 283 282 282 281
303 302 302 303 302 303 303 304 305 306 306 306 305 304 304 303 301 300 299 299 299 301 300 298 298 296 296 294 292 290 290 289 289 288 287 286 286 285 284 283 282 282 281 281
300 301 302 303 303 303 303 303 304 306 305 306 305 303 302 302 300 299 298 297 298 301 301 298 299 296 295 293 291 290 289 289 289 287 286 286 285 284 283 282 282 281 281 280
300 301 301 300 301 302 304 304 304 305 306 306 304 302 302 302 302 300 299 297 296 299 300 299 297 296 294 292 290 290 289 289 288 287 286 285 284 283 282 282 282 281 280 280
300 301 301 301 301 302 302 303 304 305 305 306 305 302 302 301 301 301 298 296 296 300 301 297 296 295 294 292 290 290 289 289 288 287 286 285 283 283 282 282 281 280 280 280
300 302 302 303 302 302 303 304 305 305 305 305 303 300 300 301 299 299 298 297 298 302 299 297 297 295 293 291 290 289 289 289 287 286 285 284 283 283 282 281 281 280 280 279
299 299 300 302 303 303 304 305 305 305 302 301 300 299 299 299 300 300 296 296 298 298 296 296 296 294 292 290 289 289 289 289 287 286 284 283 283 282 282 281 280 280 280 280
298 298 299 300 300 300 300 302 303 302 301 299 298 298 297 299 300 299 297 298 297 298 296 296 295 293 292 290 289 289 289 288 286 285 284 283 283 282 282 281 281 281 280 280
295 296 297 298 299 299 299 299 300 300 299 298 298 299 298 300 300 299 300 295 296 297 296 295 294 293 292 289 289 289 289 287 286 284 284 283 283 282 283 283 282 282 282 281
291 292 293 295 296 297 298 298 297 298 300 299 298 297 298 299 298 299 294 295 296 295 295 294 293 292 291 289 288 289 288 286 285 284 283 283 283 283 283 284 283 283 283 283
289 290 291 292 293 294 296 296 296 296 296 297 299 298 298 297 297 299 297 296 295 294 294 293 292 291 291 289 288 288 287 286 284 283 283 283 283 284 284 284 284 284 284 284
288 288 288 288 288 289 291 294 295 295 295 295 295 297 298 298 297 297 298 296 294 293 293 292 292 292 290 288 288 288 286 285 284 284 283 283 284 284 285 285 285 285 285 286
287 287 287 288 288 288 288 289 292 294 294 294 294 294 294 297 297 296 297 296 297 294 291 292 291 290 289 288 288 287 285 284 284 284 283 284 285 285 285 286 286 286 286 286

GFSNGP_850_thetae_036.txt.gz
Theta_e
309 309 310 311 311 310 310 311 313 311 310 311 311 312 311 312 313 311 308 305 304 303 302 302 302 303 305 306 306 306 306 307 308 308 309 310 310 310 310 310 310 310 313 314
310 308 309 310 310 310 310 310 310 311 311 311 311 310 311 312 311 309 305 304 302 301 300 299 300 301 301 301 302 302 303 305 306 307 307 307 309 309 310 311 311 311 313 310
313 309 310 312 311 311 311 310 310 311 311 311 311 310 310 312 309 306 304 302 301 300 298 298 298 299 298 299 300 301 301 302 303 304 305 307 307 307 307 308 308 306 304 303
312 310 315 311 309 310 311 310 310 310 310 310 310 309 310 309 308 305 302 302 301 299 298 298 297 298 298 300 300 300 300 301 301 302 303 303 303 303 303 303 301 300 299 298
313 312 312 311 309 310 312 316 310 310 310 310 309 311 311 309 308 304 303 305 303 301 299 299 299 298 298 299 299 299 299 299 300 300 300 300 300 300 299 299 298 298 297 297
311 311 314 313 314 310 312 319 313 310 311 311 311 316 316 309 307 306 306 305 304 302 301 300 300 299 299 299 297 297 298 298 298 298 299 299 299 299 298 298 297 297 297 296
313 311 311 311 313 312 319 318 312 312 312 312 313 312 309 309 307 307 306 305 303 303 303 302 302 301 300 299 298 297 298 298 298 298 298 297 297 297 297 297 297 297 296 296
312 312 311 309 311 315 315 311 311 312 310 309 309 308 308 308 307 307 307 306 304 304 303 303 302 302 301 301 300 299 299 299 299 298 298 297 297 297 297 296 294 291 289 288
311 311 309 310 312 312 311 310 311 311 310 309 308 307 307 307 307 307 307 307 306 305 303 303 302 301 301 299 299 299 298 298 297 294 292 291 290 290 290 289 289 288 287 287
311 312 310 309 310 310 311 310 310 310 310 309 308 308 307 307 307 307 307 307 307 305 305 303 301 300 300 299 297 296 294 293 291 291 291 290 290 289 289 288 287 287 286 286
312 311 311 310 310 310 310 310 310 310 310 310 309 309 308 308 308 308 307 307 307 306 306 304 302 301 299 297 296 295 293 291 291 291 290 290 289 288 288 287 287 286 285 284
314 312 312 311 310 310 310 310 309 310 310 310 310 308 308 308 308 308 308 307 307 306 305 303 301 300 298 297 296 294 292 291 291 290 290 289 288 287 287 286 286 285 283 283
310 309 310 310 309 308 309 309 309 308 309 308 308 308 308 308 307 308 307 307 306 306 305 302 300 299 298 297 295 293 291 291 290 290 289 288 287 287 286 285 284 283 283 282
310 310 308 308 309 308 307 306 306 306 309 309 307 307 306 307 306 306 307 307 306 305 304 301 300 300 298 296 294 292 291 291 290 290 289 287 287 286 285 284 283 283 282 282
307 307 306 305 304 303 303 304 304 304 307 308 306 306 306 305 306 306 305 305 305 304 302 298 299 299 298 296 294 291 290 290 290 289 288 287 287 286 285 284 283 282 282 282
305 304 304 303 303 304 303 303 303 304 305 306 306 306 306 304 304 303 303 303 304 304 301 298 298 297 297 295 293 291 290 290 290 289 287 287 287 286 285 283 283 282 282 281
302 302 302 303 303 303 303 303 303 303 304 305 306 306 305 303 303 302 301 301 301 302 301 299 298 297 296 295 292 290 290 290 290 288 287 287 286 285 284 283 283 282 282 281
301 302 302 301 302 303 303 302 302 304 304 306 305 305 304 303 303 302 301 299 298 298 298 298 297 297 295 294 292 290 290 290 289 288 287 287 286 284 283 283 282 282 281 281
302 302 301 301 301 301 302 302 302 303 304 305 305 306 304 302 301 301 300 298 297 296 298 299 298 297 295 294 292 290 289 289 289 288 287 286 285 284 283 283 282 282 281 280
300 302 302 303 303 303 303 303 304 305 305 304 304 303 302 300 299 299 299 298 298 297 298 300 300 296 294 293 291 289 289 289 288 287 286 285 284 284 283 283 282 281 281 280
299 300 301 302 301 301 301 302 303 304 305 304 301 300 299 299 298 298 298 298 297 298 298 299 297 295 294 292 291 289 289 289 288 286 286 284 284 284 283 283 282 282 281 281
298 298 298 299 300 300 300 300 301 302 303 302 300 298 297 297 297 297 296 298 299 296 296 296 294 294 294 292 290 289 289 289 288 286 285 284 284 284 283 283 283 283 282 282
293 294 294 295 295 297 297 298 298 300 301 301 300 299 298 298 298 298 299 299 298 297 296 295 293 294 293 292 290 289 288 289 287 286 285 284 284 284 284 284 284 283 283 283
291 291 291 292 293 294 295 296 297 297 297 299 299 299 298 298 298 298 297 297 296 297 297 294 293 293 292 292 290 288 288 288 287 286 284 284 284 284 284 284 284 284 284 284
288 288 289 289 289 289 290 292 295 296 296 296 296 298 298 297 297 297 295 297 297 296 295 292 292 292 292 291 290 288 288 288 286 285 284 284 284 284 285 285 285 285 286 286
288 288 288 288 288 288 288 288 290 293 295 295 295 294 295 297 297 296 296 296 297 297 296 293 293 292 292 291 289 288 288 287 286 285 284 284 284 284 285 285 286 286 286 286
287 287 287 287 287 288 288 288 288 289 291 293 294 294 293 293 295 295 296 296 296 296 296 295 293 292 291 290 289 288 288 287 286 284 284 284 284 285 285 286 286 286 286 286

GFSNGP_850_thetae_039.txt.gz
Theta_e
311 311 312 313 312 313 313 313 315 314 312 313 312 313 314 313 314 314 311 309 307 305 305 303 301 300 302 302 301 302 302 304 305 306 308 308 309 309 309 310 309 309 310 310
312 311 311 312 311 312 312 312 312 312 312 312 311 312 312 313 314 312 310 307 305 304 302 300 298 300 301 301 300 300 301 302 303 304 306 307 307 307 307 307 308 307 306 306
314 311 311 313 312 312 312 312 312 313 312 312 312 312 312 312 313 310 308 306 304 302 300 298 298 298 297 298 300 300 301 301 303 304 304 306 307 306 306 305 303 304 304 303
314 312 315 314 311 312 312 312 311 312 312 312 312 311 311 312 312 309 306 305 303 301 298 297 298 297 298 300 300 299 300 300 302 304 303 303 302 303 302 302 303 301 301 301
314 314 313 312 311 312 313 315 312 311 311 311 311 312 314 309 308 307 306 304 304 300 300 301 300 298 297 299 299 299 301 301 302 301 301 300 300 300 300 300 300 300 299 299
312 313 315 315 315 311 313 319 314 312 312 313 313 317 316 308 309 307 306 306 302 301 303 302 300 299 298 298 298 299 299 299 299 299 299 299 299 299 298 298 298 298 298 297
312 312 311 312 315 314 319 319 314 313 314 314 314 313 311 309 307 307 305 305 303 303 303 302 301 300 299 299 300 300 299 299 299 299 299 298 298 297 298 298 297 297 296 295
312 313 313 311 314 317 316 313 314 312 311 311 311 309 308 307 307 306 306 305 304 304 303 303 302 302 301 301 300 300 299 299 299 299 298 297 297 296 295 292 290 289 289 288
312 312 311 311 313 313 312 313 313 313 312 312 309 309 308 307 306 306 307 305 305 305 304 303 302 302 300 301 300 299 298 296 294 293 291 290 290 290 289 289 288 288 287 287
311 312 311 310 312 311 311 311 310 310 310 311 310 309 308 307 306 306 306 305 305 305 304 303 302 301 300 298 297 295 293 292 291 290 290 290 290 289 288 288 287 287 287 286
312 312 312 311 312 311 310 310 310 310 310 310 310 309 308 307 307 307 307 306 305 306 305 304 303 301 300 298 296 294 292 291 291 291 290 290 289 289 289 288 288 287 286 285
313 312 312 312 312 311 311 311 310 310 310 310 310 310 308 308 307 307 306 307 306 306 305 305 303 301 299 298 296 294 292 291 291 291 290 289 289 288 288 288 287 286 285 284
313 312 312 312 311 309 309 308 308 309 307 307 309 309 308 307 307 307 307 308 307 307 306 305 304 302 299 297 296 294 292 291 291 291 290 289 288 288 288 287 287 285 284 284
310 310 310 309 310 308 308 307 306 306 306 305 308 308 307 307 306 306 307 309 308 307 306 306 303 301 299 297 296 294 292 291 291 291 290 289 288 287 286 286 284 283 284 283
307 308 307 307 306 305 305 305 305 304 304 304 307 307 306 307 307 306 306 306 307 307 306 305 304 300 300 297 296 294 291 291 291 290 290 289 288 287 286 285 284 284 283 283
306 306 306 305 303 304 305 305 303 303 303 303 305 305 305 305 305 305 304 304 306 306 306 305 303 300 299 298 296 294 291 291 290 290 289 288 287 286 286 284 284 284 283 283
304 303 303 303 303 302 301 302 302 302 302 302 304 305 304 304 304 303 303 304 304 304 305 304 303 299 299 300 295 294 291 290 290 290 289 288 287 286 285 284 284 284 283 282
303 304 304 303 303 302 302 302 301 301 301 303 303 304 304 304 304 303 303 302 302 302 302 302 300 298 298 300 295 293 291 290 290 290 289 287 287 286 284 284 284 283 283 282
304 307 306 304 303 303 302 302 302 302 301 302 303 304 305 304 302 301 301 301 300 300 300 299 297 296 298 299 294 293 290 290 289 289 288 287 286 285 284 284 284 283 283 282
303 305 305 303 302 302 303 303 303 303 303 303 303 303 304 304 302 300 300 300 300 299 298 297 298 300 299 299 293 292 290 289 289 289 288 287 286 285 284 284 284 283 283 282
301 301 301 300 298 298 298 299 300 302 303 303 303 301 300 300 300 299 298 298 299 298 296 295 298 298 298 297 293 292 290 289 289 289 288 286 286 284 284 284 284 284 283 283
298 298 297 296 297 297 297 298 299 300 301 302 301 301 299 298 297 297 297 297 297 298 296 297 297 298 298 296 293 291 290 289 289 289 287 286 285 284 284 284 284 284 284 284
293 293 293 293 293 294 294 295 296 298 298 299 300 300 299 299 298 297 297 298 298 297 297 297 298 296 297 293 292 291 289 288 288 288 287 286 285 284 284 284 285 285 285 285
291 290 290 290 290 290 290 291 293 295 296 296 296 297 298 298 298 297 297 297 297 296 297 297 296 296 292 292 291 290 289 288 288 288 287 286 284 284 284 284 285 285 285 286
289 288 288 288 288 288 288 288 289 291 293 295 295 294 295 297 297 297 297 296 296 295 295 295 295 296 292 292 291 291 289 288 288 288 286 285 284 284 284 285 285 286 286 286
288 288 288 288 288 288 288 288 288 288 289 291 293 294 294 294 295 296 296 295 294 294 294 295 295 295 294 293 292 290 289 288 288 287 286 285 284 284 284 285 286 286 286 286
287 287 287 287 287 287 288 288 289 289 288 289 289 292 293 293 293 294 295 295 294 294 295 294 294 295 295 294 291 290 289 287 287 287 286 284 284 284 284 285 286 286 286 287

GFSNGP_850_thetae_042.txt.gz
Theta_e
311 312 312 313 313 313 310 312 311 314 312 309 309 310 314 313 315 314 312 310 308 306 305 304 302 301 301 303 302 302 301 303 303 305 307 307 308 308 308 308 308 309 308 308
309 311 311 311 311 311 312 312 311 311 311 310 311 311 312 313 314 313 311 308 306 305 303 301 300 299 299 298 298 299 301 302 302 304 305 306 307 306 306 307 307 306 307 306
311 311 311 310 310 310 311 310 311 311 310 311 312 312 312 312 313 312 309 307 305 304 304 299 297 298 298 298 300 301 302 302 302 303 303 303 304 304 306 307 305 305 305 304
308 310 310 312 311 311 310 311 310 310 310 311 311 311 311 311 313 311 309 307 305 305 303 301 301 297 299 300 301 301 301 301 301 301 301 300 302 303 303 303 303 302 300 300
312 309 311 311 311 311 312 312 310 309 309 311 311 311 312 312 311 310 308 307 306 305 303 303 300 300 298 299 299 299 300 300 300 300 300 300 301 301 301 300 300 299 299 299
313 311 313 316 311 311 312 318 313 310 309 310 311 312 311 310 309 309 308 307 306 305 305 303 300 299 300 300 299 299 298 298 299 300 299 300 299 299 298 298 298 298 298 298
313 312 310 312 311 313 318 317 313 312 312 313 312 312 313 310 309 308 307 306 306 306 306 303 300 300 302 301 301 300 300 300 299 299 299 298 298 298 297 297 295 292 290 290
312 313 310 314 314 316 314 314 313 313 313 313 312 311 310 309 308 307 307 307 306 306 305 303 301 301 302 301 300 300 300 300 299 298 297 295 294 292 291 290 290 289 289 288
309 310 310 312 313 313 313 313 314 312 311 311 311 310 309 308 308 307 308 307 306 306 306 304 302 302 301 301 300 298 296 294 293 292 292 291 291 290 289 289 288 288 288 288
310 310 309 310 312 312 312 312 312 312 311 311 312 314 311 308 307 307 307 307 306 306 305 304 302 301 300 298 297 295 293 292 292 291 291 290 290 290 289 289 288 288 288 287
309 309 312 311 311 312 311 311 311 311 311 311 310 310 310 310 308 308 308 307 307 306 306 305 303 301 300 298 296 294 293 292 292 291 291 291 290 289 289 288 288 287 287 286
309 310 311 312 311 312 311 311 310 310 309 309 310 310 309 309 309 308 308 307 306 306 306 305 304 302 301 298 296 295 293 292 292 291 291 290 290 289 289 288 287 287 286 285
311 312 312 312 312 311 310 310 309 309 309 309 308 308 309 308 308 308 307 307 307 307 307 306 305 303 302 299 297 295 293 292 292 291 291 290 289 289 289 288 288 286 285 284
311 311 311 310 310 309 308 308 308 306 306 306 306 305 307 307 307 307 307 308 307 307 306 306 306 305 303 300 297 296 294 292 292 291 291 290 289 289 288 288 287 285 285 284
310 309 308 309 307 306 306 305 305 306 306 305 304 304 306 307 306 306 306 306 306 306 306 306 306 305 303 301 298 296 294 292 291 291 291 290 289 288 288 287 286 285 284 283
307 306 306 306 305 304 304 304 304 304 305 304 303 303 304 305 305 304 304 304 305 306 306 306 306 305 304 301 298 297 295 292 291 291 291 290 289 288 288 287 286 284 284 283
306 303 303 303 303 303 304 304 304 304 304 303 303 302 303 303 303 304 303 303 303 303 304 305 306 305 303 300 300 298 295 293 291 291 291 290 289 288 287 287 285 285 284 283
304 304 305 305 304 304 303 304 304 303 302 302 302 303 303 303 304 304 303 302 301 302 303 303 303 302 302 299 301 300 296 293 291 290 290 290 289 288 287 286 285 285 284 284
304 305 305 305 304 303 303 303 303 303 303 303 302 302 302 302 303 302 301 301 301 300 301 301 302 301 299 297 300 300 295 293 291 290 290 289 288 287 287 285 285 285 284 284
302 303 303 303 303 301 301 301 302 302 303 303 303 302 301 302 302 302 301 300 299 299 299 299 300 299 297 299 299 299 297 293 290 290 290 289 288 287 286 285 285 285 284 284
300 300 300 300 299 299 298 298 298 299 300 300 301 302 301 300 299 299 299 298 298 298 298 297 298 297 296 299 298 298 296 292 290 289 289 289 288 287 286 285 285 285 285 285
297 298 297 295 294 294 294 295 295 296 297 298 299 300 300 300 299 298 297 297 297 296 295 296 296 294 294 297 297 297 294 291 290 289 289 289 288 287 285 285 285 285 285 285
293 292 292 292 292 291 291 291 292 294 295 296 297 297 299 299 298 298 299 297 297 297 297 296 296 296 295 295 296 296 293 291 290 289 288 288 288 287 285 285 285 285 285 286
294 295 296 290 289 289 288 289 289 290 291 293 295 295 296 297 298 297 297 297 297 296 297 296 295 294 294 295 295 296 292 291 290 289 288 288 287 286 285 284 285 285 285 286
293 290 289 288 288 288 288 288 289 289 289 290 291 293 294 294 294 296 297 296 296 296 296 294 294 293 294 295 296 296 292 291 290 288 288 288 287 286 284 284 284 285 286 286
289 288 288 287 287 287 287 288 288 289 289 289 289 290 291 293 294 294 295 296 295 295 294 293 293 293 293 294 295 293 291 290 289 288 287 288 287 285 284 284 284 285 285 286
288 287 287 287 287 287 287 287 288 288 288 288 288 289 289 290 292 293 293 294 294 294 293 293 293 293 293 294 294 294 293 291 289 288 288 288 286 284 284 284 284 284 285 286

GFSNGP_850_thetae_045.txt.gz
Theta_e
309 312 311 311 311 312 312 311 313 313 307 307 308 307 309 313 315 314 313 312 310 308 307 306 304 303 301 300 301 302 302 303 304 305 306 307 307 307 307 307 307 307 307 308
303 309 310 310 310 310 311 311 310 310 310 308 308 310 312 314 314 313 312 311 309 307 306 304 303 300 299 299 299 300 302 302 302 304 305 306 306 306 306 306 306 306 307 306
305 310 309 307 308 309 310 310 311 311 311 310 311 309 311 313 314 313 312 310 308 306 305 303 301 301 300 299 299 300 301 301 302 303 304 305 305 305 305 304 303 304 303 303
304 306 307 307 309 308 309 309 309 309 308 308 310 311 311 311 312 313 311 309 307 306 305 303 302 299 299 300 300 300 301 302 302 302 303 303 302 303 301 301 301 301 301 300
306 309 307 310 310 310 309 310 308 309 308 309 310 311 311 311 311 312 311 309 307 305 305 304 303 301 300 299 299 301 302 302 302 302 302 301 301 300 299 299 299 299 299 299
311 309 311 314 310 310 311 314 311 309 308 307 310 309 308 311 311 310 309 308 306 306 304 305 304 303 302 298 298 301 301 302 302 300 300 300 299 299 299 299 299 297 296 294
311 311 308 307 311 312 316 315 312 310 309 309 309 309 313 311 309 309 309 308 306 305 305 305 303 303 302 301 298 299 301 301 300 299 299 299 299 298 295 292 290 290 290 289
309 311 308 311 312 314 313 313 312 312 312 312 312 312 311 310 309 309 309 307 306 306 305 305 304 304 303 301 300 300 300 300 299 298 297 295 293 291 291 290 290 289 288 288
307 307 306 313 312 313 313 313 312 312 313 313 312 311 310 309 308 308 308 308 307 306 306 305 304 303 302 301 301 299 297 295 294 293 292 291 291 291 290 290 289 288 288 287
308 308 308 310 312 313 312 313 313 312 312 312 312 312 314 314 311 308 308 308 307 307 306 306 304 302 300 299 298 296 294 292 292 292 292 291 291 290 289 289 289 288 288 287
307 307 310 311 311 312 312 312 312 311 311 311 310 311 311 312 313 311 308 308 307 307 307 307 305 303 300 299 296 295 293 292 292 292 291 291 290 289 289 288 288 288 288 287
308 308 309 309 311 311 311 311 311 310 310 309 309 310 309 309 309 309 310 308 308 307 307 307 306 304 301 299 297 295 294 292 292 292 291 291 290 289 289 289 288 288 287 286
309 312 311 310 311 311 311 311 310 309 309 309 309 308 307 308 308 308 308 308 307 308 308 307 306 305 303 301 299 296 295 293 292 292 291 291 290 290 289 289 288 288 287 285
310 311 310 310 310 310 310 310 308 308 307 306 306 306 305 305 307 307 307 308 308 307 307 306 306 306 305 303 301 298 296 294 292 292 291 291 290 290 289 289 288 287 286 285
310 311 311 310 309 308 307 307 306 306 306 306 305 305 304 304 305 307 306 306 307 306 306 305 305 305 304 303 302 300 298 295 293 292 291 291 290 289 289 288 288 287 286 285
304 308 307 307 306 305 305 305 305 305 305 305 305 304 303 303 304 305 305 305 305 306 306 305 305 305 304 303 302 300 298 296 293 291 291 291 290 290 289 288 288 286 285 286
303 304 304 304 303 303 304 304 304 304 304 303 303 303 303 303 303 304 304 304 304 304 304 304 305 304 304 304 303 300 298 298 294 292 291 290 290 289 289 288 287 286 286 285
302 303 304 304 303 303 303 303 304 304 304 304 303 302 302 303 303 303 303 302 302 302 302 302 302 302 302 302 301 298 297 299 297 292 291 290 290 289 289 288 287 286 285 285
302 304 304 304 303 303 303 303 303 303 303 302 303 303 302 302 302 302 302 302 301 301 302 301 301 302 302 301 300 297 296 299 296 292 291 290 290 289 288 288 287 286 285 285
300 301 301 302 301 301 300 300 299 300 301 301 302 302 302 301 302 302 302 302 301 299 298 298 299 299 301 300 298 298 297 298 296 292 290 289 289 289 288 287 286 285 285 285
299 299 299 300 298 297 296 295 295 296 296 297 298 300 301 302 301 300 300 300 299 298 298 298 298 298 298 298 297 298 296 297 297 294 290 289 289 289 288 287 286 285 285 285
296 298 296 294 293 293 292 292 292 293 294 295 295 297 298 299 300 300 299 298 297 297 298 299 298 297 295 296 297 296 295 295 296 292 290 289 289 288 288 287 285 285 285 285
293 293 292 290 290 289 289 288 289 290 291 292 294 295 295 296 297 299 299 298 297 297 297 296 296 296 296 295 295 294 294 294 295 293 290 289 288 288 287 286 285 284 284 285
296 294 293 294 291 288 289 288 289 289 289 289 290 291 293 294 295 296 297 297 297 297 297 296 295 293 293 293 293 293 293 294 295 292 290 288 288 288 287 286 285 284 284 285
297 293 291 288 288 288 288 288 288 289 289 289 289 289 290 291 293 294 294 296 296 296 296 295 294 292 291 292 293 293 293 294 294 290 288 288 287 288 287 286 284 284 285 285
291 288 288 287 287 287 287 287 288 288 289 289 289 289 289 289 291 293 293 294 295 295 295 294 293 293 292 292 292 292 292 293 293 290 289 288 287 289 292 288 285 284 284 285
292 289 288 287 287 287 287 287 287 288 288 288 288 288 289 289 289 290 292 292 293 294 294 293 293 293 293 292 292 292 293 293 294 293 291 287 288 291 288 285 284 284 284 284

GFSNGP_850_thetae_048.txt.gz
Theta_e
307 310 309 309 311 314 314 314 314 314 310 308 307 308 309 312 312 314 313 313 312 311 310 308 307 305 304 303 302 302 303 303 303 304 305 306 307 307 307 307 307 307 307 308
302 307 310 310 309 311 314 314 312 310 309 307 308 308 308 310 313 314 314 312 311 310 308 307 305 304 302 301 300 299 299 300 301 301 304 305 306 306 306 306 306 307 307 306
302 308 308 307 308 308 310 311 312 311 311 309 307 307 309 310 314 314 314 312 311 310 308 306 304 303 301 300 300 300 299 300 300 302 304 304 305 305 305 305 305 305 304 303
302 305 306 307 308 307 308 309 309 309 308 309 309 309 311 312 314 314 313 312 311 310 307 306 305 303 300 300 299 299 299 300 301 302 302 303 304 304 304 303 302 302 301 301
304 304 307 309 309 308 307 308 307 308 308 308 309 309 310 311 312 312 312 312 310 308 306 305 305 304 301 300 300 300 301 301 301 301 302 302 303 302 301 300 300 300 300 299
309 309 310 309 311 309 308 312 311 307 307 306 309 310 307 311 311 311 311 310 310 307 306 305 305 303 301 300 300 302 301 300 301 301 301 301 300 299 299 299 297 294 292 290
308 309 307 305 306 311 313 311 311 309 307 307 308 308 310 311 311 311 310 310 308 306 306 305 304 303 302 302 301 303 302 301 301 300 299 299 299 299 294 291 291 290 290 289
308 309 307 308 311 312 311 312 312 309 308 308 309 311 312 312 311 309 310 309 307 306 306 305 304 303 303 303 303 303 302 301 299 299 299 298 294 292 291 290 289 289 289 289
306 307 305 308 311 312 313 313 312 312 311 310 311 312 311 310 310 309 309 308 307 306 306 305 304 303 303 303 302 301 300 299 297 295 293 292 292 291 290 289 289 289 288 288
306 306 305 309 311 312 313 313 312 312 312 312 312 312 312 314 313 311 308 308 307 306 306 306 305 303 301 301 299 298 296 294 293 292 292 292 291 290 290 289 289 288 288 288
305 305 308 310 310 310 312 312 313 312 312 311 311 311 311 311 311 313 313 310 307 306 306 306 305 303 301 299 298 296 295 293 293 292 292 291 291 290 290 289 288 288 288 287
308 307 308 309 310 310 311 311 311 311 311 310 310 310 310 310 310 310 311 311 309 307 307 306 306 305 302 300 298 296 295 293 293 292 292 291 290 290 290 289 288 289 288 287
305 305 309 308 310 310 310 311 310 310 309 309 309 309 308 309 309 309 308 308 308 309 309 307 306 306 304 302 299 297 295 294 292 292 292 291 291 290 290 289 289 288 288 286
301 304 308 309 310 310 310 310 310 309 308 307 307 306 306 306 306 306 307 308 308 308 307 307 307 306 306 304 302 300 297 295 293 292 292 291 291 290 290 289 289 288 287 286
298 301 304 310 309 309 309 309 308 307 306 306 306 306 305 305 305 305 305 307 307 307 307 306 306 306 305 305 304 302 300 297 295 292 291 291 291 290 290 289 288 288 287 286
299 300 303 310 307 306 306 306 306 305 305 305 305 305 305 305 304 303 304 305 306 307 307 306 306 306 305 305 304 302 301 298 295 293 292 291 291 290 290 289 288 288 287 286
298 299 302 303 304 305 304 304 304 304 304 304 304 303 303 303 304 303 303 304 304 305 305 305 305 304 304 303 303 303 302 299 299 295 294 291 290 290 290 289 288 288 287 286
300 299 301 302 303 303 303 303 303 304 304 304 304 303 302 302 303 303 303 303 303 303 303 303 303 302 302 302 301 301 301 300 296 296 296 293 290 290 289 289 288 287 287 286
300 301 302 303 303 303 303 303 303 303 303 303 303 302 302 301 301 301 302 302 302 303 302 301 302 302 301 301 301 300 299 299 296 294 296 293 289 289 289 289 288 287 286 285
300 300 299 300 300 300 300 300 300 299 299 300 300 301 301 301 301 300 301 302 302 301 300 300 300 301 302 300 300 300 299 297 294 295 295 294 291 289 289 288 288 287 286 285
297 298 298 296 296 295 294 294 294 294 295 295 296 297 298 300 301 301 300 299 298 299 299 299 298 299 298 297 297 299 298 297 296 295 295 295 294 289 289 289 288 287 286 285
295 295 296 293 292 292 291 290 291 292 292 293 293 294 295 296 297 299 300 300 299 299 297 298 298 298 298 297 296 297 297 295 294 294 294 294 293 290 288 288 288 287 285 285
292 294 292 290 289 288 288 289 289 289 289 290 290 291 292 294 295 296 298 298 298 298 298 298 298 297 296 294 295 294 294 293 293 293 293 294 293 288 288 288 287 286 285 285
294 294 294 295 294 289 287 288 288 288 288 288 289 289 289 290 292 293 294 295 297 298 298 297 296 296 295 293 293 293 293 292 293 293 293 293 289 287 287 287 287 286 285 285
295 294 292 291 289 287 287 287 288 288 288 288 288 288 289 289 289 290 292 294 295 296 296 296 296 295 293 293 292 292 292 292 292 292 292 293 291 288 288 287 286 287 289 288
296 293 288 287 287 287 287 287 287 288 288 288 288 288 288 289 289 289 290 292 293 295 295 295 294 293 293 292 292 291 291 292 292 292 292 294 290 288 287 287 291 291 286 284
296 296 294 290 287 287 287 287 287 287 288 288 288 288 288 288 288 289 289 290 292 293 294 294 293 293 292 292 292 291 292 292 292 292 293 293 291 288 287 288 290 286 284 285

GFSNGP_850_thetae_051.txt.gz
Theta_e
306 308 308 308 311 313 315 315 315 315 311 310 307 306 306 309 311 312 313 313 313 313 313 311 310 308 307 305 304 301 302 302 303 303 304 305 306 307 307 307 306 306 306 307
303 307 309 309 308 310 312 313 314 313 312 309 310 308 307 308 310 312 313 313 313 313 312 310 309 307 305 303 301 301 300 299 300 300 301 304 305 306 306 305 306 306 306 305
301 305 307 307 307 307 309 311 312 314 313 308 308 306 308 308 311 312 313 313 314 313 311 310 308 306 304 302 300 299 299 299 299 299 300 303 304 304 304 304 305 304 304 304
299 304 304 305 305 306 307 308 309 310 309 308 308 310 309 309 310 311 312 314 313 312 311 309 307 305 303 302 300 300 299 299 299 299 299 300 302 302 304 304 303 302 302 301
302 301 304 307 308 307 307 308 305 307 308 308 309 309 309 310 309 310 312 314 313 311 310 308 306 305 304 302 301 300 300 299 300 298 299 299 300 303 302 301 301 301 299 295
306 307 308 306 311 308 307 310 309 307 305 305 307 308 307 310 311 312 313 312 311 310 309 307 306 305 304 303 302 302 301 302 300 299 299 300 301 300 300 300 297 293 291 290
310 310 307 304 305 309 312 309 310 310 308 306 306 308 310 310 311 311 311 311 311 310 308 306 305 305 305 303 303 302 302 302 301 301 301 300 299 299 296 292 291 290 290 290
309 311 308 306 310 310 308 312 312 311 308 306 308 309 310 310 311 311 311 310 309 308 307 306 305 304 304 304 303 302 302 301 301 301 300 299 298 292 291 290 290 290 289 290
306 307 306 306 310 311 312 312 312 312 310 307 309 310 310 311 311 311 310 309 308 307 306 305 305 304 304 303 302 301 301 301 300 300 298 295 292 291 290 290 290 290 289 289
305 306 304 308 308 309 311 312 313 311 312 309 309 311 310 310 310 310 309 309 308 306 306 305 305 304 303 302 301 301 300 299 297 295 293 292 292 291 290 290 290 290 289 289
303 304 306 308 310 310 310 312 312 312 311 311 311 313 314 314 314 313 312 312 310 308 307 306 305 304 302 301 300 299 297 295 294 293 292 292 291 291 290 290 290 289 289 288
306 304 303 305 307 309 308 310 311 312 311 311 311 311 311 311 311 311 311 312 312 311 311 309 307 305 303 300 299 298 296 294 293 293 292 291 291 291 290 290 290 289 289 288
300 297 298 299 305 309 310 309 311 310 310 310 310 309 309 309 309 309 308 308 309 309 311 310 308 306 306 303 300 298 297 295 293 292 292 292 291 291 291 290 290 289 289 289
295 296 296 298 304 307 308 309 310 310 309 308 308 308 307 306 306 306 306 306 307 307 307 307 308 308 307 305 303 301 299 296 294 293 292 292 291 291 291 290 290 289 289 288
298 297 297 298 300 306 308 307 308 308 308 307 306 306 306 306 306 305 305 305 305 306 307 306 306 306 306 306 306 305 302 300 297 295 293 292 291 291 291 290 290 289 288 288
298 299 298 301 302 304 305 306 306 306 306 305 305 305 305 305 305 305 304 303 304 305 306 306 306 306 306 305 305 304 304 302 300 297 294 293 291 291 290 290 290 289 288 288
298 299 300 300 300 302 302 304 304 304 304 304 304 304 304 304 304 303 303 303 303 304 304 305 306 305 305 305 304 304 304 304 301 300 295 294 292 291 290 290 290 289 288 287
299 298 298 298 300 301 303 302 303 303 303 303 304 303 303 303 303 302 303 302 302 303 303 303 304 304 304 304 303 303 303 302 301 301 300 299 297 292 291 289 289 289 288 287
298 298 298 299 299 300 301 301 301 302 302 303 303 302 302 302 301 301 301 301 301 302 301 302 302 302 302 302 301 301 301 300 300 300 299 298 296 296 292 289 289 289 288 287
296 298 298 298 298 298 299 299 298 299 299 298 298 299 300 300 301 301 301 300 301 301 301 301 301 301 300 301 301 300 299 299 299 298 298 297 297 295 295 292 290 288 288 287
295 295 296 297 296 294 294 293 293 293 293 294 294 294 295 296 298 299 300 300 299 299 299 299 300 299 299 298 298 299 298 298 298 297 297 296 295 294 295 294 290 288 289 287
294 294 294 295 294 291 290 289 289 291 291 291 291 292 292 293 295 296 298 298 299 299 299 299 299 298 299 298 298 297 295 296 296 296 295 294 294 294 294 294 292 291 287 287
292 293 293 293 292 288 287 288 288 288 289 289 289 289 290 290 291 292 294 294 297 298 299 299 299 298 297 297 296 296 295 294 294 294 293 293 293 293 293 293 290 287 287 287
291 293 293 292 293 294 291 287 287 288 288 288 289 289 289 289 289 290 291 292 294 296 297 298 297 296 296 295 294 293 293 293 292 292 292 292 293 293 292 291 287 287 287 287
295 293 292 290 291 289 288 287 287 287 288 288 288 288 289 289 289 289 289 290 292 294 295 295 295 295 295 294 293 292 292 291 291 291 292 292 292 292 292 289 288 287 286 286
295 294 294 291 287 287 286 286 286 287 287 288 288 288 288 288 288 288 288 289 290 292 294 294 294 294 294 294 293 292 291 291 291 291 292 292 292 292 292 290 288 288 287 291
295 295 294 294 292 288 286 287 287 287 287 287 287 287 287 287 287 288 288 288 288 289 291 293 294 293 293 293 293 292 292 291 292 292 292 292 291 291 292 290 286 286 287 288

GFSNGP_850_thetae_054.txt.gz
Theta_e
306 306 308 310 311 313 314 313 314 313 313 311 310 309 307 308 309 311 312 313 313 314 313 313 312 311 309 308 307 305 303 302 302 303 303 304 304 305 306 306 306 306 306 306
305 306 307 308 307 309 312 313 314 314 314 312 309 308 307 308 309 311 312 312 313 313 313 312 312 310 308 307 304 303 302 301 300 300 300 301 302 304 305 305 305 305 305 305
301 304 306 306 306 307 308 310 311 312 312 310 310 309 309 309 308 310 311 312 313 313 313 313 311 309 308 305 304 302 300 300 300 299 299 300 300 301 302 303 303 304 303 303
299 302 302 304 304 305 306 306 307 309 309 309 309 311 312 311 308 308 310 311 312 312 313 312 311 309 307 304 303 301 300 299 299 299 299 299 299 299 300 302 302 302 301 300
302 301 303 305 307 306 307 307 305 305 306 308 308 309 308 310 310 309 309 311 312 312 313 311 310 308 305 304 302 300 299 299 299 299 299 299 299 300 301 302 301 300 299 294
305 304 306 304 309 307 306 308 308 308 306 305 305 306 308 310 311 310 309 310 311 313 312 310 310 306 305 304 303 301 300 299 298 299 299 300 301 302 301 300 300 295 291 290
307 310 307 304 305 307 311 307 310 310 310 307 303 306 308 309 310 310 311 312 313 312 311 310 307 306 305 304 304 302 301 301 300 299 299 301 301 300 300 296 291 291 290 290
307 310 307 305 308 310 307 310 311 312 311 309 306 307 308 309 309 310 311 311 310 310 310 308 306 305 304 304 303 302 302 302 301 301 301 300 299 300 293 291 291 290 290 290
304 305 305 305 308 309 309 309 311 312 311 309 307 308 308 309 309 310 310 310 310 309 308 306 306 305 304 303 303 302 302 302 301 301 300 300 297 293 291 291 290 290 290 289
304 305 304 306 306 306 306 306 309 312 312 310 308 309 309 310 311 310 310 310 309 309 307 306 305 304 303 302 302 301 301 301 300 299 299 296 292 291 291 290 290 290 290 289
303 303 305 306 305 303 303 306 308 310 311 312 311 311 313 314 313 312 311 312 312 311 308 307 306 305 303 302 301 300 300 299 299 297 295 292 291 291 291 290 290 289 289 289
302 301 298 298 298 298 300 304 308 308 310 311 311 311 311 313 313 312 312 312 312 311 311 311 310 308 306 304 301 300 299 297 296 295 293 292 291 291 291 290 290 290 289 289
295 296 297 297 298 299 300 301 305 307 309 310 310 310 310 310 309 309 308 308 309 309 310 310 310 308 309 306 304 300 299 297 295 294 293 292 292 292 291 290 290 290 290 289
299 297 296 298 297 298 296 297 303 307 308 308 309 309 308 308 307 307 306 306 306 306 307 307 307 308 308 307 306 304 302 299 296 294 293 292 291 291 291 291 290 290 289 289
297 298 298 299 298 297 300 300 305 307 306 306 306 306 306 306 306 306 305 305 305 305 305 306 307 307 306 306 306 306 304 303 301 298 295 293 292 291 291 291 291 290 289 289
296 299 299 299 299 299 299 302 304 304 305 305 305 305 305 305 305 305 305 305 305 304 304 304 305 306 306 305 305 305 305 305 304 302 298 296 294 292 291 291 290 290 290 289
296 297 298 297 297 297 299 301 301 300 302 303 304 304 304 304 304 303 303 303 303 303 302 303 304 305 305 305 305 305 304 304 304 303 302 301 296 294 292 291 290 290 290 289
296 296 297 296 296 297 299 299 300 300 301 302 303 303 303 303 302 303 302 302 302 302 302 302 303 303 304 305 305 304 304 303 303 303 302 301 300 299 296 297 290 290 290 289
296 295 296 297 296 297 298 298 298 298 299 300 301 301 302 302 302 301 301 301 301 301 301 301 301 302 302 302 303 303 303 302 302 302 301 300 299 299 298 297 297 294 289 289
295 295 295 295 296 297 296 294 294 295 295 296 296 297 297 299 299 299 300 300 300 300 300 301 300 300 300 300 300 300 300 300 300 300 300 299 298 298 297 297 296 295 292 291
293 294 294 294 294 294 292 290 290 292 292 292 293 293 293 294 295 296 297 298 299 299 299 299 299 299 299 299 299 299 298 299 299 298 298 297 297 296 296 295 295 294 293 290
294 292 293 293 293 292 290 291 292 289 289 290 290 290 290 291 292 293 294 296 297 296 297 298 299 299 300 299 299 299 298 297 297 296 295 295 295 294 294 294 294 293 292 293
296 292 292 293 293 293 288 287 287 288 288 288 288 289 289 289 289 290 291 291 292 294 296 297 297 298 298 298 297 297 297 296 294 293 293 293 292 292 293 293 293 292 292 290
296 295 293 292 292 292 293 291 290 287 287 288 288 288 289 288 289 289 289 289 290 292 294 296 296 297 297 296 296 295 295 294 293 292 292 291 291 291 292 292 292 291 291 288
295 295 293 292 292 290 291 289 287 290 287 287 288 288 288 288 288 288 289 289 289 290 292 294 295 295 295 295 295 294 293 292 291 291 291 291 291 291 291 292 291 291 288 288
292 294 294 293 292 291 288 289 290 286 286 287 287 287 287 287 288 288 288 288 288 289 290 292 293 294 294 294 294 293 292 292 291 291 291 291 291 291 291 291 291 291 289 287
290 291 292 293 293 293 291 287 286 286 286 286 287 287 287 287 287 287 287 288 288 288 288 289 290 291 292 292 293 292 292 291 291 291 291 291 291 291 291 290 290 290 290 287

GFSNGP_850_thetae_057.txt.gz
Theta_e
307 307 309 310 311 313 313 313 314 313 312 312 311 309 309 308 308 310 311 311 312 313 313 313 313 312 312 311 310 308 307 305 304 303 303 304 304 305 305 306 306 306 306 306
304 306 307 308 307 309 311 312 313 312 312 311 312 312 310 311 308 308 310 311 311 312 313 313 313 312 311 310 309 307 305 304 302 301 301 301 302 303 303 305 305 305 305 305
304 304 305 306 307 307 308 309 311 313 312 310 309 309 310 311 312 309 309 310 312 312 313 313 312 312 311 309 308 305 303 302 301 300 300 300 300 300 301 302 302 303 304 303
300 302 304 304 303 305 306 306 307 308 309 309 308 309 309 310 310 311 311 310 311 312 312 312 311 311 310 309 307 304 303 301 300 299 299 299 300 300 300 300 300 302 302 301
303 302 303 305 307 305 306 308 304 305 306 306 307 305 307 309 309 310 310 309 309 311 312 312 312 311 309 308 305 303 303 300 300 299 299 299 299 299 299 299 299 300 300 297
304 304 306 303 307 307 305 308 307 306 306 307 306 307 308 308 309 310 310 309 308 309 311 312 312 310 309 306 305 303 302 300 299 299 299 299 299 299 298 299 300 298 293 290
306 306 306 303 304 305 309 307 308 309 310 308 304 306 307 307 307 309 310 310 309 310 311 312 310 309 308 305 304 303 301 300 299 298 299 299 298 298 299 299 296 291 290 290
306 307 307 304 307 309 305 306 306 307 309 309 309 307 307 307 308 308 310 310 310 311 311 310 309 308 306 305 303 302 301 300 299 298 298 298 298 299 298 294 290 290 290 289
304 305 303 304 305 304 302 299 301 305 307 309 309 308 308 308 309 309 309 309 309 309 309 309 307 306 305 303 303 302 301 300 299 298 299 299 299 298 292 291 290 290 290 289
304 304 302 303 303 301 299 299 300 302 306 308 309 308 309 310 310 310 310 310 309 309 309 308 306 305 304 304 302 302 301 301 300 300 300 299 299 294 290 290 290 290 290 290
301 301 299 303 300 299 298 297 298 300 301 306 308 310 309 313 313 312 311 312 312 311 310 308 306 304 303 303 302 302 301 300 300 300 300 299 295 292 291 290 290 290 290 289
299 297 298 297 297 299 298 298 298 298 299 303 307 309 310 311 312 312 312 311 312 312 311 311 310 308 307 306 305 302 301 300 299 299 298 296 293 292 291 291 291 290 290 289
296 296 296 297 297 297 297 298 298 298 297 301 307 308 309 310 310 310 309 309 309 309 309 310 310 310 309 308 307 306 303 300 298 297 296 294 293 292 292 291 291 290 290 289
297 297 296 297 298 298 298 298 299 299 298 303 307 307 307 308 308 307 307 307 306 306 306 307 307 308 309 308 307 307 307 302 299 298 296 294 293 292 292 291 291 290 290 289
296 295 296 297 297 297 298 298 298 299 302 303 305 306 305 305 305 305 305 305 305 305 305 305 305 306 306 306 307 307 307 305 303 300 298 295 294 292 291 291 291 290 290 290
295 295 296 297 297 295 295 297 298 299 301 302 304 303 303 304 304 305 305 304 304 304 304 304 304 304 305 305 305 305 305 305 305 303 301 299 296 294 292 291 291 290 290 290
294 294 295 295 295 296 297 297 298 298 301 300 302 301 302 303 303 303 303 303 303 303 303 302 302 303 304 305 305 305 305 304 304 304 303 302 301 300 299 295 293 291 290 290
295 294 294 294 294 294 296 296 297 297 297 298 299 300 299 301 302 302 301 301 301 301 301 301 301 302 303 304 304 304 304 304 303 303 303 302 302 301 300 300 299 298 296 294
294 295 295 294 293 294 294 294 295 295 295 296 297 298 297 299 301 300 300 300 301 300 300 300 300 300 301 301 302 303 303 303 303 302 302 301 301 300 300 299 299 298 297 295
291 295 294 294 293 293 294 292 290 292 293 293 293 294 294 295 297 298 298 299 299 299 299 300 300 300 300 300 300 301 301 301 301 301 300 300 299 299 298 298 297 297 296 294
290 293 295 294 293 293 293 293 290 289 290 290 290 291 291 291 292 293 295 296 296 297 298 299 298 299 299 299 299 299 299 299 298 298 299 297 297 296 296 295 295 295 294 294
291 292 295 294 293 293 292 291 290 288 288 288 288 289 289 289 289 290 291 292 293 295 295 296 296 297 297 298 298 298 298 298 297 297 296 295 294 294 293 294 293 293 293 293
290 293 294 294 293 293 293 292 289 288 287 288 288 290 289 288 289 289 289 289 290 291 292 294 296 296 296 297 297 297 297 296 295 295 294 293 292 292 292 292 292 292 292 292
289 292 292 293 292 292 292 292 291 291 291 288 287 287 288 288 288 288 288 289 289 289 291 292 294 295 296 296 296 296 295 294 294 293 292 292 292 291 291 291 291 291 292 291
290 289 291 292 293 292 292 292 290 290 289 292 290 287 287 287 288 288 288 288 288 288 289 291 293 294 294 294 295 295 294 293 292 292 291 291 290 291 291 291 291 291 291 290
291 290 290 290 292 293 292 291 291 290 289 286 286 287 287 287 287 287 287 287 287 288 288 288 289 290 292 292 293 294 293 293 292 291 291 291 290 291 291 291 291 291 290 291
288 289 291 291 291 291 292 292 291 290 287 288 289 286 286 286 286 286 286 286 287 287 287 287 288 288 289 290 292 292 292 292 292 291 291 291 291 291 291 291 291 291 291 291

GFSNGP_850_thetae_060.txt.gz
Theta_e
309 311 313 313 314 314 316 315 316 315 315 314 314 314 313 312 311 310 310 312 313 314 313 314 314 313 313 313 312 312 311 310 308 306 305 304 304 304 305 305 306 306 307 307
309 308 309 311 312 313 314 314 314 314 314 313 312 312 312 312 311 311 311 310 311 312 313 313 313 313 313 313 312 311 310 309 306 304 303 302 302 303 302 302 304 305 305 305
313 307 308 310 309 310 311 312 313 314 313 312 312 311 311 311 311 310 311 311 311 310 311 312 313 313 313 312 311 310 309 306 304 303 301 301 301 301 300 301 302 303 304 304
312 308 312 307 305 307 309 309 309 311 311 310 311 311 310 310 310 310 310 310 310 311 310 311 312 313 312 311 310 309 307 304 303 302 301 300 300 300 300 301 301 301 302 302
312 311 309 310 309 309 310 312 309 311 312 312 311 310 311 309 308 307 309 310 309 309 310 310 312 312 311 311 310 308 305 303 302 300 300 300 300 300 300 300 300 299 301 300
309 311 310 309 309 307 308 313 309 309 309 311 310 313 313 308 307 307 307 309 310 309 307 309 311 311 311 311 309 307 304 303 302 300 300 300 299 299 299 299 298 299 298 294
311 310 309 307 306 306 312 311 306 306 307 308 310 311 310 307 307 308 308 309 309 308 308 310 311 311 311 310 308 304 303 302 301 300 300 299 299 299 298 298 297 297 294 290
310 311 310 305 308 310 305 302 301 301 303 304 306 308 308 307 308 308 308 309 309 308 309 310 310 310 310 309 305 303 303 302 301 300 299 299 299 299 298 297 297 293 289 289
309 309 304 303 305 302 298 298 299 298 299 302 302 306 308 308 308 308 309 309 310 309 309 310 309 309 308 306 304 303 303 303 301 300 299 299 299 298 298 298 294 290 289 289
308 305 301 301 302 299 299 299 298 297 299 300 299 301 306 309 309 309 310 309 309 309 309 309 308 307 305 304 303 303 302 302 301 300 299 299 298 299 299 294 291 290 290 289
303 303 301 302 301 299 298 298 297 297 299 299 299 299 302 308 309 310 311 310 311 311 310 309 308 306 304 304 303 302 302 301 301 300 299 300 299 299 296 291 290 290 290 289
302 300 298 299 298 298 298 298 298 298 298 298 298 297 301 308 309 310 310 311 311 311 311 311 311 309 307 305 304 304 302 301 300 300 300 299 299 298 293 291 290 290 290 290
298 298 297 297 297 297 297 298 298 298 298 298 300 298 301 307 308 308 309 310 310 310 310 310 310 310 309 307 306 305 303 301 300 299 299 298 298 295 292 291 291 290 290 290
297 297 296 296 296 297 297 297 297 296 297 297 299 301 303 305 307 308 308 308 307 307 307 307 307 307 308 308 307 306 305 304 301 299 298 297 296 295 293 292 291 291 291 290
297 296 295 295 296 296 296 295 297 298 298 299 299 302 302 303 304 305 305 305 304 304 305 304 304 305 305 306 306 306 306 305 305 303 300 298 296 295 294 293 292 291 291 290
296 295 295 295 295 295 296 295 296 297 297 299 299 300 301 302 301 303 304 304 304 304 304 304 304 303 303 304 304 305 305 305 304 304 302 300 299 297 295 293 292 291 291 292
294 294 295 295 294 294 295 294 294 295 295 296 297 298 300 300 300 301 303 303 302 303 302 302 303 302 302 302 303 304 304 304 304 304 303 303 301 300 299 299 300 298 296 294
292 292 294 294 293 294 294 294 293 294 295 295 295 296 296 298 298 298 300 301 300 301 300 301 301 301 301 302 303 303 303 303 303 303 303 303 302 302 302 301 300 299 299 297
292 291 290 293 293 293 292 293 293 292 294 294 295 295 295 295 295 296 297 299 299 299 299 299 299 299 300 300 301 302 303 303 303 302 303 302 301 301 301 300 300 299 298 298
292 291 290 292 294 293 293 292 292 288 290 291 291 292 293 293 293 293 294 296 297 297 297 298 298 298 299 299 299 300 301 301 301 301 301 300 300 300 299 298 298 297 297 297
292 291 291 292 293 293 293 292 292 292 289 289 289 289 289 289 290 290 292 293 294 294 295 296 297 298 297 298 299 298 298 298 299 299 298 298 298 297 297 296 296 295 295 295
292 291 290 292 292 293 293 292 291 290 289 288 288 288 288 288 288 289 289 291 290 291 293 294 295 295 296 297 297 298 298 298 298 297 297 297 296 296 295 294 294 294 294 293
291 290 289 290 291 292 293 292 291 290 288 287 288 289 292 292 289 288 288 288 288 289 290 292 293 295 296 295 296 297 297 297 297 296 296 295 295 294 293 293 292 292 292 292
290 290 290 290 290 291 292 292 291 291 290 291 290 287 290 289 289 288 288 288 288 288 289 290 292 294 294 294 294 294 294 295 295 294 294 293 293 292 292 292 291 291 291 291
288 288 289 290 290 290 291 292 290 290 290 290 290 290 288 288 289 289 288 287 287 287 288 288 290 292 292 293 293 292 292 293 293 293 293 292 291 291 291 291 291 291 291 291
288 288 287 287 289 291 291 291 290 290 290 288 286 287 288 286 286 286 286 286 286 287 287 287 288 288 289 290 291 292 292 293 293 292 292 291 291 291 291 291 291 291 291 291
288 288 288 288 287 288 290 292 291 290 289 290 289 288 286 286 286 286 285 285 286 286 286 286 286 287 287 288 288 289 291 292 292 292 291 291 291 292 291 291 291 291 291 290

GFSNGP_850_thetae_063.txt.gz
Theta_e
312 313 315 315 315 316 317 316 317 315 315 315 315 315 314 313 312 312 312 312 312 315 315 314 313 312 313 313 313 313 312 312 311 310 310 308 306 305 305 305 305 306 306 307
313 311 311 313 313 314 315 315 316 315 315 314 314 312 312 312 312 312 312 311 312 312 314 314 313 313 313 313 312 312 312 311 311 310 308 306 305 304 304 303 304 304 305 306
316 310 310 311 311 312 312 313 313 314 314 312 312 312 313 313 313 312 312 312 311 313 313 314 314 312 312 313 313 312 311 311 310 308 305 304 303 302 302 301 301 302 303 304
314 310 313 308 307 308 309 310 310 310 311 312 313 313 313 313 310 309 309 310 312 311 312 312 313 312 312 312 312 312 311 310 308 306 304 303 302 301 301 301 301 302 302 301
314 313 311 311 310 310 311 312 311 311 310 310 311 312 312 312 311 309 308 308 309 311 310 312 312 311 311 312 312 312 311 310 308 305 304 302 300 300 300 300 300 300 300 300
311 312 311 312 309 309 309 313 308 308 308 309 309 312 312 311 310 308 308 307 308 308 309 310 311 310 310 311 312 311 311 309 307 304 303 301 300 300 300 300 299 299 299 299
312 311 311 308 308 308 311 311 305 305 304 304 307 307 306 309 310 308 308 308 308 308 308 308 309 308 310 311 311 310 309 307 305 304 303 300 300 300 300 300 299 299 299 297
310 311 311 306 309 310 306 304 302 302 301 301 302 303 304 304 309 309 308 308 309 308 308 307 308 308 308 309 310 309 307 305 304 303 302 300 300 300 299 299 298 297 298 295
310 311 307 304 306 304 302 302 302 301 300 299 300 302 301 302 305 309 309 309 308 309 308 308 308 308 308 309 309 307 305 304 303 302 301 300 300 300 299 298 297 298 296 291
309 307 307 303 304 302 301 300 300 300 299 299 300 300 300 301 301 308 308 310 309 308 308 308 308 308 307 307 307 305 304 303 302 302 301 300 300 299 299 298 298 298 293 290
304 304 303 304 304 302 300 300 300 300 300 300 300 300 300 300 300 304 308 310 311 310 309 309 309 309 308 307 305 304 303 303 303 301 300 300 299 299 299 299 299 295 291 290
303 302 301 301 300 299 299 299 299 298 298 298 298 299 300 300 300 303 307 308 311 312 310 310 310 310 309 308 307 305 304 302 302 302 301 300 298 299 299 298 296 291 290 290
300 299 299 299 298 298 298 297 297 297 297 297 297 297 298 299 300 302 306 307 308 310 311 309 310 310 310 310 308 306 305 302 301 301 300 299 298 299 299 298 294 290 290 290
299 298 298 298 297 296 296 297 296 296 296 297 298 298 299 301 301 302 304 305 307 308 308 308 308 308 307 308 308 307 305 303 302 300 300 299 299 298 298 297 293 292 291 291
298 298 297 296 296 296 295 295 295 294 295 297 297 298 299 299 300 301 302 302 303 304 305 305 305 305 304 305 305 306 306 304 303 302 300 299 298 297 297 296 294 292 291 291
295 294 294 294 294 294 294 294 293 293 293 294 295 295 297 298 298 300 302 303 301 301 302 304 304 303 303 302 303 304 304 305 303 302 301 300 300 300 298 296 295 298 298 298
294 294 294 293 292 292 293 293 293 292 292 292 293 295 295 297 298 299 300 300 301 300 300 302 302 302 302 302 301 302 302 302 303 303 302 301 301 300 300 299 297 296 294 293
294 294 294 293 292 291 292 292 292 293 293 292 291 293 294 294 295 295 296 297 299 299 298 299 301 301 301 301 300 301 300 301 302 302 302 302 302 301 300 300 300 299 299 299
293 292 292 292 292 291 291 292 293 293 293 292 289 291 292 293 293 294 295 294 298 295 295 297 299 299 299 299 299 300 301 301 301 301 301 301 300 300 300 300 300 299 299 299
291 292 292 291 291 290 292 292 292 292 292 292 290 289 289 290 292 292 292 292 295 295 295 296 297 297 298 298 298 299 300 300 300 300 300 300 300 300 299 299 299 299 298 298
291 291 291 291 290 291 291 292 292 292 292 291 290 288 288 288 288 288 290 290 291 293 293 294 295 296 297 297 297 297 298 298 299 299 299 299 299 299 299 298 298 297 297 296
290 290 291 290 290 290 290 291 292 292 291 291 290 289 288 289 289 288 289 289 289 289 290 292 294 294 295 296 296 297 297 297 297 297 297 297 297 297 297 297 296 295 295 294
290 289 288 288 288 290 290 290 290 291 291 291 290 289 288 289 290 289 288 288 288 288 289 290 291 293 294 295 294 294 296 296 296 296 296 296 296 296 295 295 294 293 293 292
289 288 288 287 287 288 290 291 290 291 290 290 290 289 289 288 289 289 288 287 287 288 288 288 290 292 293 292 291 291 292 292 294 294 294 294 294 294 293 293 293 292 292 291
288 288 288 288 287 287 287 288 290 290 290 289 289 289 288 288 288 288 289 288 286 287 287 287 288 289 291 291 291 290 290 290 290 291 291 292 292 292 292 291 291 291 291 291
288 288 289 289 289 287 287 286 287 290 290 289 289 288 288 288 287 286 286 286 286 286 286 286 286 287 288 289 289 290 289 289 290 291 291 291 291 291 291 291 291 291 291 291
288 290 291 291 290 289 288 287 287 288 290 290 289 289 288 287 287 285 285 285 285 285 286 286 286 286 286 286 287 288 289 291 291 291 291 291 291 291 291 291 291 291 291 291

GFSNGP_850_thetae_066.txt.gz
Theta_e
312 313 314 315 315 315 314 315 314 314 313 312 311 312 312 312 312 313 313 313 312 312 313 314 313 312 312 312 312 313 312 312 312 312 312 311 311 310 308 306 306 306 306 306
309 311 311 312 312 313 314 315 315 315 314 311 311 312 312 313 313 313 312 311 312 312 312 314 314 313 312 312 312 312 312 312 312 312 312 311 310 307 306 305 304 304 304 305
313 310 309 309 310 311 313 313 313 314 312 310 311 313 313 313 312 310 309 309 309 311 312 312 314 314 313 312 312 312 312 312 312 312 311 310 308 306 305 304 301 301 301 302
308 309 309 308 307 308 309 310 310 309 310 310 311 311 311 311 311 310 308 308 308 309 311 311 312 314 314 313 312 312 311 311 311 310 309 308 306 305 303 301 301 301 300 301
310 309 309 310 308 309 311 312 308 309 308 309 308 309 311 308 307 310 309 308 308 308 309 310 311 312 313 313 312 311 311 311 310 309 308 307 305 303 301 299 299 300 301 300
309 309 311 310 308 308 309 312 306 306 305 305 305 308 307 307 305 307 310 309 308 308 308 309 309 311 312 312 311 311 311 310 310 309 308 306 304 303 301 300 300 300 300 299
309 308 309 308 308 308 310 307 304 303 303 302 301 303 302 303 303 303 307 309 309 308 308 308 309 310 311 311 310 309 309 309 309 308 307 305 303 301 300 300 300 299 299 298
309 310 306 305 308 309 303 304 303 302 301 301 300 300 300 301 301 301 302 308 309 309 309 308 307 309 310 309 308 308 308 308 308 307 306 304 302 301 300 300 299 299 298 298
309 308 305 304 305 303 302 301 301 301 300 300 299 299 300 301 300 300 301 305 308 308 308 308 307 306 307 307 307 307 307 307 307 306 304 303 301 300 300 300 299 299 298 298
307 306 306 305 304 302 301 300 300 300 300 300 299 299 299 300 300 300 300 301 307 308 308 308 308 307 307 307 307 307 306 306 305 304 303 302 302 300 300 299 299 299 298 298
303 302 303 303 301 300 299 298 298 298 298 298 297 297 298 298 298 299 300 300 305 307 308 308 310 308 307 307 307 306 305 304 304 302 302 301 301 300 299 300 299 298 299 297
301 300 300 300 300 299 298 297 297 297 297 297 297 297 297 297 297 298 299 300 303 306 307 307 308 309 308 308 308 307 307 305 304 303 304 303 300 300 299 299 297 297 298 295
299 299 299 299 298 298 297 297 297 296 296 296 295 296 297 298 298 299 300 301 303 305 306 306 307 310 310 309 309 308 307 307 306 304 302 302 300 300 300 299 298 298 297 292
299 299 299 298 296 295 295 295 295 295 295 294 295 295 295 296 298 298 298 300 301 302 304 305 306 308 308 308 308 307 307 306 305 304 302 302 301 300 300 299 298 298 296 291
297 296 296 294 293 293 293 293 293 293 294 294 294 294 294 294 295 297 297 298 299 301 302 302 303 305 304 305 304 304 305 306 306 304 302 301 300 299 299 298 298 297 295 291
295 294 294 294 294 293 293 292 291 292 293 293 293 294 293 294 295 295 296 297 297 299 300 301 301 300 301 302 303 302 303 303 304 304 302 301 301 300 300 298 298 297 296 294
294 294 294 294 294 293 293 292 292 291 292 293 293 293 292 291 293 294 294 295 296 297 298 299 300 301 300 300 301 300 301 300 301 302 302 301 301 300 301 300 300 299 299 298
293 293 292 292 292 292 292 292 291 290 291 292 293 292 292 290 290 291 293 294 294 295 295 296 298 298 299 300 300 299 299 299 299 300 301 302 301 301 300 300 300 299 299 299
291 291 291 291 291 291 291 291 291 290 292 291 291 291 291 290 289 290 289 292 293 293 293 293 294 295 296 297 297 298 298 299 299 300 300 300 300 300 300 300 300 300 299 299
290 291 291 291 291 290 290 290 290 290 291 291 291 291 291 290 289 289 288 289 291 291 292 293 293 294 294 294 295 296 298 299 298 299 298 299 299 299 299 299 299 299 299 299
290 290 290 290 289 288 288 289 290 290 291 291 291 291 290 290 288 288 288 288 289 291 290 291 292 293 294 293 294 295 296 297 297 298 298 298 298 298 298 298 298 298 298 298
290 290 290 289 287 287 287 287 288 290 290 290 291 290 290 289 288 288 289 289 288 288 288 288 290 292 292 290 292 294 295 296 296 296 296 296 297 297 296 296 296 296 296 296
289 289 289 288 287 287 287 287 287 287 289 290 290 289 289 289 288 288 288 289 288 287 287 287 288 289 289 289 290 291 292 294 294 294 295 295 295 295 295 295 295 295 295 295
289 289 289 287 288 288 288 288 287 287 287 291 290 289 289 288 288 288 288 288 288 288 286 286 287 287 288 288 289 290 291 291 291 292 292 293 294 294 294 293 293 293 293 293
288 289 288 288 289 289 291 291 290 289 287 289 290 289 288 288 287 287 287 287 287 287 286 285 285 286 287 288 288 288 289 289 290 290 290 290 291 292 292 292 292 291 291 291
288 288 288 288 290 290 291 291 291 289 287 288 289 289 288 288 287 286 286 286 286 287 285 285 285 285 286 287 287 287 287 288 289 288 288 290 291 291 291 291 291 291 291 291
288 287 287 288 289 291 291 291 290 288 288 287 287 289 288 287 287 287 286 285 285 286 284 284 285 285 285 285 285 286 286 287 289 289 290 291 291 291 291 291 291 291 291 291

GFSNGP_850_thetae_069.txt.gz
Theta_e
311 311 313 314 314 315 312 313 312 312 313 312 309 308 310 312 313 312 311 311 311 311 311 312 312 312 313 311 312 312 312 312 312 312 311 311 311 311 311 310 309 307 306 306
306 310 310 311 311 312 313 313 314 313 313 310 310 312 312 312 311 310 310 309 308 308 309 310 313 312 314 313 312 311 312 312 311 311 311 311 311 311 310 309 307 305 305 304
307 308 307 307 307 310 312 312 312 313 311 310 309 310 310 310 310 310 310 309 309 308 308 309 310 312 313 314 313 312 311 311 311 311 311 311 311 310 309 307 305 305 303 301
303 306 305 306 306 307 309 309 308 308 308 308 308 307 309 306 306 306 308 309 309 308 309 308 309 310 313 313 314 313 312 311 311 311 311 310 310 309 308 305 304 302 301 301
307 305 308 309 308 308 310 309 306 306 304 304 305 308 307 305 302 303 304 305 309 309 309 308 309 309 311 314 313 313 312 311 311 311 310 310 309 308 306 304 303 300 299 300
306 306 310 308 307 308 307 310 304 304 302 301 302 305 305 304 302 301 301 301 307 308 309 309 308 309 311 313 313 313 312 311 310 309 309 309 308 306 304 303 301 299 300 300
307 304 307 306 307 307 306 304 302 302 301 301 299 300 300 300 299 300 301 300 301 307 308 308 308 308 309 311 312 312 311 310 309 308 307 307 306 305 303 302 299 300 300 299
306 309 307 304 306 308 302 301 301 301 300 300 300 300 300 300 300 300 300 301 300 304 307 308 308 307 308 310 310 310 309 309 308 307 306 306 305 303 302 301 299 300 300 299
305 305 303 304 301 300 301 300 300 299 299 299 299 299 298 298 298 298 299 299 300 300 305 307 307 307 306 307 307 307 307 307 307 306 306 305 303 302 301 299 299 300 300 299
305 304 303 300 300 300 300 299 298 298 298 298 298 298 297 297 297 297 297 298 299 300 304 306 307 306 307 307 306 306 306 306 306 305 305 304 302 301 300 299 299 299 300 299
301 300 299 300 300 300 299 299 298 297 297 297 297 297 297 297 298 298 297 298 300 300 301 306 306 307 306 306 306 306 306 305 304 304 303 302 301 301 300 299 299 299 299 298
301 299 299 299 299 299 297 296 296 296 296 296 295 296 295 296 296 297 298 299 299 300 301 304 306 306 306 306 306 306 307 306 305 306 304 302 301 301 300 298 298 298 297 297
299 299 299 299 298 298 294 294 294 294 294 295 294 294 294 294 295 297 297 298 298 299 300 301 303 305 305 305 306 307 307 307 306 305 304 304 302 302 300 299 298 298 297 298
299 298 298 297 295 293 293 293 293 292 292 292 293 293 293 293 294 295 296 297 297 296 298 300 302 302 304 304 304 305 306 306 306 305 304 303 302 301 300 299 298 299 298 298
296 294 294 293 293 293 293 293 293 292 292 292 291 292 292 292 292 292 293 295 296 296 296 297 300 301 302 303 303 304 304 304 304 304 304 303 302 301 300 299 299 299 298 298
293 293 293 293 292 292 292 292 292 292 292 291 291 291 292 292 292 293 291 292 293 294 296 296 297 297 299 300 301 301 302 302 301 301 303 302 302 301 300 300 299 299 298 297
292 292 292 291 291 291 291 291 291 291 291 291 290 290 291 291 291 291 291 290 291 292 293 294 296 297 298 299 299 299 300 300 300 300 300 302 302 302 301 300 300 300 300 300
291 291 291 291 290 291 291 291 290 290 290 290 290 290 290 290 291 291 290 289 290 289 292 293 294 294 295 297 298 298 298 298 298 299 299 299 301 301 301 300 300 300 300 300
290 290 290 290 290 290 290 288 287 288 289 290 290 291 291 290 291 290 290 288 289 288 290 291 292 292 293 294 295 296 297 297 297 297 298 298 299 300 300 300 300 300 299 299
290 290 290 290 290 289 288 287 287 287 287 289 290 290 290 291 290 290 289 288 288 288 289 290 290 291 292 293 294 294 295 296 296 296 297 297 298 298 299 299 299 299 299 299
290 290 290 289 289 289 287 287 287 287 287 287 289 290 289 289 289 289 289 288 289 289 288 288 289 288 290 291 292 293 295 295 295 295 296 296 297 297 297 297 297 297 297 297
289 289 289 289 289 288 287 288 287 287 287 287 287 290 290 289 289 289 288 288 288 288 288 287 287 288 288 288 290 291 293 294 294 294 295 295 296 296 296 296 296 296 296 296
288 288 288 289 289 288 288 289 290 290 289 288 287 289 290 289 288 288 287 287 287 287 287 287 288 287 286 288 290 290 291 292 292 292 293 294 294 294 295 294 295 295 295 294
288 288 288 288 289 288 289 290 291 291 290 289 288 288 290 289 288 288 287 286 287 287 287 287 287 286 285 288 288 289 290 290 290 290 291 291 292 293 293 294 294 293 293 292
288 288 288 287 287 288 288 290 291 291 290 288 288 288 288 289 287 287 286 286 286 286 286 286 286 285 286 287 287 288 288 289 289 289 289 290 290 290 290 292 292 292 292 292
288 287 287 286 286 286 287 288 290 291 290 288 288 288 287 288 288 287 286 286 286 285 285 284 284 284 284 286 285 285 286 287 288 288 288 288 289 290 290 291 291 291 291 291
287 286 287 287 287 286 286 287 287 288 289 287 288 288 287 286 288 286 286 286 285 285 285 284 284 284 284 284 285 285 285 285 287 288 288 289 289 290 290 290 291 291 291 291

GFSNGP_850_thetae_072.txt.gz
Theta_e
310 310 312 312 314 313 310 310 310 311 310 310 308 307 309 311 311 310 310 309 309 308 308 308 310 311 313 313 313 312 313 313 313 312 312 312 312 311 311 311 311 311 310 308
305 309 308 311 311 312 313 312 313 312 313 308 309 310 310 309 310 309 309 310 309 309 308 309 308 309 311 313 313 312 311 312 312 311 311 311 311 311 311 311 310 309 308 306
306 305 306 308 307 310 311 311 312 313 310 308 308 309 308 305 304 304 304 304 307 309 309 309 308 308 309 310 313 313 312 311 311 311 311 310 310 310 310 310 309 307 306 305
301 304 305 305 305 306 308 307 306 307 307 306 304 306 303 301 301 301 301 302 303 304 309 310 309 308 308 309 311 313 313 312 312 311 311 310 310 310 309 308 307 305 305 304
305 303 305 308 307 308 309 308 303 303 302 301 303 306 303 303 300 300 300 300 301 300 302 308 309 309 308 309 310 312 313 313 312 312 311 310 309 309 308 307 305 304 303 302
305 306 310 306 306 307 307 308 301 301 300 300 302 303 302 303 302 301 301 301 302 301 300 305 309 309 308 308 309 311 313 313 312 311 310 309 309 308 307 306 304 303 302 299
306 303 305 305 305 307 306 304 300 301 301 300 299 300 301 300 301 301 301 301 301 302 300 303 308 308 308 307 309 310 312 312 311 311 310 309 307 307 306 305 303 302 299 299
305 308 308 303 305 306 302 300 301 300 300 300 300 300 300 300 300 300 300 300 300 301 301 301 306 307 308 307 308 310 311 311 310 310 309 307 307 306 306 304 302 300 299 299
304 305 301 301 301 300 301 301 300 300 300 300 299 299 298 298 298 297 297 297 298 299 300 300 305 306 307 307 306 307 309 309 309 308 307 306 305 305 304 303 301 299 299 299
304 303 298 299 300 300 300 300 300 299 298 297 297 297 297 297 297 296 297 298 297 298 300 300 303 306 306 306 306 306 306 306 306 305 305 305 304 304 303 302 301 299 299 299
299 297 298 299 299 299 299 297 297 297 296 296 296 296 296 296 296 296 296 297 298 298 299 300 302 305 306 306 306 306 305 305 305 305 305 304 303 303 302 301 300 299 299 299
301 299 298 299 299 298 297 294 294 294 294 293 294 294 295 294 295 294 295 295 296 297 298 298 299 302 304 305 305 305 305 304 304 304 305 306 305 303 302 301 300 299 298 298
299 299 299 299 298 297 293 293 293 293 292 292 292 291 292 293 293 293 294 294 294 295 296 297 297 299 301 302 304 305 306 305 305 303 303 304 304 304 303 301 300 299 298 297
298 297 298 297 294 293 293 293 292 292 292 292 292 291 291 291 291 291 292 293 293 294 295 295 296 297 299 301 302 304 305 306 305 304 304 303 304 304 302 301 300 299 298 298
295 293 293 293 293 292 292 291 291 291 291 291 291 291 291 290 290 291 291 292 292 292 293 294 294 295 296 298 299 301 303 303 304 303 303 303 303 302 302 301 300 299 299 297
293 293 292 292 291 291 291 291 291 290 290 289 290 290 290 289 290 290 290 291 290 291 292 291 293 294 294 296 297 298 299 301 301 302 301 301 302 302 301 301 300 299 299 298
291 291 291 291 290 290 290 290 290 289 288 288 288 289 290 290 290 291 290 290 290 290 290 290 290 293 294 294 295 296 298 299 300 300 300 300 301 301 301 300 300 300 300 299
290 290 290 290 290 290 290 290 289 288 287 287 287 287 290 291 290 290 290 290 290 290 290 289 288 290 292 292 293 294 296 297 297 298 299 299 300 300 300 300 300 300 300 300
290 290 290 290 289 289 289 289 288 287 287 287 287 287 288 290 290 290 290 290 289 289 290 289 288 289 291 291 292 292 293 294 295 296 297 297 298 299 299 299 300 300 300 299
289 289 289 289 289 289 289 289 287 287 287 287 287 287 287 288 290 290 289 289 289 289 288 288 288 288 289 289 291 292 292 292 293 294 295 296 297 297 298 298 298 299 299 299
289 288 288 288 288 288 289 289 287 287 288 289 288 287 287 288 290 289 289 288 288 288 288 288 288 287 287 287 289 290 291 291 292 293 294 295 296 296 297 297 297 297 297 297
289 289 288 288 288 287 288 289 288 288 290 290 289 288 287 287 289 289 288 287 287 287 287 287 287 287 286 287 287 288 290 290 291 292 293 294 295 295 295 296 296 296 296 296
289 288 288 288 288 287 287 287 288 288 290 290 289 288 288 287 287 288 287 287 287 286 286 286 286 286 286 286 286 288 289 290 290 291 292 294 293 294 294 294 294 294 295 295
288 288 288 288 287 287 286 286 287 287 288 290 290 288 287 287 287 288 288 287 286 285 285 285 285 285 285 286 286 287 287 289 289 290 290 292 292 291 292 292 293 293 294 294
288 288 288 287 286 286 287 286 286 286 287 288 290 289 288 287 286 286 288 287 286 285 285 285 284 285 285 285 286 286 287 287 288 288 289 289 289 290 290 291 291 292 292 293
288 287 287 286 286 286 286 286 286 286 286 287 288 288 288 287 287 286 287 286 286 285 285 284 284 284 284 284 285 285 285 286 287 288 288 288 288 288 289 290 290 290 291 291
286 286 286 286 286 286 285 285 285 285 286 287 287 287 288 287 287 286 287 286 286 286 285 284 284 284 284 284 284 284 284 285 286 287 287 288 288 288 289 289 290 290 291 291

GFSNGP_850_thetae_075.txt.gz
Theta_e
308 309 311 312 313 312 308 309 310 311 308 310 307 307 309 309 309 309 309 309 309 309 309 308 308 308 309 311 312 312 312 312 313 313 313 312 312 312 312 311 311 311 311 310
304 306 306 311 310 311 312 311 312 310 311 307 308 309 308 308 308 306 305 305 305 306 308 309 309 309 308 308 310 312 312 312 312 312 312 311 311 311 311 310 310 310 310 309
306 304 306 307 307 309 310 310 311 312 310 307 308 308 305 302 302 301 302 302 302 303 303 305 308 310 309 309 308 309 311 312 311 311 311 311 311 310 310 310 310 309 308 308
301 303 306 306 304 305 308 306 306 306 305 305 305 306 302 301 302 302 302 302 302 302 302 302 303 306 310 309 308 309 309 312 312 311 311 311 311 310 310 309 309 308 307 306
303 302 304 307 306 307 308 308 303 303 301 301 302 303 301 302 302 301 301 301 301 301 301 302 301 302 307 310 309 308 309 310 312 312 311 311 311 310 309 309 308 307 307 305
305 306 309 306 305 305 306 307 301 301 300 301 302 304 302 302 302 301 301 301 301 301 301 301 301 301 306 309 309 308 308 310 311 312 311 311 310 309 309 308 308 307 306 304
306 303 305 303 305 305 307 305 301 301 301 300 299 300 301 300 300 300 299 299 299 300 300 301 301 300 304 308 308 308 308 309 311 311 311 311 309 308 308 307 307 307 305 303
305 308 306 302 305 305 301 300 301 300 300 300 299 299 299 298 298 298 298 298 298 298 299 299 300 300 303 307 307 307 307 309 310 311 311 310 309 308 307 306 306 306 304 303
304 304 299 300 301 300 300 301 300 300 299 298 298 298 298 298 297 297 297 297 298 297 298 299 299 301 303 306 306 306 306 307 309 309 309 309 308 307 306 306 305 305 304 303
303 301 299 299 300 300 300 300 299 299 298 297 297 297 297 297 296 296 296 295 295 296 297 298 298 299 300 303 305 305 305 306 306 306 307 307 306 305 305 304 304 304 303 302
299 298 298 299 300 299 299 297 295 296 295 294 293 293 293 293 294 294 295 295 294 295 295 297 298 297 298 300 302 304 304 305 305 305 305 305 305 305 304 303 302 302 302 300
301 298 298 299 299 299 298 294 293 293 293 292 292 292 292 292 291 290 292 292 294 294 294 294 296 297 298 298 300 302 303 304 304 304 304 304 304 303 304 304 303 302 301 300
299 299 299 299 299 298 295 293 293 292 292 292 292 291 291 291 291 291 290 290 291 292 293 294 294 295 297 297 298 300 301 302 303 304 305 304 303 303 304 303 303 302 301 300
298 298 298 297 295 294 293 292 292 291 291 291 290 290 290 290 290 290 289 289 289 290 291 292 292 293 295 295 296 298 299 301 301 302 302 303 304 304 303 303 302 302 301 300
295 293 293 293 293 292 291 291 290 290 290 290 289 288 288 289 289 290 290 290 290 290 290 291 291 293 291 292 294 296 298 299 300 300 301 301 302 302 303 302 302 302 301 300
293 293 292 292 291 290 290 290 290 290 290 289 288 287 287 287 288 290 290 289 289 290 289 290 290 291 290 289 291 294 296 297 298 299 300 300 300 301 302 302 301 301 301 301
292 291 291 290 290 289 289 289 289 289 288 287 287 287 287 287 287 288 289 290 289 289 289 290 289 290 289 288 290 291 293 295 296 297 298 299 299 300 300 300 301 301 301 301
290 290 290 289 289 289 289 289 289 289 288 287 287 287 287 287 287 287 288 290 290 290 289 289 289 289 289 288 288 289 291 292 294 295 296 297 297 298 299 299 299 300 301 301
290 290 289 289 289 289 288 288 288 288 288 287 287 287 288 288 288 288 288 289 290 289 289 288 288 288 287 287 287 289 290 291 292 293 294 295 295 295 297 298 298 299 299 300
290 289 289 288 287 287 287 287 287 288 288 287 287 289 289 289 288 287 287 287 288 288 287 287 288 288 288 288 287 287 288 289 291 292 293 293 294 294 295 297 297 298 298 299
289 288 288 288 288 288 288 288 287 287 287 287 288 290 289 288 288 288 287 286 288 287 287 287 287 287 287 287 287 287 287 288 289 290 291 292 293 293 294 296 297 297 297 297
288 288 288 288 288 288 288 288 287 286 286 287 288 290 289 288 288 288 288 287 287 287 286 286 286 286 286 286 286 287 287 287 288 289 290 291 292 293 293 294 295 296 296 296
288 288 288 288 288 288 287 287 286 286 286 286 287 288 290 289 287 287 287 287 287 287 286 285 285 285 285 286 286 286 287 287 288 289 290 291 292 292 292 293 294 294 295 295
288 288 288 288 288 287 287 286 286 286 286 286 286 286 287 289 288 288 287 287 286 287 286 285 285 285 285 285 285 285 286 287 287 288 289 290 290 291 291 292 292 293 293 293
288 288 288 287 287 286 286 286 285 286 286 286 286 286 286 288 287 287 287 287 286 287 286 285 285 284 284 284 284 285 285 286 287 287 288 288 289 289 289 290 290 291 291 291
287 286 286 286 285 285 285 285 285 285 284 285 285 285 286 287 287 287 287 287 286 286 286 285 284 284 284 283 283 284 284 285 286 286 286 287 287 288 288 287 288 289 290 290
286 286 285 285 284 284 284 283 283 283 283 284 284 285 285 285 286 286 286 286 286 286 285 285 284 284 284 283 283 283 283 283 284 285 285 286 286 286 286 287 288 289 289 290

GFSNGP_850_thetae_078.txt.gz
Theta_e
306 307 310 311 313 312 308 308 308 309 309 307 305 306 307 307 308 308 307 307 307 307 308 308 309 309 309 309 308 310 311 312 312 312 313 313 313 313 313 313 312 312 311 311
303 304 305 311 309 311 311 310 310 307 310 307 306 308 307 307 307 306 304 303 303 303 303 304 303 305 307 309 309 308 309 310 312 312 312 312 312 312 311 311 311 310 310 310
305 303 305 307 307 309 310 310 310 310 309 306 307 307 305 303 302 301 301 302 302 302 302 302 302 302 302 304 308 309 308 309 310 312 311 311 311 311 311 310 310 309 309 309
301 303 305 305 303 304 308 306 306 307 304 303 305 305 303 301 301 302 302 302 301 301 302 302 302 302 302 301 304 308 309 308 309 311 312 310 310 310 310 310 309 309 309 308
303 301 304 306 305 307 309 308 304 303 301 300 302 302 301 301 301 300 300 300 301 301 301 301 301 301 301 301 301 306 308 308 308 309 311 311 310 310 310 309 309 308 308 308
305 306 310 306 305 305 305 306 301 301 300 300 304 304 301 301 301 301 300 300 300 300 300 300 300 300 300 301 301 305 308 308 308 308 310 311 311 310 309 309 308 308 308 307
308 303 304 303 304 304 307 304 300 301 301 300 299 300 300 300 299 299 298 298 298 299 299 299 299 299 300 300 301 305 306 307 307 308 309 310 310 309 309 308 307 307 307 307
306 308 305 300 305 305 301 300 300 301 300 300 299 299 298 298 298 297 297 297 297 297 298 298 298 298 299 300 301 304 306 306 306 308 309 310 310 309 309 308 307 306 306 306
303 303 299 300 300 300 300 301 300 300 299 299 298 297 296 296 295 295 295 295 296 295 296 296 296 297 297 299 300 301 305 305 305 306 308 309 308 308 308 307 307 306 306 305
303 300 299 299 300 300 300 300 299 298 297 296 295 294 293 292 292 292 291 291 292 293 293 294 294 295 296 298 298 300 303 304 304 305 305 307 307 307 306 306 306 305 305 304
300 298 298 299 300 300 299 297 295 295 294 293 293 292 292 292 292 291 291 291 290 290 291 291 292 293 294 295 297 297 300 302 304 303 304 304 305 305 305 305 304 303 303 302
302 299 299 299 300 299 298 296 293 293 293 292 292 291 291 291 291 290 290 290 290 289 290 290 291 291 292 293 293 295 297 299 301 302 302 302 303 304 304 304 303 302 302 302
299 299 299 299 299 299 297 293 293 292 292 291 291 290 290 289 289 289 289 289 289 290 290 290 290 290 291 291 292 292 294 296 298 300 301 301 302 302 303 303 303 302 303 303
299 299 297 298 296 295 294 292 292 291 290 290 290 289 288 288 288 288 288 288 289 289 289 289 290 290 290 290 290 291 291 294 295 297 299 300 300 300 300 301 302 302 303 302
295 294 293 293 293 292 291 290 290 290 289 290 289 288 287 287 287 287 287 287 289 289 289 289 289 289 290 290 290 290 290 290 293 295 297 299 299 300 300 300 300 301 302 301
294 293 292 292 291 290 290 289 289 289 289 289 289 288 287 287 287 287 287 287 287 288 289 289 289 289 289 289 289 289 288 289 290 292 294 296 297 298 299 299 300 300 301 302
292 291 291 291 290 290 289 289 289 288 289 288 288 288 287 287 287 287 289 289 288 288 288 289 289 288 288 289 289 288 287 287 289 291 292 293 294 297 298 298 299 300 301 301
291 290 290 290 290 289 289 288 288 287 287 288 288 288 287 287 288 289 289 288 288 288 288 288 288 287 287 288 287 287 287 287 288 290 291 292 293 294 296 297 298 299 300 300
290 290 290 289 289 288 287 287 287 287 287 287 287 288 287 287 289 289 288 288 288 288 288 288 288 287 287 287 287 287 287 287 288 289 290 291 291 293 293 296 297 298 298 299
291 290 289 289 288 288 288 288 288 287 287 287 286 286 287 287 289 289 287 288 288 288 287 287 287 287 287 286 286 286 286 287 287 287 288 289 290 291 293 293 294 295 297 297
290 289 288 288 288 288 288 287 288 288 287 287 286 286 286 286 288 289 287 287 288 287 287 287 287 286 286 286 286 286 286 286 287 286 287 288 289 290 292 293 293 293 295 296
289 288 288 288 288 288 288 287 288 287 287 286 286 286 286 286 286 288 289 288 288 287 287 287 287 286 285 285 285 285 286 286 286 286 287 288 289 289 291 292 292 293 294 295
288 288 288 288 287 287 287 287 287 286 286 286 286 286 286 285 286 286 286 288 287 287 287 287 286 285 285 285 285 285 285 285 285 286 287 288 289 289 290 291 292 292 293 294
287 287 287 286 286 286 286 286 285 285 285 285 285 285 285 285 285 286 286 287 286 287 286 286 286 285 284 284 284 284 284 285 285 286 287 287 288 289 289 290 291 292 293 293
287 287 287 286 286 286 285 285 284 284 284 284 284 284 284 284 284 285 286 286 287 286 286 286 285 285 284 284 283 283 283 284 284 285 286 287 287 288 288 289 290 290 291 291
286 286 285 284 283 283 282 282 281 282 281 282 282 283 283 284 284 284 284 285 285 285 285 286 285 285 284 283 283 283 283 283 284 284 285 286 286 287 287 288 288 289 289 289
285 283 283 282 281 281 280 279 279 279 279 280 280 281 281 282 283 284 284 285 285 285 286 285 285 285 284 284 283 283 283 283 283 283 284 284 285 285 286 286 287 287 287 288

GFSNGP_850_thetae_081.txt.gz
Theta_e
304 305 310 311 312 311 308 307 309 309 308 307 306 306 305 306 305 304 303 303 303 303 303 304 305 306 306 307 309 309 308 308 310 311 311 312 313 313 313 313 313 313 313 313
304 304 304 310 309 310 311 309 309 306 309 306 304 307 306 304 303 301 301 302 302 303 303 304 304 304 304 304 304 305 308 309 308 309 312 311 312 312 312 312 312 312 312 311
306 302 304 306 304 308 309 308 308 310 308 306 306 306 303 300 300 300 301 301 302 302 302 302 302 302 303 303 303 303 303 306 308 308 309 311 311 311 311 311 311 310 310 310
302 303 306 304 302 304 307 306 306 306 302 302 305 303 301 300 301 301 301 302 302 301 301 301 301 301 301 301 301 302 301 303 307 308 308 309 311 310 310 310 310 309 309 309
304 302 304 305 305 306 307 307 304 302 300 301 302 301 300 299 300 301 301 300 300 300 300 300 299 300 300 301 301 301 301 303 306 308 307 308 310 311 310 310 309 309 308 308
305 306 310 305 304 304 305 305 301 301 300 301 303 304 301 300 300 299 299 299 299 299 299 299 299 299 299 300 300 301 302 303 306 307 307 307 308 310 309 309 309 308 308 308
307 303 304 302 302 303 308 304 300 301 300 300 300 300 300 299 299 298 298 298 297 297 297 297 297 298 299 299 299 299 301 303 305 306 306 307 308 309 309 308 308 308 307 307
304 305 304 300 304 305 301 300 300 301 300 300 300 299 299 298 297 295 295 294 294 294 294 295 294 295 295 296 298 298 299 300 304 305 306 307 308 308 308 307 307 307 307 306
303 303 299 300 301 301 301 301 301 300 300 299 299 298 296 293 293 292 292 292 291 291 291 291 292 292 292 293 295 297 298 299 301 304 304 305 307 307 308 307 306 307 306 306
303 300 299 300 300 300 300 300 300 300 299 297 295 294 292 292 292 291 291 291 290 290 290 290 290 290 291 291 292 293 296 298 299 301 303 304 304 306 306 306 306 306 306 306
300 299 299 300 300 300 300 299 298 296 294 294 293 292 292 291 291 291 290 290 290 289 289 289 290 290 290 290 290 291 292 293 296 298 300 302 303 304 305 305 305 305 305 305
302 299 300 299 300 299 299 297 295 293 293 292 292 291 290 290 290 289 289 289 289 289 289 289 289 289 289 290 290 290 291 292 293 295 297 299 301 302 302 303 303 303 303 303
299 299 299 299 299 299 298 296 293 292 292 291 290 290 290 289 289 288 288 287 287 287 288 289 289 288 289 289 290 290 290 290 291 292 293 295 297 299 301 300 301 302 302 302
299 299 298 298 297 297 296 293 291 290 290 290 289 290 289 288 287 287 287 287 287 287 287 288 288 288 289 289 289 290 290 289 290 290 291 293 295 296 298 300 300 300 301 301
296 296 294 293 294 293 291 290 290 290 289 289 289 289 288 288 287 287 287 287 287 288 288 288 288 288 288 288 289 289 289 289 289 289 291 290 293 294 296 297 299 299 300 299
295 294 293 292 292 291 290 289 289 289 288 288 288 288 288 288 288 287 287 287 288 289 288 288 288 288 288 288 288 288 288 288 287 289 288 289 292 293 294 296 297 298 299 299
294 292 291 291 290 290 290 289 289 288 287 287 287 287 287 287 288 288 287 288 288 288 288 288 288 288 288 288 287 287 287 287 287 287 287 288 289 291 292 293 295 297 298 299
293 291 290 290 290 290 289 288 287 287 287 287 287 287 287 286 286 287 287 288 289 288 288 288 288 288 288 287 287 287 287 286 286 286 287 288 288 290 291 291 293 295 297 298
291 290 290 290 290 289 288 287 287 287 287 287 287 287 287 287 286 286 286 287 289 288 288 288 288 288 287 287 286 286 286 285 286 286 286 287 288 288 289 290 291 293 295 297
291 290 290 289 288 288 287 287 287 287 287 287 287 287 287 286 286 286 286 286 288 288 287 287 287 288 287 287 286 286 286 286 286 286 286 286 287 287 288 289 291 291 293 295
291 290 289 288 288 287 287 287 287 287 287 287 286 286 286 285 285 286 286 286 286 286 288 287 287 287 287 286 286 285 285 285 285 286 286 286 286 287 288 289 290 291 292 292
289 288 288 287 287 287 287 287 287 286 286 286 285 285 285 285 285 285 285 285 286 286 286 287 287 287 286 285 285 285 285 285 285 285 285 286 286 287 288 289 290 291 291 291
288 287 286 286 286 286 286 286 286 285 285 285 285 284 284 284 284 284 284 285 285 286 286 286 286 285 285 285 284 284 284 284 284 284 285 285 286 287 288 289 290 290 291 291
286 287 286 286 285 285 285 284 283 283 283 283 282 282 282 282 282 283 283 284 284 285 285 285 285 285 285 284 284 283 283 283 283 284 284 285 286 287 288 288 289 290 291 291
286 286 285 285 284 283 282 281 281 281 280 281 280 281 281 281 281 282 283 284 284 284 284 285 285 284 284 284 283 283 283 283 283 283 284 285 286 286 287 288 288 289 290 291
285 285 283 283 282 281 281 280 279 279 278 279 279 280 280 280 281 282 283 283 284 284 284 285 285 284 284 283 283 283 282 282 282 283 283 284 285 285 286 287 287 288 288 288
284 283 283 282 281 281 280 279 278 279 278 279 278 279 280 281 282 282 283 283 284 284 285 285 284 284 283 283 283 283 282 282 282 282 282 283 283 284 285 285 286 286 286 287

GFSNGP_850_thetae_084.txt.gz
Theta_e
309 309 312 314 314 314 314 312 315 312 313 312 311 311 309 308 306 304 303 303 302 304 304 305 305 306 306 306 305 305 305 306 308 308 309 311 312 312 313 314 314 315 316 316
311 309 311 313 312 314 313 312 312 312 312 311 308 309 309 307 304 303 302 302 303 304 304 305 305 306 306 306 305 304 304 303 304 306 308 308 311 312 312 312 313 313 313 314
314 308 309 312 309 311 312 312 312 314 311 309 309 310 307 304 303 302 302 303 304 304 304 304 304 303 303 303 303 303 303 302 302 303 306 307 308 311 311 311 311 311 312 312
314 310 315 308 305 306 308 309 309 310 308 309 309 305 302 302 302 302 301 301 300 300 300 300 301 301 302 302 302 302 302 302 302 302 304 307 307 308 311 310 310 310 310 310
315 313 309 307 307 309 310 310 307 308 305 306 303 302 301 300 300 300 300 299 299 299 299 299 299 299 300 300 301 301 301 301 302 303 304 306 307 307 308 310 310 310 309 309
311 313 312 309 306 305 307 310 305 305 305 305 304 311 310 300 299 299 299 298 298 298 297 297 297 297 297 298 298 299 300 301 301 302 304 306 306 307 307 309 309 309 308 308
311 312 310 306 304 304 310 308 303 303 303 304 306 303 300 300 299 298 297 296 295 295 294 294 294 294 293 293 294 295 298 299 300 300 303 305 306 306 307 307 308 308 308 308
309 310 309 303 305 308 305 301 302 302 302 301 300 300 299 298 295 294 293 293 292 292 292 291 291 291 291 291 292 292 293 296 298 299 301 304 304 305 307 307 307 307 307 307
308 308 303 302 303 302 301 302 301 301 300 300 299 298 296 294 293 292 292 292 291 291 291 290 290 290 290 290 290 290 291 291 293 297 299 301 303 304 305 306 307 307 307 307
307 304 304 302 301 301 301 300 300 300 299 298 297 295 293 293 292 291 291 291 291 290 290 290 289 289 289 289 290 290 290 290 290 291 294 298 301 303 303 304 305 305 306 306
306 305 301 301 300 301 300 300 299 297 296 294 293 293 292 291 291 290 290 289 289 289 288 288 289 289 289 289 289 289 290 290 290 290 291 293 297 300 301 302 302 304 304 305
308 303 303 302 300 300 299 299 297 295 294 293 292 291 290 290 290 290 289 288 288 287 287 287 288 288 288 288 289 289 289 289 290 290 290 291 292 295 298 300 300 301 302 302
303 301 300 300 300 299 299 298 297 294 292 291 290 290 290 289 289 289 288 287 287 287 287 287 287 287 288 288 288 288 288 289 289 289 289 290 290 292 293 297 299 299 300 301
300 300 299 298 298 298 298 296 293 291 290 290 289 289 289 289 288 288 288 288 287 287 287 287 288 289 289 288 288 288 288 288 288 289 288 289 289 291 291 293 296 299 298 299
298 298 296 295 295 294 292 291 290 290 290 289 288 288 287 287 287 287 287 288 288 287 287 288 289 289 288 288 288 288 288 288 287 288 287 288 288 289 290 292 294 295 297 298
296 294 293 293 292 292 291 290 290 290 289 288 287 287 287 287 287 287 287 286 287 287 287 288 288 288 288 288 288 288 288 288 288 286 287 287 287 287 288 290 292 293 295 296
295 293 293 292 291 290 290 290 290 289 288 287 287 287 287 287 287 287 287 286 286 286 287 288 288 288 288 288 288 287 287 287 287 287 287 287 286 286 287 288 290 291 293 295
295 293 291 291 291 290 290 289 288 288 287 287 287 287 287 287 287 287 287 286 286 286 286 286 288 287 287 288 288 287 287 287 286 286 286 285 285 286 288 287 288 290 291 293
292 290 290 291 290 289 289 288 287 287 287 287 287 287 287 287 286 286 286 285 285 286 287 286 287 287 287 287 287 287 287 285 285 286 285 285 285 285 286 287 288 289 290 291
291 290 291 290 289 288 288 287 287 287 287 286 286 286 286 285 285 285 284 284 285 285 286 286 286 287 288 288 287 286 286 285 285 285 285 285 285 286 287 287 287 288 289 291
291 291 290 288 288 287 286 286 286 286 286 285 285 285 284 284 284 284 283 283 285 284 285 285 285 285 286 287 286 285 285 286 285 285 285 285 285 285 285 286 287 288 289 290
291 289 287 286 286 287 286 286 285 285 284 284 283 282 282 282 282 282 282 283 283 284 284 284 285 285 285 285 285 285 285 285 284 284 284 284 284 285 285 286 287 288 289 290
288 286 286 286 286 286 285 284 283 282 282 281 281 280 280 280 281 281 281 282 283 283 283 284 284 285 284 284 285 285 284 284 283 283 283 283 284 285 285 286 287 288 289 290
286 286 286 285 285 284 284 283 282 282 282 281 280 280 279 279 280 281 281 281 282 283 283 284 284 284 283 285 285 284 284 283 283 282 283 283 284 285 286 286 287 288 289 290
286 286 285 284 284 283 282 282 282 282 282 281 280 280 280 280 280 281 282 282 283 283 283 284 284 284 284 284 284 283 283 282 282 282 282 283 284 284 285 286 287 287 288 289
286 285 284 283 282 282 282 282 281 280 281 281 281 280 281 281 281 282 282 282 283 283 284 284 284 284 283 283 283 283 282 282 282 282 282 282 283 284 285 285 286 286 287 288
284 284 283 283 282 282 282 280 280 281 281 280 280 280 281 282 282 282 282 283 283 283 284 284 284 283 283 283 282 282 282 282 282 281 281 281 282 283 284 284 285 285 286 287

GFSNGP_850_thetae_087.txt.gz
Theta_e
312 312 314 315 315 315 315 314 315 314 315 314 314 313 312 309 308 307 306 305 304 304 303 303 305 305 305 305 305 305 305 305 305 305 306 308 309 311 312 312 313 314 316 318
316 312 313 313 313 315 315 314 313 314 314 313 313 312 311 309 307 307 306 305 304 303 302 302 302 302 302 302 303 303 303 303 303 303 303 304 307 308 311 312 312 313 313 314
317 312 312 314 310 312 314 314 314 315 313 312 312 312 311 308 307 306 305 304 303 303 302 301 301 302 302 302 302 302 302 302 302 302 302 303 303 306 307 310 311 312 312 312
317 313 318 310 308 309 309 311 312 312 311 311 312 311 307 306 306 305 304 303 302 302 302 301 300 300 300 300 301 301 301 302 302 302 302 302 303 305 307 307 310 311 311 311
317 314 311 309 309 310 311 312 310 311 309 309 307 306 306 303 302 302 301 301 300 299 299 299 299 298 298 297 297 297 299 300 300 301 301 302 303 305 306 307 307 309 310 310
313 315 313 311 308 308 308 312 308 308 309 308 307 312 308 302 301 301 300 299 298 298 297 297 297 295 294 294 294 294 295 295 297 299 299 300 302 304 305 306 306 307 309 309
313 313 312 308 307 306 311 310 307 307 307 307 309 305 302 300 300 299 297 296 294 294 294 293 293 292 291 292 292 292 292 293 293 294 297 299 300 302 304 305 305 306 307 308
310 311 310 307 307 309 307 304 306 305 305 305 304 302 300 299 298 296 295 294 293 293 293 293 293 292 291 291 292 291 290 291 291 291 292 294 298 299 302 302 303 304 305 306
309 310 306 306 307 304 304 305 304 304 303 302 301 301 299 297 295 295 294 293 293 293 293 293 293 292 291 290 290 290 290 290 291 291 291 291 291 296 299 301 302 302 302 304
308 308 307 306 304 303 302 303 302 301 301 300 300 298 297 295 294 294 293 293 292 292 292 292 291 291 291 291 290 290 289 289 290 290 290 291 291 291 294 298 300 301 301 301
308 308 305 305 304 304 301 301 300 300 299 297 296 296 295 294 293 293 292 292 291 290 290 290 289 290 290 290 290 289 289 289 289 290 290 290 291 290 290 292 296 298 299 300
307 307 307 305 303 302 301 299 298 297 296 295 294 293 293 292 292 292 291 290 290 290 289 288 288 288 288 288 289 290 290 290 290 290 289 289 290 290 290 290 291 296 298 298
306 302 302 301 301 300 300 298 298 297 295 293 292 291 291 291 290 290 289 289 289 288 288 288 288 288 288 289 289 289 289 289 289 289 288 289 289 289 289 290 290 291 295 298
301 301 301 300 300 299 298 298 297 293 292 291 290 290 289 289 289 288 289 288 288 288 287 287 287 287 288 289 288 288 288 288 288 287 288 288 288 288 288 288 288 290 291 294
300 300 298 298 297 296 295 293 292 291 291 290 290 289 288 288 287 288 287 287 287 287 287 287 287 287 288 288 288 288 288 288 288 287 287 287 287 288 287 287 287 288 290 292
298 298 296 294 294 293 292 291 290 291 290 290 289 288 288 288 287 287 287 287 287 287 287 286 286 286 287 288 287 288 288 288 287 287 287 287 287 287 287 286 287 287 288 291
296 294 294 294 293 292 291 290 290 290 289 288 288 287 287 287 287 287 287 287 287 286 286 286 286 286 286 287 287 287 288 287 287 287 286 286 286 287 286 286 286 287 288 289
296 295 293 292 291 291 291 290 289 288 288 287 287 287 286 286 286 286 286 286 286 285 285 285 286 286 286 287 286 287 287 287 287 286 286 286 286 286 285 286 286 286 287 288
296 294 291 291 291 291 290 289 288 287 287 286 286 286 286 285 285 285 285 285 284 284 285 285 285 285 285 285 286 286 286 287 286 285 285 285 285 285 285 285 286 286 287 287
293 291 291 291 290 289 288 287 286 286 286 285 285 285 284 284 284 283 283 283 283 284 284 284 283 284 285 285 286 286 286 285 285 285 285 285 285 285 285 286 286 286 286 286
291 291 291 290 288 286 286 286 286 285 285 284 283 282 282 281 282 282 282 282 282 283 283 283 283 284 284 285 285 285 285 285 286 286 286 285 285 285 285 285 285 285 285 286
292 291 289 287 286 286 286 286 285 284 283 283 281 280 280 280 281 280 281 281 282 282 282 282 283 283 284 284 284 285 285 285 286 285 284 284 284 284 284 284 284 284 285 286
291 288 287 286 286 286 285 285 284 284 283 282 281 280 280 280 280 280 280 281 281 281 281 282 283 283 283 284 283 284 285 285 284 284 283 283 283 283 284 284 284 285 286 286
287 286 286 286 285 285 285 284 284 283 283 282 282 281 281 281 281 280 280 281 283 282 283 283 284 284 283 284 284 284 284 283 283 282 282 282 282 283 283 284 285 285 286 287
286 286 286 285 284 284 284 284 283 283 283 283 282 282 282 280 279 281 282 282 282 283 283 283 284 284 283 283 283 283 283 282 282 282 282 282 282 282 283 283 284 285 286 287
286 285 284 284 284 284 284 283 282 283 283 282 282 282 282 282 282 282 282 282 282 283 283 283 283 283 283 283 282 282 282 282 282 282 281 281 281 282 282 283 284 285 286 287
285 284 284 284 283 283 283 283 283 282 282 281 282 282 282 282 282 282 282 282 283 283 283 283 283 283 283 283 282 282 282 282 281 281 281 281 281 281 282 283 283 284 285 286

GFSNGP_850_thetae_090.txt.gz
Theta_e
312 312 314 313 314 313 312 311 312 313 313 312 310 309 308 307 306 306 305 304 304 304 303 303 304 304 304 304 305 305 304 305 305 305 304 304 305 307 308 310 311 312 313 314
309 311 313 312 310 313 313 313 312 312 312 311 312 311 309 308 307 306 305 304 304 303 303 303 303 303 303 303 303 303 303 303 304 304 304 303 303 303 305 307 309 311 312 313
314 311 311 312 308 309 313 312 312 313 311 309 310 311 310 308 307 306 305 304 303 303 303 302 301 301 300 300 300 301 301 301 302 302 302 302 302 303 303 305 307 308 311 311
309 311 312 309 308 309 309 311 311 310 310 310 309 308 307 307 306 305 304 303 302 301 300 299 299 299 297 297 297 297 297 298 298 299 301 301 302 302 303 304 305 306 308 310
309 309 310 309 308 309 309 310 309 310 308 308 307 306 304 304 304 303 303 301 301 301 299 298 297 296 295 295 295 294 294 294 294 294 296 297 300 301 302 303 304 305 306 307
311 311 313 310 308 307 308 309 307 308 308 308 307 308 302 302 302 301 300 300 299 296 296 296 295 295 294 293 293 292 293 292 292 292 292 293 294 297 300 301 303 304 304 306
310 309 310 307 307 307 310 308 307 307 307 307 305 303 303 301 300 299 298 296 295 294 294 294 293 293 293 293 293 293 292 291 291 291 291 291 291 292 293 298 300 301 302 304
308 309 306 307 306 309 306 305 306 305 305 305 303 302 301 300 299 297 296 295 294 293 293 293 293 293 292 291 291 291 290 290 290 290 290 291 291 291 291 293 297 299 301 302
307 308 306 307 307 305 305 305 305 304 304 303 302 301 300 299 297 296 295 294 293 293 292 292 292 291 291 291 291 290 290 289 289 289 289 289 290 290 291 291 293 296 299 301
306 307 306 306 305 304 304 303 303 303 302 302 301 300 298 297 296 294 293 292 292 292 291 290 290 289 289 289 290 290 289 289 289 289 289 289 289 290 290 290 290 290 294 297
305 306 306 306 306 305 304 302 302 301 301 300 299 298 296 295 293 292 292 292 291 290 289 289 288 288 288 288 288 289 289 289 289 289 289 289 289 289 289 290 290 290 290 292
304 306 305 305 305 304 303 302 300 300 299 299 298 295 293 292 291 291 291 290 289 288 288 288 287 287 287 287 287 287 289 289 289 289 289 289 288 288 288 289 288 289 289 290
306 305 304 303 302 302 301 301 300 299 298 297 293 292 291 291 291 290 289 288 288 288 287 287 287 287 287 286 287 288 289 289 288 288 288 288 288 288 288 289 289 288 288 288
304 304 302 301 301 301 300 299 298 297 293 292 291 291 291 290 289 288 288 287 287 287 287 287 287 287 287 287 287 287 288 288 288 288 288 287 286 287 286 287 288 288 287 288
302 301 301 301 300 298 297 295 293 292 291 291 291 290 289 289 288 288 287 287 287 287 287 287 287 287 287 286 286 288 288 288 288 288 287 287 287 287 287 287 287 286 286 286
300 300 299 298 296 295 293 292 291 291 291 290 289 288 288 287 287 287 287 287 286 287 287 286 286 286 285 285 285 286 287 287 288 288 287 287 286 286 286 287 287 286 286 286
299 296 296 295 295 293 292 291 291 290 290 288 287 287 287 286 286 286 286 285 285 285 285 284 284 285 285 286 286 286 286 287 287 287 287 286 286 286 286 286 286 285 285 285
299 298 297 296 293 291 291 291 290 289 287 286 286 286 286 285 285 285 284 284 284 283 283 283 284 284 284 284 285 285 286 286 287 287 286 286 286 286 286 286 286 285 285 285
296 296 294 292 291 291 291 290 288 286 286 286 286 285 284 284 283 283 282 282 282 282 282 283 283 283 283 284 284 285 285 286 286 286 285 285 285 285 285 285 285 285 285 286
295 294 292 291 291 291 289 287 286 286 286 285 285 284 284 283 282 281 281 281 281 281 282 282 282 282 283 283 284 285 285 286 285 285 285 285 285 285 285 285 285 285 285 285
294 292 292 292 290 287 287 286 286 286 285 285 284 283 283 283 282 282 281 281 282 281 282 281 281 282 282 283 283 284 284 285 285 285 285 286 285 284 284 284 284 284 284 284
292 292 292 290 287 286 287 286 285 285 284 284 284 283 283 283 283 283 282 281 281 280 281 281 281 281 282 283 283 283 283 284 285 285 285 284 283 283 282 283 283 283 284 284
292 292 289 287 286 287 286 286 285 284 284 284 283 283 283 283 282 282 283 283 281 281 280 281 282 281 282 283 283 283 284 284 284 284 283 282 282 282 282 283 283 283 284 285
291 288 287 286 287 286 286 285 284 284 284 283 283 283 283 283 284 282 283 283 283 280 280 282 281 282 282 283 283 283 282 282 282 282 282 282 282 281 282 282 282 283 284 285
287 286 286 287 286 286 285 285 284 284 283 283 283 283 283 283 282 283 283 283 283 282 282 283 283 283 282 282 282 282 282 281 281 281 281 281 281 281 281 281 282 283 284 284
286 286 286 286 286 285 284 284 284 283 283 283 283 283 284 283 283 283 283 282 282 282 282 283 283 282 282 282 282 282 281 281 281 281 281 281 280 280 281 281 282 283 283 284
286 286 286 285 285 284 284 284 283 283 282 283 283 283 283 283 283 282 283 283 282 282 282 282 283 283 282 282 282 282 281 281 280 280 280 280 280 280 281 281 282 282 283 284

GFSNGP_850_thetae_093.txt.gz
Theta_e
309 310 312 311 310 312 311 311 310 311 311 309 307 305 305 305 305 304 304 304 304 304 304 304 304 304 304 303 304 304 305 304 305 305 305 304 304 304 304 304 306 308 310 311
306 310 310 309 307 310 311 311 310 310 311 308 308 307 306 306 305 305 304 304 304 304 304 304 303 302 302 302 302 302 301 302 302 302 302 303 303 303 303 303 303 304 307 310
308 310 309 309 307 308 311 310 312 312 310 308 308 308 306 306 305 305 304 304 304 303 302 302 301 301 300 299 299 298 298 298 298 298 298 299 301 302 302 303 303 303 304 306
303 306 308 308 307 308 308 310 309 309 308 307 308 305 306 306 305 304 304 304 303 302 301 300 298 298 298 296 296 296 296 295 295 295 295 295 295 296 298 301 302 303 303 304
305 304 308 307 308 308 309 309 307 307 307 306 306 305 303 304 304 304 304 303 301 300 298 297 296 296 296 295 294 293 293 293 293 292 292 293 293 293 293 294 297 300 301 303
307 308 310 308 307 307 306 307 306 307 306 305 305 305 302 303 304 304 303 301 300 298 297 296 295 294 293 293 293 292 292 292 292 291 291 291 291 291 292 292 292 293 297 300
307 305 307 307 306 306 308 305 306 306 306 306 304 304 304 303 302 302 300 299 297 296 296 295 295 294 294 293 293 292 291 291 290 290 290 290 290 290 290 291 291 291 292 297
304 306 304 305 305 306 304 305 306 305 305 304 304 303 302 301 300 299 297 295 294 294 293 293 293 292 292 291 291 291 290 290 289 289 289 289 289 289 290 290 290 290 290 291
303 304 304 306 306 306 305 305 304 304 304 303 303 302 301 300 298 296 295 294 293 293 292 292 291 290 290 290 289 289 290 289 288 288 288 288 289 289 290 289 289 290 290 289
304 303 304 305 306 306 305 304 304 303 303 302 302 301 299 298 296 295 293 292 292 292 291 290 289 288 288 287 287 287 287 287 288 288 288 288 289 289 289 289 289 290 290 289
302 303 305 306 306 305 304 303 303 302 302 301 300 298 297 295 293 292 291 291 291 290 289 288 288 287 287 287 287 286 286 287 287 288 289 289 289 289 289 288 288 289 288 289
303 304 304 304 304 305 304 303 302 301 300 299 297 296 293 292 291 291 290 290 289 288 287 287 287 287 287 287 287 287 286 286 287 288 288 288 288 288 288 287 288 288 288 288
305 305 305 305 304 303 303 302 301 299 298 297 293 291 291 291 291 289 288 288 287 287 287 287 287 287 287 287 286 286 286 287 287 288 288 288 288 288 287 288 287 287 287 288
305 305 302 302 303 302 301 300 299 297 294 292 291 291 290 289 288 288 287 287 287 287 287 286 286 287 286 286 285 285 285 286 287 288 288 288 288 287 287 287 287 287 286 286
304 304 303 303 301 300 299 297 295 292 291 291 291 290 288 287 287 287 286 286 286 286 286 285 285 285 284 285 285 285 285 285 285 287 287 287 287 287 287 287 286 286 286 286
302 301 301 300 299 297 295 293 292 291 291 291 289 287 286 286 286 286 286 285 285 284 284 283 283 283 283 284 284 284 285 285 286 286 286 287 288 287 286 286 286 286 286 286
301 298 298 298 296 295 293 292 291 291 290 288 286 286 287 286 286 285 284 284 283 283 283 283 283 283 283 283 283 284 284 284 285 286 286 288 287 286 286 286 286 286 285 285
301 300 299 298 296 294 292 291 291 290 287 286 286 287 286 285 284 283 283 283 283 283 282 282 282 283 282 283 283 283 284 285 285 285 286 286 286 285 285 285 285 285 285 285
299 298 297 295 293 292 291 291 289 287 286 287 286 286 285 284 284 284 284 283 283 282 283 282 282 282 282 283 283 283 284 284 284 285 285 285 285 285 285 285 285 285 285 285
295 295 293 293 292 292 290 287 286 287 286 286 286 285 284 284 284 284 284 284 283 282 282 282 281 282 283 282 282 283 283 283 283 283 284 284 284 285 285 285 284 284 284 284
294 293 292 292 291 289 287 286 287 286 286 286 285 285 284 284 284 284 284 284 283 283 282 283 282 283 282 282 283 283 283 283 284 284 284 284 284 284 284 284 283 282 282 283
294 292 291 291 289 287 286 287 286 286 285 285 284 284 284 284 284 284 283 282 283 283 283 283 282 281 282 283 283 283 283 283 283 283 283 283 283 283 282 282 282 282 282 282
292 292 292 289 287 286 287 286 286 285 285 285 284 284 284 284 283 283 284 283 283 283 281 282 282 281 282 282 282 282 282 282 282 282 282 282 282 281 281 281 281 281 282 282
292 291 289 287 286 287 286 286 285 285 284 284 284 284 283 283 284 283 283 283 283 283 283 283 282 282 281 282 282 282 282 281 281 281 281 281 281 281 280 281 281 281 282 283
291 289 287 286 287 287 286 285 285 284 284 284 284 283 283 282 283 283 283 283 283 283 283 283 283 283 283 282 282 281 281 281 280 280 280 280 280 280 280 280 280 281 282 283
289 287 286 287 287 286 285 285 284 284 284 284 284 283 283 283 283 283 283 283 282 282 282 282 282 282 282 282 281 281 281 281 280 280 280 280 280 280 280 280 281 281 282 283
287 287 286 287 286 285 285 284 284 284 284 284 284 283 283 283 283 283 283 283 282 282 282 282 282 282 282 281 281 281 281 280 280 279 280 280 280 280 280 280 281 281 282 283

GFSNGP_850_thetae_096.txt.gz
Theta_e
307 307 309 310 307 309 309 310 309 310 310 309 307 305 305 304 304 304 304 304 303 304 304 303 302 302 302 302 302 302 302 302 302 301 301 301 302 302 303 304 304 304 304 306
304 309 308 310 306 308 310 310 309 310 311 307 307 305 304 304 304 304 304 304 304 304 303 302 302 301 301 300 300 300 300 299 298 298 298 298 298 298 299 300 302 302 303 303
305 307 308 309 307 308 310 310 310 311 309 306 305 304 304 305 305 305 305 304 304 303 302 301 300 300 300 299 298 297 297 296 296 297 296 295 295 295 295 295 295 297 300 302
303 305 305 308 306 307 308 309 308 308 308 307 307 305 305 305 305 305 304 304 304 302 301 299 298 298 297 297 297 296 295 294 294 293 293 293 294 294 294 294 294 293 294 296
304 303 305 307 306 307 308 308 307 307 306 305 304 304 303 305 304 304 304 303 301 300 298 297 296 295 295 294 294 293 293 292 292 292 292 292 292 292 292 292 293 292 292 293
305 307 308 306 306 307 305 304 305 306 306 305 305 305 303 304 304 303 302 301 299 298 296 295 294 294 294 293 292 292 291 291 291 290 290 290 290 290 290 291 291 291 291 291
306 305 306 305 305 306 307 301 306 307 307 306 303 305 306 305 304 302 301 301 299 298 297 295 294 293 292 292 292 291 291 290 290 289 289 289 289 289 289 289 289 289 290 290
303 305 304 305 305 305 302 305 306 306 306 306 306 305 304 303 302 301 300 299 297 295 294 293 292 292 292 292 291 290 289 288 288 288 288 288 288 288 288 288 289 289 289 289
302 302 302 305 305 306 305 305 305 305 305 305 304 303 302 301 300 298 297 295 293 292 292 292 291 290 289 288 287 287 286 286 286 287 287 287 287 288 288 288 288 288 288 288
304 301 301 305 306 306 306 305 305 304 304 303 303 301 300 299 297 296 293 292 291 291 291 290 288 287 287 287 287 287 287 287 287 286 286 286 287 288 289 288 288 288 288 288
301 301 303 305 305 305 305 304 304 303 303 302 301 299 298 296 293 292 291 291 290 289 288 287 287 287 287 287 287 287 286 286 286 286 286 286 287 288 288 288 288 288 287 288
305 304 304 304 306 305 304 304 303 302 301 299 299 297 294 292 291 291 290 288 288 287 287 287 287 287 286 286 286 286 286 286 286 286 286 287 287 288 288 288 288 287 287 287
304 305 305 305 305 305 304 303 302 300 299 298 295 292 291 291 290 289 288 287 287 287 287 287 287 286 286 286 286 285 285 285 285 285 285 286 288 288 287 287 287 287 286 286
305 304 303 303 304 303 303 302 300 298 296 292 291 291 291 290 288 287 286 286 286 286 286 285 285 284 284 284 284 284 284 284 284 285 285 285 286 287 286 286 287 287 287 286
304 304 304 304 302 301 301 300 298 294 292 291 291 291 289 287 286 286 286 286 285 285 284 284 284 283 283 283 283 283 283 283 284 284 285 285 286 286 287 287 286 286 286 287
302 301 302 303 301 300 298 296 293 292 291 291 290 288 286 287 286 285 285 284 284 284 284 283 283 283 283 283 283 283 283 284 284 284 285 285 285 286 287 287 286 286 286 286
300 299 299 300 299 298 295 293 292 291 291 290 287 286 287 286 285 285 285 285 284 284 283 283 283 283 283 283 283 283 283 283 283 284 284 285 285 286 286 286 285 285 285 285
302 301 300 300 298 295 293 292 291 291 289 287 287 286 286 285 285 285 285 285 285 284 284 284 283 283 283 283 283 283 283 283 283 283 283 284 285 285 285 285 285 285 285 285
300 300 299 298 296 294 292 292 291 289 287 287 286 286 285 285 285 285 285 285 285 285 284 284 284 284 283 283 283 283 283 283 283 283 283 284 284 284 284 284 285 285 285 284
298 297 296 295 293 292 292 291 288 287 287 287 286 285 285 285 285 285 285 284 284 284 284 284 283 283 283 283 283 283 283 283 283 283 283 283 283 284 284 284 284 284 283 283
295 294 293 292 292 292 290 287 287 287 286 286 285 285 285 285 285 285 285 285 284 284 284 283 283 283 282 282 283 282 282 282 282 282 282 282 282 282 282 282 282 282 282 282
294 294 293 292 292 289 287 286 287 286 286 285 285 285 285 285 284 284 285 284 284 284 283 283 283 282 281 282 282 282 282 282 282 281 281 281 281 281 281 281 281 281 281 281
294 293 292 292 290 287 286 287 286 286 285 285 285 285 284 285 284 285 285 284 284 283 282 282 283 282 281 282 282 282 282 282 281 281 280 280 280 280 280 280 280 280 280 281
294 292 291 291 288 286 287 286 286 286 285 284 284 284 284 284 284 284 284 284 283 283 283 282 283 283 282 283 282 282 281 281 281 280 280 280 280 280 280 280 280 280 280 281
293 292 292 289 287 286 287 285 286 285 284 284 284 283 283 284 284 284 284 283 283 283 282 282 282 283 282 282 282 281 281 281 280 279 280 279 279 280 279 279 280 280 280 281
292 292 291 287 286 286 286 285 286 285 284 284 283 283 283 283 283 284 284 283 283 282 282 282 282 282 282 282 282 281 281 281 280 280 280 280 279 279 279 280 280 280 281 281
291 290 288 287 286 286 286 284 285 285 284 283 283 283 283 283 283 283 283 283 282 282 282 282 281 282 282 282 282 282 281 281 280 280 280 280 279 279 279 280 280 281 281 282

GFSNGP_850_thetae_099.txt.gz
Theta_e
305 305 306 307 308 306 309 309 308 309 309 309 306 304 305 304 303 303 303 303 303 303 302 301 300 300 299 299 299 299 299 299 298 297 297 297 297 297 297 297 298 300 301 303
303 308 307 307 307 305 308 310 310 308 309 307 306 305 304 304 303 303 303 303 303 302 301 301 300 299 299 298 298 297 296 296 296 297 296 295 294 294 295 295 295 295 295 296
304 304 306 307 306 307 309 308 309 310 308 305 305 304 304 304 304 304 304 303 303 302 301 300 298 298 297 297 296 295 294 294 293 292 292 293 293 293 293 292 292 293 293 293
303 302 302 305 305 306 306 307 307 308 307 306 306 306 306 305 305 305 304 303 303 301 300 299 298 297 296 296 295 294 293 293 293 293 293 293 292 292 292 292 292 292 291 291
303 301 303 306 305 306 307 306 305 306 306 304 304 304 305 305 305 304 304 303 302 300 298 296 295 294 294 293 292 291 291 291 291 291 291 290 290 290 290 289 289 289 290 290
304 306 307 304 305 306 304 304 304 305 304 302 303 304 302 305 304 303 303 301 299 297 296 295 293 293 292 292 291 291 291 290 289 288 288 288 288 288 288 288 288 288 288 289
306 305 305 303 305 305 306 301 305 306 306 304 302 304 304 303 302 301 300 298 297 296 294 293 292 292 292 292 292 291 290 289 288 288 287 287 286 286 287 287 287 287 288 288
302 304 304 304 304 304 302 305 306 306 306 306 306 305 304 303 302 301 300 299 298 296 294 293 292 292 291 289 288 287 287 287 287 287 287 287 287 286 286 286 287 288 288 288
302 302 302 305 305 306 305 305 306 306 306 305 305 304 303 302 301 300 299 297 294 292 292 291 290 289 288 287 287 287 287 287 286 286 286 286 286 286 286 286 287 288 288 288
303 302 300 304 306 306 305 305 305 304 304 304 304 303 302 301 299 298 295 292 292 292 291 289 288 287 287 287 287 286 286 286 286 286 286 286 286 286 286 286 288 288 288 288
300 300 302 304 305 305 305 305 304 304 304 303 303 301 300 299 297 293 292 292 291 289 288 287 287 287 287 287 286 286 286 286 285 285 285 285 285 285 286 287 288 287 287 287
305 304 304 304 306 305 305 305 304 303 302 301 300 299 298 295 292 291 291 289 288 287 287 287 286 286 286 286 285 285 284 284 284 284 284 285 285 285 285 287 287 287 287 287
304 304 304 304 305 305 305 304 303 302 301 300 299 297 293 292 292 291 289 287 287 287 287 286 286 285 285 284 284 284 284 284 284 284 284 284 284 285 285 286 286 286 286 287
304 303 302 303 304 304 303 303 302 300 299 298 296 292 292 292 290 288 287 287 287 286 285 285 285 285 284 284 284 284 284 284 284 284 284 284 284 285 285 286 286 286 287 287
303 302 303 303 304 303 302 302 300 299 298 294 292 292 291 289 287 287 288 286 286 286 285 285 285 285 284 284 284 284 284 284 284 283 283 284 284 285 285 285 286 286 286 286
299 301 300 301 302 302 301 300 300 297 293 292 292 291 289 287 288 287 286 286 286 285 285 285 285 285 284 284 284 284 284 284 282 283 283 283 283 284 285 285 285 285 285 285
297 300 300 300 300 301 300 300 298 294 292 292 291 288 287 287 287 286 285 285 285 285 285 285 285 284 284 284 283 283 283 283 283 283 283 283 283 283 283 284 285 284 284 284
298 299 301 301 301 300 298 295 293 292 291 290 287 287 287 287 286 285 285 285 285 285 285 284 284 284 284 283 283 283 283 283 283 282 282 282 283 283 283 284 284 284 284 284
299 300 300 300 299 298 296 294 292 291 290 287 287 287 286 286 285 285 285 285 285 285 285 285 285 284 284 283 282 283 283 282 282 282 282 282 282 282 283 283 284 284 284 284
299 299 298 298 297 295 294 292 292 289 287 287 287 286 285 285 285 285 285 285 285 285 285 285 285 284 284 283 283 283 283 282 282 282 282 281 281 281 281 282 282 282 282 282
297 296 296 295 294 292 291 291 288 287 287 287 286 286 285 284 284 285 285 284 285 284 284 284 284 283 283 282 283 283 282 282 282 282 281 281 280 280 280 280 281 281 281 281
295 294 294 293 292 292 291 288 287 287 287 287 286 285 285 284 284 284 284 284 284 284 284 284 283 283 281 282 282 282 282 282 281 281 281 280 279 279 279 279 279 279 280 280
295 294 293 293 292 292 289 287 287 287 287 286 286 285 285 284 284 284 284 284 284 284 284 283 283 283 282 281 282 282 282 281 281 281 280 279 279 279 279 279 279 279 279 280
295 294 293 291 291 291 288 287 287 286 286 285 285 285 285 284 284 284 284 284 284 284 283 283 283 283 282 282 282 282 282 281 281 281 280 279 279 279 279 279 279 279 280 280
296 294 293 291 292 291 287 286 286 286 286 284 284 285 285 284 284 284 284 284 284 283 283 283 283 282 282 281 281 282 281 281 281 280 280 280 279 279 279 279 279 280 280 280
296 295 294 292 292 289 287 286 287 286 285 284 284 284 284 284 283 283 283 283 283 283 283 283 283 283 282 281 281 281 281 281 281 281 281 280 280 280 280 280 280 280 281 281
295 294 292 291 291 290 287 286 286 286 285 284 284 284 284 284 283 283 283 283 283 283 282 283 283 282 282 281 281 281 281 281 281 281 281 280 280 280 280 280 281 281 281 281

GFSNGP_850_thetae_102.txt.gz
Theta_e
304 304 305 306 307 306 306 306 307 307 308 307 305 304 306 307 304 302 302 302 302 301 300 299 299 298 297 297 296 296 296 296 296 295 295 295 295 295 294 294 294 295 295 295
302 306 305 307 305 305 304 308 306 307 307 305 306 305 304 304 303 303 303 303 302 301 300 299 298 297 297 297 297 296 296 296 295 294 294 293 293 293 293 293 293 293 293 293
305 303 304 306 305 305 306 307 307 309 307 304 304 303 304 304 304 304 304 303 303 302 300 299 297 296 296 296 295 295 294 294 294 293 293 293 293 292 292 292 292 292 292 292
303 302 301 303 304 305 306 305 305 306 306 305 306 306 306 305 305 304 304 303 302 301 300 298 297 297 296 295 294 294 293 293 292 292 291 290 290 289 289 289 288 288 289 289
302 300 303 304 304 305 306 305 303 305 305 305 305 304 305 306 305 304 304 303 302 300 299 298 297 295 294 293 292 291 291 290 288 288 287 287 287 287 287 286 286 287 287 287
303 305 304 300 304 305 304 303 302 305 304 302 303 304 302 306 305 304 304 303 301 299 298 296 294 292 292 291 290 289 288 287 287 287 287 287 287 287 287 287 287 286 286 286
305 304 304 302 304 304 306 300 304 306 306 304 301 305 306 305 304 303 302 301 299 297 295 293 292 291 291 289 288 287 287 287 287 287 287 287 287 287 286 286 286 286 286 286
301 304 304 303 304 305 302 304 305 306 306 306 306 305 304 303 302 302 300 298 297 295 292 291 291 290 289 288 287 287 287 287 287 287 287 286 286 286 286 286 286 286 286 287
301 302 301 304 305 306 305 305 305 305 306 306 305 304 303 302 301 300 298 297 295 292 292 291 289 288 287 287 287 287 287 286 286 286 286 286 285 285 285 286 285 286 287 288
302 302 300 302 303 304 306 305 305 305 305 305 304 304 302 301 300 299 297 295 293 292 291 289 288 287 287 287 287 286 286 285 285 285 285 285 285 285 285 285 285 286 287 287
298 300 302 304 305 305 305 304 304 305 304 304 303 303 302 301 299 298 295 292 292 291 289 288 288 288 287 286 286 285 285 285 285 285 285 285 285 285 284 285 285 286 287 287
303 304 302 303 304 304 305 305 304 304 304 303 303 302 301 300 298 294 292 292 290 288 287 288 287 286 286 286 285 285 285 284 284 284 284 284 284 285 285 285 285 285 286 286
303 304 304 303 303 304 304 304 304 303 303 303 302 300 299 297 293 292 292 290 288 288 287 286 286 286 285 285 285 284 284 284 284 284 284 284 284 284 284 285 285 285 285 286
304 302 302 303 302 304 304 304 304 303 302 301 299 298 295 292 292 291 289 287 288 287 286 286 286 285 285 285 285 285 285 284 284 284 284 283 283 283 283 283 284 285 285 285
303 301 300 300 301 301 302 303 303 302 301 299 298 295 292 292 291 288 287 287 286 286 286 286 286 285 285 285 285 284 284 284 284 283 283 283 283 283 283 283 283 284 284 285
300 298 298 299 301 300 301 302 302 300 299 298 295 292 292 291 288 287 287 286 286 286 286 286 285 285 285 285 284 284 284 284 283 283 283 283 282 282 282 282 282 283 283 283
296 297 298 299 300 301 301 301 300 300 298 295 293 292 291 288 287 287 286 286 286 286 286 285 285 285 285 284 284 284 284 284 283 283 282 281 281 281 282 282 282 283 283 283
299 298 298 299 300 301 300 299 299 298 295 293 292 291 288 287 287 286 286 286 286 286 285 285 285 285 284 284 284 284 284 283 283 282 282 281 281 281 281 281 281 282 282 283
299 299 300 300 300 300 300 299 298 294 292 292 291 288 287 288 287 286 286 286 286 285 285 285 285 284 284 284 283 283 283 283 282 282 282 281 280 280 280 280 280 280 281 281
299 299 299 299 299 299 299 296 294 293 292 291 287 287 288 287 286 285 285 286 285 285 284 284 284 284 283 283 283 283 282 282 282 282 282 280 280 280 279 279 279 279 280 280
299 299 298 298 298 297 295 294 293 292 289 287 287 288 287 286 286 285 285 285 284 284 284 284 284 284 283 284 282 282 282 282 282 281 281 281 280 279 278 278 279 279 279 279
298 298 296 295 295 295 293 292 292 289 287 287 288 287 286 286 285 285 285 285 284 284 284 284 284 283 283 281 283 283 283 282 282 281 281 280 279 279 278 278 278 279 279 279
297 297 295 294 294 293 292 292 290 287 287 288 287 287 286 285 285 285 285 284 284 284 284 284 283 283 282 283 282 282 282 282 281 281 280 280 279 279 279 279 279 279 279 279
297 297 296 294 293 292 292 292 290 287 287 287 287 287 286 285 285 284 284 284 284 284 283 283 283 282 282 282 282 282 282 282 282 281 281 280 280 279 279 279 280 280 280 280
297 297 296 294 294 295 293 291 289 287 287 287 286 286 285 285 284 283 284 284 284 283 283 283 283 282 282 282 282 282 282 282 282 280 280 280 280 279 280 280 280 280 280 281
298 297 297 296 295 295 293 291 290 287 286 287 286 286 285 285 284 283 283 284 283 283 283 282 282 282 282 282 282 282 282 282 282 281 281 280 280 280 280 281 281 281 282 282
297 297 296 295 294 294 292 291 290 287 286 287 286 285 285 284 284 283 283 283 283 283 282 282 282 282 282 282 282 282 282 282 281 281 281 280 280 280 281 281 282 282 282 283

GFSNGP_850_thetae_105.txt.gz
Theta_e
304 305 305 306 307 305 305 305 308 307 307 306 305 306 307 307 306 303 302 302 302 301 300 299 298 297 297 296 296 295 294 294 294 294 293 293 293 293 293 293 293 293 293 293
302 305 305 306 305 304 305 305 305 305 307 304 306 306 306 307 305 303 303 303 302 301 300 299 297 297 296 295 295 294 294 294 293 293 293 292 292 291 291 290 290 290 290 290
305 303 303 304 304 304 305 304 306 308 307 304 304 303 305 306 305 304 304 303 303 303 301 300 298 297 296 295 294 293 292 292 292 292 291 290 289 289 288 289 288 288 288 288
303 302 299 301 303 303 304 305 304 305 305 305 306 307 306 306 306 305 304 304 303 302 300 298 296 296 295 293 293 293 293 292 291 289 288 288 288 287 287 287 287 287 287 287
302 301 303 302 304 305 306 305 303 304 304 306 305 305 306 307 306 305 305 304 303 301 299 297 296 295 293 292 292 292 290 289 288 287 287 287 287 287 287 287 287 287 287 287
302 304 304 299 303 304 303 303 300 303 303 303 303 306 304 307 305 305 304 303 302 300 298 297 296 295 293 292 292 289 288 287 287 287 287 287 286 286 286 286 286 286 286 286
305 304 304 301 304 304 306 301 303 305 306 304 302 305 306 306 305 304 303 302 301 299 298 296 294 292 292 290 288 287 287 287 286 286 286 286 286 285 286 286 286 286 286 286
301 304 304 302 303 305 302 303 304 306 306 306 307 306 306 305 304 303 302 301 299 298 296 293 291 291 289 287 287 287 287 287 286 286 286 286 286 286 286 285 286 286 286 286
301 302 301 303 305 306 305 305 305 305 305 305 306 306 305 305 303 302 301 300 298 296 293 291 290 288 287 287 287 287 286 286 286 286 286 286 286 286 286 286 285 285 285 285
301 301 300 302 303 303 303 303 304 304 304 304 305 305 304 303 302 301 299 297 295 292 291 289 288 287 287 286 286 286 286 286 286 286 286 286 286 285 285 285 285 285 285 286
298 300 302 304 303 304 304 304 304 304 303 304 303 303 303 302 301 299 297 295 292 291 289 287 287 287 286 286 286 286 286 286 286 286 285 285 285 285 285 285 284 285 285 285
303 303 302 302 303 303 303 304 304 303 303 303 303 303 302 301 300 299 296 292 291 290 287 288 287 286 286 286 286 286 286 286 285 285 285 285 284 285 285 283 283 283 284 286
303 304 303 304 303 303 302 302 303 303 303 303 303 302 301 300 298 295 292 291 290 287 288 287 286 286 286 286 286 286 285 285 285 284 284 284 284 283 282 284 284 283 283 284
304 303 302 303 302 301 300 302 302 303 303 302 301 301 299 298 295 292 292 290 287 288 287 286 286 286 286 286 286 285 285 284 284 284 284 283 283 282 283 281 282 282 283 283
303 303 302 301 300 299 298 301 301 301 301 301 300 299 298 295 292 291 289 287 288 287 286 286 286 286 286 286 285 285 284 284 284 284 283 283 283 282 281 281 281 282 282 282
302 302 300 297 297 298 300 301 300 300 300 300 299 298 295 292 292 290 288 288 287 286 286 286 286 286 286 285 285 284 284 284 283 283 283 283 283 281 281 281 281 281 281 281
300 298 298 299 299 300 301 300 300 300 300 299 298 295 292 292 290 287 288 287 286 286 286 286 286 285 285 285 284 284 284 284 283 283 283 283 282 281 281 281 280 280 281 281
297 299 299 299 299 300 301 301 300 300 299 298 295 292 292 291 287 288 287 286 286 286 285 285 285 285 285 284 284 284 283 283 283 283 283 283 281 281 281 280 280 279 280 280
300 300 299 300 300 300 300 300 300 299 298 295 293 292 291 287 287 287 286 286 286 286 285 285 285 285 285 284 283 283 283 282 282 282 282 282 282 281 281 280 279 279 279 279
300 301 301 300 299 300 300 300 299 297 295 293 292 291 288 288 288 287 286 286 285 285 285 285 285 285 284 284 283 283 281 281 282 282 282 281 281 281 280 280 279 279 279 279
299 300 300 299 299 299 299 298 297 295 293 292 290 287 287 287 287 287 286 286 285 284 284 284 284 284 284 283 283 282 281 282 282 282 281 281 281 281 280 279 279 279 279 279
298 298 299 299 298 297 297 296 294 293 292 290 287 287 288 287 287 286 285 285 285 284 284 284 284 284 284 283 283 282 281 281 281 281 281 282 281 281 280 279 279 279 279 279
298 298 298 298 297 296 295 294 293 292 291 288 287 287 287 287 286 286 285 285 285 284 284 284 284 284 283 283 282 282 282 281 281 282 282 282 281 281 280 280 280 280 280 280
299 298 298 297 296 295 295 294 293 292 291 288 287 287 287 287 286 286 285 285 285 284 283 283 283 283 283 283 282 282 282 281 282 282 282 281 281 281 280 280 280 281 281 281
299 298 298 297 296 296 295 294 292 291 291 290 287 287 287 286 286 285 285 284 284 284 283 283 283 283 283 282 282 282 282 281 282 282 282 281 282 281 280 281 281 281 282 282
299 299 298 298 297 296 295 294 293 293 291 291 288 287 287 286 285 285 284 284 284 284 283 283 283 282 282 282 282 282 282 282 282 282 281 282 282 281 281 281 282 282 282 283
298 298 298 298 297 297 296 295 294 293 292 291 289 286 286 286 285 285 284 284 284 284 283 283 282 282 282 282 282 282 281 281 282 282 281 282 282 281 281 281 282 282 283 283

GFSNGP_850_thetae_108.txt.gz
Theta_e
311 311 311 311 311 310 311 311 311 311 311 311 311 312 311 309 308 308 306 304 303 303 301 300 299 298 297 297 296 296 295 295 294 293 292 292 292 291 291 290 290 289 289 290
309 310 309 309 309 309 310 310 310 310 310 310 310 309 310 309 309 308 305 304 303 303 302 300 298 297 297 296 295 294 293 292 292 291 290 289 289 289 288 288 288 288 288 288
311 309 308 309 308 308 308 308 309 310 310 310 310 308 309 309 309 307 305 304 303 303 302 301 299 297 296 295 294 293 292 291 291 289 288 288 288 288 288 288 288 288 288 288
312 310 309 305 306 306 308 308 308 309 309 309 310 309 308 308 308 307 305 304 304 304 303 301 299 297 296 295 293 292 292 291 289 288 288 288 288 288 287 287 287 287 287 286
312 310 308 305 306 307 308 308 307 308 308 308 308 306 308 308 307 306 305 305 304 304 303 301 298 296 295 294 292 292 291 289 288 288 288 287 287 286 286 286 286 286 286 286
308 310 308 304 305 305 306 308 304 304 307 307 306 311 310 308 308 307 305 304 304 303 302 299 297 296 293 292 291 290 288 288 288 287 287 286 286 286 286 287 287 287 287 287
309 309 310 308 306 304 308 306 304 306 307 307 308 309 307 307 307 306 305 304 303 302 300 298 296 295 293 292 290 288 288 288 287 286 286 286 286 286 286 286 286 286 286 287
308 310 311 305 304 307 307 304 304 305 305 306 306 306 306 306 305 304 304 303 302 300 298 298 296 293 292 289 288 288 287 286 286 286 286 286 286 286 286 286 286 286 286 286
308 308 306 304 307 305 305 304 304 304 304 304 305 305 305 305 305 304 303 302 300 298 297 295 292 291 289 288 288 287 286 286 286 286 286 286 286 286 286 285 285 285 286 286
303 306 304 304 303 302 302 302 303 303 303 302 303 303 304 305 304 303 302 300 298 296 295 292 291 289 288 287 286 286 286 286 286 286 286 286 285 285 285 285 285 285 286 286
305 305 304 304 304 303 303 304 304 304 304 303 303 303 303 303 303 302 301 299 297 295 292 291 288 287 287 286 286 286 286 286 286 286 286 286 286 286 285 285 284 285 285 284
307 306 305 305 304 303 304 303 302 302 302 303 303 303 303 302 302 301 300 298 296 292 291 288 288 287 286 286 286 286 285 285 285 285 285 285 285 285 285 284 284 284 283 283
305 305 304 304 303 304 303 302 301 301 301 302 303 302 302 302 301 300 298 296 293 292 288 288 286 286 286 286 286 286 285 285 285 285 285 284 284 283 284 286 285 284 283 283
304 303 302 303 303 303 302 301 300 299 302 302 302 302 301 301 300 298 296 293 291 288 288 287 286 286 286 286 286 285 285 285 285 285 284 283 283 283 283 282 282 284 283 282
302 302 303 302 301 301 300 297 297 300 301 302 301 300 300 299 298 295 292 291 288 288 287 286 286 286 286 286 285 285 285 285 285 284 283 283 283 282 282 282 282 282 282 282
303 303 302 301 301 298 298 298 299 300 301 300 300 300 299 297 294 292 291 288 287 287 286 286 286 286 285 286 285 285 285 284 284 283 282 283 282 282 282 282 282 282 281 281
302 301 300 298 299 299 300 300 300 300 300 300 300 298 297 295 292 291 289 287 287 286 286 286 286 285 285 285 285 284 284 284 283 282 283 282 281 281 281 281 281 281 280 280
302 301 298 299 299 300 300 300 301 300 300 300 298 297 295 293 292 289 287 288 287 286 286 286 286 285 285 285 284 284 284 283 283 282 281 281 281 281 281 280 280 280 280 280
299 298 300 300 300 301 300 300 301 300 300 299 298 296 293 291 290 287 287 287 286 286 285 285 285 285 285 284 284 283 283 283 282 282 282 282 281 280 280 280 280 279 279 279
299 299 300 301 300 300 299 300 300 300 299 298 296 293 292 291 288 287 287 286 286 285 285 285 285 285 284 284 283 283 283 282 282 282 282 281 281 280 279 279 279 279 279 279
299 299 299 300 300 300 299 299 299 299 298 296 294 292 291 287 287 287 287 286 286 285 285 285 285 284 284 283 284 283 283 282 282 282 282 282 282 281 279 278 279 278 279 280
299 299 298 299 299 299 299 298 298 297 295 294 292 291 288 287 287 287 286 286 285 285 285 285 284 284 284 284 283 283 282 282 282 282 282 282 282 281 280 279 280 280 281 281
300 299 298 298 298 298 297 297 296 295 294 293 292 289 287 287 287 287 287 286 285 285 285 284 284 284 284 284 283 283 282 282 282 282 282 282 282 281 280 281 281 281 282 282
300 299 299 298 298 297 297 296 295 295 293 292 291 289 287 287 287 287 286 285 285 285 285 284 284 284 283 283 283 283 282 282 282 282 282 282 282 281 281 281 281 282 282 282
300 299 299 298 299 298 298 296 295 294 293 292 292 291 289 287 287 286 286 285 285 284 284 284 284 283 283 283 283 282 282 282 282 283 282 282 282 281 281 281 282 282 282 283
299 299 299 299 299 298 298 296 296 295 294 293 292 291 290 287 286 286 286 285 285 284 284 284 284 283 283 283 282 282 282 282 282 282 282 282 282 281 281 282 282 282 283 283
299 300 300 299 298 299 299 298 297 297 296 295 293 292 290 288 286 286 285 285 284 284 284 284 283 283 282 282 282 282 282 282 282 282 282 282 281 281 281 282 282 282 283 283

GFSNGP_850_thetae_111.txt.gz
Theta_e
313 312 311 311 311 311 312 312 313 312 310 310 311 312 312 312 311 310 309 308 308 306 305 303 301 299 298 297 297 296 295 294 293 293 293 292 291 290 289 289 289 289 289 290
311 310 310 310 310 311 311 311 311 311 312 311 310 310 311 311 312 310 310 309 307 306 305 303 301 299 299 297 297 296 294 293 293 292 290 289 289 289 289 289 289 289 289 288
312 311 311 312 311 310 309 310 310 311 310 310 311 311 311 311 312 311 310 309 307 306 305 303 301 299 298 298 297 296 293 292 292 290 289 288 288 288 288 288 288 288 288 288
312 311 313 309 308 307 308 309 309 309 309 310 310 310 311 311 311 311 310 309 307 306 305 303 301 300 298 297 295 293 292 291 289 288 288 288 288 287 287 287 287 287 287 287
312 312 311 309 306 308 308 309 309 309 309 308 308 309 309 309 309 310 310 309 307 306 304 302 300 299 297 296 294 292 291 290 288 288 288 288 287 287 287 287 287 287 287 287
311 310 310 307 308 307 308 309 309 307 308 308 309 309 310 309 309 308 307 306 305 304 303 301 299 299 297 295 293 291 290 288 288 287 287 287 287 286 286 286 286 286 287 287
311 310 309 310 308 307 308 308 307 307 307 308 309 308 308 307 307 307 305 304 304 303 302 301 299 298 295 293 291 291 288 288 288 287 287 287 287 287 286 286 286 286 287 287
309 310 311 307 307 307 308 307 306 307 306 306 306 306 307 306 305 306 305 304 304 302 301 301 299 297 295 292 291 288 288 288 287 288 287 287 286 286 286 286 286 286 287 287
310 311 309 307 308 307 307 306 306 305 305 305 305 305 306 306 305 304 303 302 302 301 300 299 298 296 293 291 289 288 287 287 287 287 286 286 286 286 286 286 286 286 286 286
307 308 308 307 306 306 305 304 304 304 304 304 304 304 304 304 304 303 302 301 301 300 299 297 296 293 291 288 288 287 287 287 287 286 286 286 286 286 286 286 286 285 285 285
307 307 307 307 306 306 306 305 304 303 303 303 303 303 303 304 304 302 301 301 300 299 297 296 294 292 288 288 287 287 287 287 286 286 285 285 285 286 285 285 285 285 285 284
308 308 308 308 306 304 304 304 304 303 302 302 302 302 303 303 303 301 301 301 300 298 296 294 291 288 288 287 287 287 286 286 286 285 285 285 285 285 285 285 285 284 284 284
307 307 306 306 304 304 303 303 303 302 300 300 302 302 302 302 301 301 300 300 298 297 293 291 288 288 287 286 286 286 286 286 285 285 285 285 285 285 285 285 284 284 284 284
306 306 306 305 304 303 303 303 302 302 301 298 301 301 301 301 301 300 300 298 296 293 291 288 288 287 286 286 286 286 286 285 285 285 284 284 284 284 284 283 283 283 283 283
304 304 304 304 303 303 302 301 301 298 298 299 301 301 301 301 300 299 298 297 293 291 288 288 287 286 286 286 286 286 285 285 284 284 284 284 283 283 283 283 283 282 282 282
303 302 302 302 302 302 300 299 298 298 299 300 300 300 300 299 298 298 296 293 292 289 288 288 287 286 286 286 286 285 285 284 284 284 283 283 283 282 282 282 282 282 281 281
302 302 302 301 300 298 299 300 300 299 300 300 300 300 299 298 297 295 293 292 289 288 288 287 286 286 286 285 285 285 284 284 284 283 283 282 282 282 282 282 282 281 281 281
303 303 302 302 299 299 299 300 301 301 301 301 300 299 299 298 297 293 292 290 288 288 287 287 286 286 285 285 285 285 284 284 283 283 283 282 282 282 282 281 281 281 280 280
302 302 302 299 300 300 300 300 300 301 301 300 300 299 298 296 293 292 291 288 287 288 287 286 286 286 285 285 285 284 284 283 283 283 282 282 281 281 281 280 280 280 280 280
301 301 299 299 300 301 300 299 299 300 300 300 299 298 297 295 292 292 290 287 288 287 287 286 286 286 285 285 284 284 284 284 283 282 282 282 281 280 280 279 279 280 280 280
300 299 299 299 300 300 300 300 299 300 300 299 299 298 296 293 292 290 287 288 288 287 286 286 286 285 285 284 284 284 284 283 283 282 282 282 282 281 280 280 279 280 281 281
300 300 299 299 299 299 299 299 299 299 299 298 298 296 293 292 291 288 287 287 287 287 286 286 285 285 285 284 284 284 283 283 282 282 282 282 282 282 282 281 281 281 281 281
299 299 300 299 299 299 298 298 298 298 298 297 296 294 293 292 289 287 287 288 287 286 286 285 285 285 284 284 283 283 283 283 282 282 282 282 282 282 282 281 282 281 282 282
299 299 299 299 298 298 299 298 297 296 296 295 295 293 292 290 288 287 287 287 287 286 285 285 285 285 284 284 283 283 283 283 282 282 282 282 282 282 282 282 282 282 282 282
299 298 299 299 299 299 299 298 297 297 297 295 294 293 292 291 290 288 287 287 286 286 285 285 285 284 284 284 283 283 283 282 282 282 282 282 282 282 282 282 282 282 282 282
301 299 298 298 299 299 299 298 298 300 301 298 295 293 292 291 290 289 287 286 286 285 285 285 284 284 284 283 283 283 282 282 282 282 282 282 282 282 282 281 282 282 282 283
301 299 298 297 298 298 299 302 301 299 300 300 298 295 293 292 291 290 288 286 286 285 285 285 284 284 284 283 283 282 282 282 282 282 282 282 282 282 282 281 282 282 282 282

GFSNGP_850_thetae_114.txt.gz
Theta_e
311 311 311 310 310 310 310 310 311 310 309 309 308 308 309 312 311 310 309 309 308 308 307 305 303 301 299 298 298 297 296 295 294 293 292 290 289 289 289 290 289 289 289 289
307 309 309 309 309 309 309 310 310 310 310 309 309 310 310 310 311 311 311 310 309 309 307 305 303 302 300 299 298 297 295 294 293 292 290 289 289 289 289 288 288 288 288 288
309 309 309 309 309 309 309 308 308 309 309 307 307 309 310 311 311 312 312 311 310 309 306 305 304 302 301 300 298 298 296 294 293 292 289 289 289 288 288 288 288 288 288 288
308 307 309 309 308 307 308 308 307 307 307 307 308 309 309 310 311 311 311 311 310 309 307 305 304 303 302 300 299 298 295 293 292 289 289 289 288 288 288 288 288 288 288 288
305 307 309 309 306 306 306 306 306 306 306 308 308 308 307 310 310 309 309 310 310 308 306 305 304 303 302 300 298 297 294 293 290 289 289 288 288 289 289 289 288 288 288 288
307 308 309 308 306 307 307 305 305 307 306 308 308 306 304 308 307 307 308 309 308 307 306 305 304 303 301 298 297 295 293 291 289 289 288 288 288 288 288 288 288 287 287 287
309 309 308 306 306 307 305 304 306 307 307 307 306 306 307 307 307 306 307 307 306 306 305 304 302 301 299 297 296 294 292 289 289 288 288 288 287 287 287 287 287 287 287 287
307 307 307 307 306 305 305 306 306 307 307 306 306 306 306 306 307 307 305 305 305 304 303 302 301 300 298 297 295 292 289 289 288 288 288 287 287 287 287 286 286 286 286 287
307 307 307 308 308 307 307 307 306 306 306 306 305 305 305 305 305 306 305 304 303 303 302 301 301 299 297 295 293 290 288 288 287 287 287 287 287 287 286 286 286 286 286 286
305 304 305 307 307 307 307 307 306 305 304 304 304 304 304 304 304 305 305 303 303 302 301 301 300 298 296 293 291 288 288 287 288 287 287 287 287 286 286 286 286 286 285 285
305 305 306 306 306 306 306 306 306 304 304 304 303 303 303 303 303 304 304 303 302 301 300 299 299 297 295 292 289 288 288 287 287 287 287 286 286 285 285 285 285 285 285 285
307 307 306 306 306 306 305 305 305 304 304 304 303 301 301 302 303 303 303 302 301 300 299 298 298 296 293 289 288 288 287 287 287 287 287 286 285 285 285 285 285 285 285 284
306 307 307 307 306 306 305 304 304 304 303 303 302 301 300 302 302 302 302 301 300 300 299 298 296 293 289 288 288 287 287 287 287 286 286 285 285 285 284 285 284 284 284 284
307 307 307 306 306 305 305 304 303 303 302 302 301 299 300 301 301 301 301 300 300 299 298 296 293 290 288 288 287 287 287 287 286 286 285 285 284 284 284 284 283 284 284 283
306 305 305 306 305 304 304 303 302 302 301 299 298 298 300 301 301 301 300 299 299 297 295 293 290 288 288 287 287 287 286 286 285 285 284 284 284 284 283 283 283 283 283 283
304 303 304 304 304 304 303 302 301 299 299 298 299 300 300 300 300 300 300 299 297 295 293 290 288 288 287 287 286 286 286 285 285 285 284 284 283 283 282 282 282 282 282 281
304 303 303 303 302 302 300 299 299 300 300 300 300 300 299 299 299 298 298 297 294 293 291 288 288 287 287 286 286 286 285 285 285 284 284 283 283 282 282 282 282 282 281 281
302 303 303 303 302 301 299 299 300 301 301 301 300 300 299 299 300 299 298 295 293 292 288 288 288 287 287 286 286 286 285 285 284 284 284 283 282 282 282 281 281 281 281 281
301 302 302 302 302 300 300 300 300 300 300 301 300 300 300 299 298 297 295 293 292 290 288 288 287 287 286 286 285 285 285 284 284 284 283 283 282 282 281 281 280 281 281 281
302 301 301 302 302 299 300 301 301 300 300 300 300 300 299 299 298 296 294 293 292 289 288 288 287 287 286 286 285 285 284 284 284 284 283 282 282 282 282 281 280 281 281 281
300 300 300 299 299 299 300 300 300 300 300 299 300 300 300 298 297 295 293 292 291 288 288 288 287 286 286 286 285 284 284 284 284 283 282 282 282 282 282 282 282 281 282 282
300 299 299 299 299 299 299 299 299 299 299 299 299 299 298 297 296 294 292 291 288 287 288 288 287 286 286 285 285 284 284 284 284 283 282 282 282 282 283 282 282 282 282 282
301 301 299 299 299 299 298 299 299 298 298 298 298 298 298 297 295 293 292 290 288 288 288 287 287 286 285 285 285 284 284 283 283 283 282 282 282 283 283 282 282 282 282 282
303 304 303 299 298 298 299 299 299 298 297 297 297 296 296 295 294 293 292 290 287 287 288 287 286 286 285 285 284 284 284 283 283 282 282 282 282 283 282 282 282 282 282 282
302 301 300 299 298 298 299 299 297 297 297 297 297 300 301 298 294 293 291 290 288 287 287 287 286 285 285 285 284 284 283 283 283 282 282 282 282 283 282 282 281 282 282 282
300 301 301 299 297 297 297 297 298 298 297 297 298 299 300 300 295 293 292 290 289 287 287 286 286 285 285 285 284 284 283 283 282 282 282 282 282 283 282 282 281 282 282 282
300 300 301 300 300 300 299 297 297 297 297 298 300 301 300 300 299 294 292 290 290 288 287 286 286 285 285 284 284 283 283 282 282 282 282 282 282 283 282 281 281 281 281 282

GFSNGP_850_thetae_117.txt.gz
Theta_e
308 308 309 310 310 309 309 309 309 309 307 308 306 305 307 309 309 310 311 309 309 308 308 307 306 304 303 301 300 299 299 298 297 295 293 290 290 290 290 290 289 289 289 290
303 307 307 307 307 308 308 308 309 309 308 308 308 308 307 308 309 309 310 311 310 310 308 308 307 305 304 303 301 298 297 297 296 294 292 289 290 289 288 288 288 288 288 288
306 306 305 306 307 306 306 306 308 308 308 306 306 306 307 308 309 310 310 311 311 310 310 309 308 306 305 303 301 299 298 296 295 293 290 289 289 288 288 289 288 288 288 288
304 304 306 304 306 305 306 307 306 306 306 305 306 308 308 308 309 309 310 310 310 311 310 309 307 305 304 302 301 299 297 296 294 292 289 289 288 288 288 288 288 289 288 288
304 303 305 307 306 305 305 304 304 306 306 305 307 307 306 306 308 308 308 309 309 310 310 309 307 306 304 303 301 299 298 296 293 290 289 288 288 288 288 288 288 288 288 288
304 306 309 305 305 307 305 302 303 304 303 304 307 304 301 306 308 307 306 307 308 309 308 307 306 305 304 303 301 299 297 295 292 289 289 288 288 288 288 287 288 288 288 287
308 309 306 305 305 307 305 305 306 306 306 306 305 305 306 307 306 306 306 306 306 307 307 306 305 304 303 302 300 298 296 293 289 289 288 288 288 288 287 287 287 287 287 287
306 307 306 305 305 305 305 305 307 306 306 306 306 306 307 306 305 305 306 306 305 305 305 305 304 303 302 300 298 297 294 291 289 288 288 288 287 287 287 286 286 287 287 287
305 306 305 306 307 307 307 306 306 306 306 306 306 306 305 305 304 304 305 305 305 304 304 303 302 301 301 299 298 295 292 289 288 287 287 287 287 287 286 286 286 286 286 286
304 304 305 307 308 308 308 307 307 307 307 306 305 304 304 304 303 304 304 304 304 304 303 302 301 301 300 298 296 293 290 288 287 288 287 287 287 286 286 286 286 286 286 286
304 305 306 306 306 306 306 306 306 306 306 305 304 304 304 304 302 302 303 303 304 303 303 302 300 300 299 297 294 291 288 288 287 287 287 287 287 286 286 285 285 285 285 285
306 307 305 306 306 306 306 306 306 305 305 304 304 304 304 303 301 302 302 303 304 303 302 301 300 299 297 296 292 289 288 287 287 287 287 287 286 286 285 285 285 285 285 284
305 306 306 306 306 306 306 306 306 305 304 304 304 303 303 302 301 301 302 303 303 302 301 300 299 298 297 293 290 289 288 287 287 287 287 286 286 285 286 285 284 285 284 284
305 305 305 306 306 306 306 306 305 304 304 303 303 302 302 301 299 300 302 302 302 301 300 299 298 297 293 291 289 288 287 287 287 287 286 286 285 285 285 284 284 284 284 283
304 305 304 304 305 304 305 305 304 304 303 302 302 300 298 298 299 301 301 301 301 300 299 298 297 294 291 289 288 287 287 287 286 286 286 285 285 284 284 283 283 283 284 284
301 301 303 304 303 303 304 304 304 303 301 300 299 299 298 299 300 300 300 300 300 300 299 298 294 292 289 288 288 287 287 286 286 286 285 284 284 284 283 283 283 283 283 283
300 299 300 302 303 303 303 303 301 300 299 300 300 300 300 300 300 300 300 299 299 297 296 293 292 289 288 288 287 287 286 286 286 285 285 284 284 283 283 283 282 283 283 283
299 299 300 300 302 302 302 301 299 299 299 301 300 300 300 300 301 300 299 298 297 296 294 293 290 288 288 287 287 286 286 286 285 285 284 284 283 283 282 282 282 283 283 283
301 302 302 301 301 302 302 302 299 300 300 301 300 301 301 301 300 299 297 297 296 295 294 292 289 288 288 287 286 286 286 285 285 285 284 284 283 282 282 282 283 283 283 282
300 299 300 301 301 301 302 301 299 300 300 300 299 300 301 301 300 299 298 297 297 295 292 290 288 288 288 287 286 286 285 285 285 284 284 283 283 282 282 283 283 282 283 282
304 303 302 301 300 299 298 298 299 299 299 299 299 299 300 300 299 299 298 297 298 295 292 290 288 288 287 287 286 286 285 285 285 284 284 283 283 282 282 283 283 283 283 283
301 302 303 302 302 302 300 298 298 298 299 299 299 299 299 300 299 298 298 298 297 293 292 289 288 288 287 286 286 285 285 285 284 284 283 283 282 282 282 283 283 283 283 283
300 301 301 301 301 301 301 300 298 298 298 299 298 298 298 299 298 300 302 299 295 293 291 288 287 287 287 286 286 285 285 284 284 283 283 283 282 282 282 283 283 283 282 283
300 300 301 300 300 300 300 301 300 298 297 298 298 298 297 297 297 301 301 301 295 292 291 288 287 287 286 286 285 285 285 284 284 283 283 283 282 282 283 283 283 282 282 283
300 300 300 300 300 300 300 300 299 297 297 297 298 298 297 297 297 299 300 300 295 292 291 291 289 287 286 286 285 285 284 284 283 283 283 283 282 282 282 283 282 282 282 282
299 300 300 300 300 299 299 299 299 299 299 299 298 297 297 296 297 297 300 301 296 293 292 290 290 287 286 286 285 284 284 284 283 283 282 282 282 282 282 283 282 282 282 282
299 299 299 299 299 299 299 299 299 299 298 298 299 296 296 296 296 297 300 300 298 294 292 291 290 287 286 285 285 284 284 284 283 283 282 282 282 282 282 282 282 282 281 282